CSS Menu Builder
ID TemperatureIN HumidityIN TemperatureOUT HumidityOUT Pressure Timestamp
47502 19.00 62.77 9.31 88.57 992.87 2019-10-14 06:35:35
47501 18.98 62.76 9.27 88.55 992.86 2019-10-14 06:34:35
47500 18.96 62.84 9.19 88.55 992.90 2019-10-14 06:33:35
47499 18.97 62.83 9.16 88.54 992.96 2019-10-14 06:32:34
47498 18.98 62.77 9.11 88.53 992.96 2019-10-14 06:31:34
47497 19.01 62.71 9.04 88.50 992.97 2019-10-14 06:30:34
47496 19.01 62.64 9.02 88.50 993.01 2019-10-14 06:29:34
47495 18.99 62.69 8.98 88.48 993.01 2019-10-14 06:28:34
47494 18.99 62.68 8.96 88.48 992.99 2019-10-14 06:27:34
47493 19.01 62.68 8.96 88.48 993.00 2019-10-14 06:26:34
47492 19.01 62.56 8.97 88.47 992.97 2019-10-14 06:24:29
47491 19.00 62.61 8.96 88.45 992.98 2019-10-14 06:23:29
47490 18.99 62.64 8.97 88.47 992.97 2019-10-14 06:22:29
47489 19.01 62.64 9.00 88.45 992.94 2019-10-14 06:21:28
47488 19.01 62.64 9.00 88.44 992.95 2019-10-14 06:20:28
47487 19.01 62.65 8.96 88.42 992.91 2019-10-14 06:19:28
47486 18.98 62.69 8.91 88.42 992.91 2019-10-14 06:18:28
47485 19.00 62.68 8.85 88.41 992.92 2019-10-14 06:17:28
47484 19.00 62.69 8.79 88.40 992.89 2019-10-14 06:16:28
47483 19.01 62.62 8.75 88.37 992.87 2019-10-14 06:15:28
47482 19.04 62.60 8.75 88.38 992.89 2019-10-14 06:14:27
47481 19.02 62.68 8.74 88.38 992.92 2019-10-14 06:13:27
47480 19.04 62.49 8.71 88.36 992.95 2019-10-14 06:12:27
47479 19.02 62.60 8.68 88.36 992.93 2019-10-14 06:11:27
47478 19.03 62.56 8.67 88.35 992.96 2019-10-14 06:10:27
47477 19.01 62.50 8.67 88.35 992.96 2019-10-14 06:09:27
47476 19.02 62.38 8.69 88.35 992.96 2019-10-14 06:08:27
47475 19.03 62.37 8.70 88.35 992.92 2019-10-14 06:07:26
47474 19.03 62.26 8.70 88.33 992.93 2019-10-14 06:06:26
47473 19.03 62.30 8.68 88.33 992.93 2019-10-14 06:05:26
47472 19.03 62.28 8.69 88.32 992.89 2019-10-14 06:04:26
47471 19.04 62.24 8.71 88.31 992.87 2019-10-14 06:03:26
47470 19.05 62.28 8.71 88.30 992.83 2019-10-14 06:02:26
47469 19.03 62.31 8.71 88.30 992.86 2019-10-14 06:01:26
47468 19.04 62.35 8.69 88.30 992.79 2019-10-14 06:00:26
47467 19.03 62.37 8.63 88.29 992.81 2019-10-14 05:59:26
47466 19.05 62.31 8.54 88.26 992.83 2019-10-14 05:58:25
47465 19.03 62.35 8.48 88.23 992.86 2019-10-14 05:57:25
47464 19.05 62.23 8.44 88.23 992.85 2019-10-14 05:56:25
47463 19.06 62.21 8.42 88.20 992.91 2019-10-14 05:54:20
47462 19.04 62.20 8.43 88.19 992.86 2019-10-14 05:53:20
47461 19.06 62.13 8.44 88.19 992.85 2019-10-14 05:52:20
47460 19.07 62.11 8.47 88.19 992.87 2019-10-14 05:51:20
47459 19.07 62.10 8.49 88.19 992.85 2019-10-14 05:50:20
47458 19.07 62.13 8.47 88.19 992.83 2019-10-14 05:49:20
47457 19.08 62.10 8.43 88.17 992.84 2019-10-14 05:48:20
47456 19.07 62.14 8.42 88.16 992.86 2019-10-14 05:47:19
47455 19.09 62.03 8.41 88.15 992.87 2019-10-14 05:46:19
47454 19.08 62.09 8.41 88.15 992.88 2019-10-14 05:45:19
47453 19.07 62.11 8.43 88.16 992.90 2019-10-14 05:44:19
47452 19.09 62.02 8.44 88.16 992.89 2019-10-14 05:43:19
47451 19.09 62.01 8.43 88.16 992.90 2019-10-14 05:42:19
47450 19.08 62.04 8.41 88.14 992.89 2019-10-14 05:41:19
47449 19.08 62.04 8.41 88.13 992.95 2019-10-14 05:40:19
47448 19.08 62.07 8.42 88.12 992.94 2019-10-14 05:39:19
47447 19.07 62.11 8.46 88.13 992.95 2019-10-14 05:38:19
47446 19.08 62.10 8.51 88.14 992.95 2019-10-14 05:37:19
47445 19.08 62.10 8.51 88.13 992.89 2019-10-14 05:36:19
47444 19.09 62.07 8.51 88.13 992.90 2019-10-14 05:35:18
47443 19.09 62.04 8.44 88.12 992.93 2019-10-14 05:34:18
47442 19.09 62.05 8.45 88.09 992.93 2019-10-14 05:33:18
47441 19.09 62.07 8.48 88.10 992.97 2019-10-14 05:32:18
47440 19.09 62.04 8.51 88.11 992.96 2019-10-14 05:31:18
47439 19.09 62.04 8.53 88.11 992.96 2019-10-14 05:30:18
47438 19.11 61.99 8.54 88.11 992.91 2019-10-14 05:29:18
47437 19.11 62.01 8.55 88.12 992.96 2019-10-14 05:28:18
47436 19.12 61.97 8.56 88.11 992.97 2019-10-14 05:27:18
47435 19.10 62.00 8.60 88.11 992.96 2019-10-14 05:26:18
47434 19.08 62.04 8.69 88.11 992.97 2019-10-14 05:24:12
47433 19.10 62.05 8.74 88.11 992.97 2019-10-14 05:23:12
47432 19.11 62.01 8.77 88.12 993.00 2019-10-14 05:22:12
47431 19.09 62.06 8.82 88.11 993.01 2019-10-14 05:21:12
47430 19.10 62.05 8.85 88.13 993.05 2019-10-14 05:20:12
47429 19.10 62.01 8.80 88.11 993.04 2019-10-14 05:19:12
47428 19.10 62.06 8.72 88.08 993.00 2019-10-14 05:18:12
47427 19.11 62.08 8.68 88.06 993.01 2019-10-14 05:17:12
47426 19.10 62.08 8.69 88.08 992.97 2019-10-14 05:16:12
47425 19.09 62.10 8.71 88.08 992.99 2019-10-14 05:15:11
47424 19.12 61.99 8.71 88.08 993.02 2019-10-14 05:14:11
47423 19.12 61.91 8.67 88.09 993.04 2019-10-14 05:13:11
47422 19.12 61.96 8.66 88.07 993.11 2019-10-14 05:12:11
47421 19.11 61.99 8.69 88.08 993.12 2019-10-14 05:11:11
47420 19.11 62.03 8.73 88.07 993.08 2019-10-14 05:10:11
47419 19.11 62.01 8.77 88.09 993.11 2019-10-14 05:09:11
47418 19.12 62.02 8.81 88.09 993.12 2019-10-14 05:08:11
47417 19.11 62.01 8.84 88.08 993.13 2019-10-14 05:07:11
47416 19.11 62.06 8.87 88.10 993.12 2019-10-14 05:06:10
47415 19.12 62.02 8.88 88.10 993.14 2019-10-14 05:05:10
47414 19.12 62.05 8.90 88.11 993.11 2019-10-14 05:04:10
47413 19.11 62.06 8.89 88.12 993.14 2019-10-14 05:03:10
47412 19.12 62.08 8.91 88.11 993.18 2019-10-14 05:02:10
47411 19.11 62.03 8.92 88.11 993.18 2019-10-14 05:01:10
47410 19.14 62.02 8.95 88.12 993.20 2019-10-14 05:00:10
47409 19.13 61.86 8.96 88.12 993.19 2019-10-14 04:59:10
47408 19.13 61.90 9.01 88.13 993.20 2019-10-14 04:58:09
47407 19.13 61.95 9.07 88.14 993.18 2019-10-14 04:57:09
47406 19.12 61.98 9.11 88.15 993.17 2019-10-14 04:56:09
47405 19.14 61.94 9.18 88.15 993.25 2019-10-14 04:52:59
47404 19.15 61.95 9.17 88.16 993.19 2019-10-14 04:51:59
47403 19.13 61.94 9.18 88.17 993.19 2019-10-14 04:50:59
47402 19.14 61.93 9.20 88.16 993.15 2019-10-14 04:49:59
47401 19.15 61.88 9.24 88.19 993.17 2019-10-14 04:48:59
47400 19.15 61.91 9.29 88.20 993.13 2019-10-14 04:47:59
47399 19.14 61.94 9.33 88.21 993.14 2019-10-14 04:46:59
47398 19.16 61.88 9.33 88.19 993.10 2019-10-14 04:45:58
47397 19.14 61.97 9.33 88.19 993.11 2019-10-14 04:44:58
47396 19.15 61.95 9.35 88.20 993.09 2019-10-14 04:43:58
47395 19.14 61.97 9.40 88.20 993.06 2019-10-14 04:42:58
47394 19.15 61.94 9.44 88.20 993.05 2019-10-14 04:41:58
47393 19.14 61.95 9.45 88.21 993.07 2019-10-14 04:40:58
47392 19.14 62.00 9.38 88.19 993.07 2019-10-14 04:39:58
47391 19.15 61.95 9.35 88.18 993.13 2019-10-14 04:38:58
47390 19.15 62.01 9.39 88.17 993.19 2019-10-14 04:37:58
47389 19.15 62.01 9.44 88.18 993.21 2019-10-14 04:36:58
47388 19.16 61.99 9.48 88.19 993.19 2019-10-14 04:35:58
47387 19.16 61.96 9.54 88.18 993.21 2019-10-14 04:34:57
47386 19.15 62.01 9.60 88.19 993.19 2019-10-14 04:33:57
47385 19.14 62.05 9.65 88.19 993.16 2019-10-14 04:32:57
47384 19.15 62.08 9.69 88.20 993.16 2019-10-14 04:31:57
47383 19.15 62.08 9.66 88.20 993.17 2019-10-14 04:30:57
47382 19.15 62.04 9.57 88.16 993.19 2019-10-14 04:29:57
47381 19.15 62.00 9.55 88.15 993.20 2019-10-14 04:28:57
47380 19.17 61.90 9.55 88.15 993.24 2019-10-14 04:27:57
47379 19.17 61.93 9.53 88.15 993.23 2019-10-14 04:26:57
47378 19.16 61.97 9.43 88.12 993.20 2019-10-14 04:25:57
47377 19.16 61.93 9.38 88.09 993.23 2019-10-14 04:24:56
47376 19.16 62.00 9.33 88.08 993.13 2019-10-14 04:22:51
47375 19.17 61.99 9.33 88.08 993.14 2019-10-14 04:21:51
47374 19.16 62.01 9.38 88.08 993.12 2019-10-14 04:20:51
47373 19.18 61.98 9.45 88.09 993.11 2019-10-14 04:19:51
47372 19.18 61.99 9.50 88.10 993.13 2019-10-14 04:18:51
47371 19.18 61.99 9.54 88.10 993.12 2019-10-14 04:17:51
47370 19.17 62.01 9.59 88.10 993.10 2019-10-14 04:16:51
47369 19.18 61.98 9.64 88.10 993.12 2019-10-14 04:15:51
47368 19.18 61.96 9.68 88.12 993.14 2019-10-14 04:14:51
47367 19.18 62.00 9.70 88.11 993.15 2019-10-14 04:13:51
47366 19.18 62.02 9.68 88.11 993.13 2019-10-14 04:12:50
47365 19.18 62.04 9.64 88.09 993.09 2019-10-14 04:11:50
47364 19.19 61.97 9.59 88.07 993.09 2019-10-14 04:10:50
47363 19.18 61.97 9.58 88.05 993.05 2019-10-14 04:09:50
47362 19.19 61.98 9.62 88.05 993.06 2019-10-14 04:08:50
47361 19.18 62.00 9.69 88.04 993.06 2019-10-14 04:07:50
47360 19.17 62.04 9.78 88.05 993.07 2019-10-14 04:06:50
47359 19.16 62.08 9.87 88.07 993.10 2019-10-14 04:06:06
47358 19.18 62.09 9.88 88.05 993.15 2019-10-14 04:04:45
47357 19.18 62.02 9.85 88.03 993.19 2019-10-14 04:03:45
47356 19.19 62.04 9.79 88.00 993.17 2019-10-14 04:02:45
47355 19.16 62.07 9.81 88.00 993.19 2019-10-14 04:01:45
47354 19.15 62.08 9.76 87.97 993.15 2019-10-14 04:00:44
47353 19.18 61.91 9.68 87.95 993.17 2019-10-14 03:59:44
47352 19.18 61.96 9.56 87.91 993.14 2019-10-14 03:58:44
47351 19.18 62.01 9.51 87.88 993.14 2019-10-14 03:57:44
47350 19.19 61.92 9.52 87.89 993.13 2019-10-14 03:56:44
47349 19.18 61.98 9.55 87.88 993.13 2019-10-14 03:55:44
47348 19.18 61.96 9.60 87.87 993.12 2019-10-14 03:54:44
47347 19.20 61.90 9.65 87.87 993.10 2019-10-14 03:52:39
47346 19.18 61.97 9.63 87.85 993.09 2019-10-14 03:51:39
47345 19.21 61.82 9.59 87.86 993.12 2019-10-14 03:50:39
47344 19.20 61.81 9.49 87.83 993.13 2019-10-14 03:49:38
47343 19.19 61.83 9.48 87.80 993.14 2019-10-14 03:48:38
47342 19.21 61.76 9.48 87.80 993.09 2019-10-14 03:47:38
47341 19.19 61.84 9.47 87.79 993.04 2019-10-14 03:46:38
47340 19.20 61.77 9.44 87.77 992.97 2019-10-14 03:45:38
47339 19.21 61.71 9.44 87.77 992.95 2019-10-14 03:44:38
47338 19.21 61.72 9.45 87.76 992.99 2019-10-14 03:43:38
47337 19.21 61.73 9.47 87.78 992.98 2019-10-14 03:42:38
47336 19.22 61.69 9.51 87.79 992.96 2019-10-14 03:41:38
47335 19.21 61.67 9.51 87.76 992.97 2019-10-14 03:40:38
47334 19.22 61.69 9.52 87.76 992.96 2019-10-14 03:39:37
47333 19.21 61.72 9.53 87.77 992.99 2019-10-14 03:38:37
47332 19.20 61.72 9.55 87.75 992.98 2019-10-14 03:37:37
47331 19.21 61.71 9.57 87.75 992.98 2019-10-14 03:36:37
47330 19.23 61.69 9.57 87.74 993.03 2019-10-14 03:35:37
47329 19.21 61.69 9.58 87.73 993.05 2019-10-14 03:34:37
47328 19.22 61.67 9.58 87.73 993.10 2019-10-14 03:33:37
47327 19.23 61.66 9.55 87.74 993.09 2019-10-14 03:32:37
47326 19.23 61.63 9.53 87.71 993.13 2019-10-14 03:31:37
47325 19.24 61.64 9.51 87.67 993.12 2019-10-14 03:30:37
47324 19.23 61.66 9.49 87.67 993.09 2019-10-14 03:29:37
47323 19.23 61.62 9.47 87.67 993.06 2019-10-14 03:28:36
47322 19.23 61.65 9.48 87.66 993.02 2019-10-14 03:27:36
47321 19.22 61.67 9.48 87.64 992.99 2019-10-14 03:26:36
47320 19.23 61.66 9.47 87.64 992.96 2019-10-14 03:25:36
47319 19.23 61.65 9.47 87.64 992.90 2019-10-14 03:24:36
47318 19.22 61.65 9.51 87.63 992.86 2019-10-14 03:22:31
47317 19.22 61.67 9.52 87.63 992.82 2019-10-14 03:21:31
47316 19.23 61.63 9.51 87.64 992.79 2019-10-14 03:20:31
47315 19.24 61.56 9.51 87.64 992.79 2019-10-14 03:19:31
47314 19.26 61.49 9.52 87.63 992.81 2019-10-14 03:18:31
47313 19.25 61.54 9.54 87.65 992.82 2019-10-14 03:17:30
47312 19.23 61.61 9.57 87.64 992.84 2019-10-14 03:16:30
47311 19.23 61.61 9.59 87.64 992.89 2019-10-14 03:15:30
47310 19.23 61.58 9.62 87.66 992.91 2019-10-14 03:14:30
47309 19.25 61.57 9.66 87.66 992.92 2019-10-14 03:13:30
47308 19.24 61.57 9.72 87.67 992.96 2019-10-14 03:12:30
47307 19.25 61.56 9.75 87.69 992.95 2019-10-14 03:11:29
47306 19.26 61.49 9.77 87.68 992.90 2019-10-14 03:10:29
47305 19.26 61.54 9.79 87.69 992.93 2019-10-14 03:09:29
47304 19.26 61.49 9.79 87.69 992.99 2019-10-14 03:08:29
47303 19.26 61.47 9.80 87.69 993.02 2019-10-14 03:07:29
47302 19.25 61.43 9.82 87.69 993.08 2019-10-14 03:06:29
47301 19.27 61.34 9.83 87.69 993.10 2019-10-14 03:05:29
47300 19.29 61.26 9.87 87.71 993.03 2019-10-14 03:04:29
47299 19.28 61.28 9.91 87.72 993.01 2019-10-14 03:03:29
47298 19.28 61.30 9.95 87.73 992.99 2019-10-14 03:02:28
47297 19.29 61.25 10.00 87.74 992.99 2019-10-14 03:01:28
47296 19.28 61.29 10.05 87.75 993.01 2019-10-14 03:00:28
47295 19.29 61.25 10.09 87.78 993.09 2019-10-14 02:59:28
47294 19.29 61.27 10.08 87.77 993.11 2019-10-14 02:58:28
47293 19.28 61.27 10.09 87.77 993.09 2019-10-14 02:57:28
47292 19.28 61.29 10.10 87.78 993.10 2019-10-14 02:56:28
47291 19.29 61.25 10.15 87.79 993.08 2019-10-14 02:55:28
47290 19.30 61.24 10.21 87.79 993.04 2019-10-14 02:54:28
47289 19.29 61.28 10.34 87.82 993.12 2019-10-14 02:52:23
47288 19.31 61.24 10.40 87.83 993.12 2019-10-14 02:51:23
47287 19.30 61.29 10.48 87.83 993.12 2019-10-14 02:50:22
47286 19.31 61.27 10.53 87.84 993.17 2019-10-14 02:49:22
47285 19.30 61.30 10.50 87.82 993.15 2019-10-14 02:48:22
47284 19.30 61.34 10.50 87.81 993.23 2019-10-14 02:47:22
47283 19.31 61.32 10.42 87.78 993.24 2019-10-14 02:46:22
47282 19.31 61.29 10.38 87.76 993.28 2019-10-14 02:45:22
47281 19.31 61.27 10.35 87.73 993.30 2019-10-14 02:44:22
47280 19.32 61.24 10.29 87.72 993.29 2019-10-14 02:43:22
47279 19.32 61.27 10.19 87.69 993.28 2019-10-14 02:42:22
47278 19.33 61.27 10.06 87.64 993.27 2019-10-14 02:41:22
47277 19.32 61.28 9.97 87.62 993.29 2019-10-14 02:40:22
47276 19.32 61.27 9.92 87.58 993.33 2019-10-14 02:39:21
47275 19.33 61.25 9.90 87.55 993.33 2019-10-14 02:38:21
47274 19.33 61.27 9.91 87.54 993.29 2019-10-14 02:37:21
47273 19.34 61.22 9.92 87.54 993.26 2019-10-14 02:36:21
47272 19.35 61.21 9.95 87.53 993.26 2019-10-14 02:35:21
47271 19.33 61.24 9.98 87.53 993.19 2019-10-14 02:34:21
47270 19.33 61.26 9.95 87.52 993.17 2019-10-14 02:33:21
47269 19.33 61.27 9.91 87.49 993.16 2019-10-14 02:32:21
47268 19.33 61.27 9.82 87.45 993.09 2019-10-14 02:31:21
47267 19.34 61.29 9.81 87.43 993.09 2019-10-14 02:30:21
47266 19.31 61.31 9.82 87.41 993.10 2019-10-14 02:29:21
47265 19.33 61.30 9.83 87.40 993.04 2019-10-14 02:28:20
47264 19.33 61.33 9.85 87.39 993.05 2019-10-14 02:27:20
47263 19.33 61.32 9.85 87.38 993.04 2019-10-14 02:26:20
47262 19.33 61.28 9.87 87.36 993.01 2019-10-14 02:25:20
47261 19.33 61.27 9.91 87.35 993.03 2019-10-14 02:24:20
47260 19.33 61.30 9.92 87.33 992.94 2019-10-14 02:22:15
47259 19.32 61.35 9.90 87.30 992.91 2019-10-14 02:21:15
47258 19.34 61.31 9.84 87.29 992.90 2019-10-14 02:20:15
47257 19.34 61.32 9.74 87.24 992.86 2019-10-14 02:19:15
47256 19.33 61.29 9.73 87.20 992.85 2019-10-14 02:18:14
47255 19.33 61.33 9.76 87.21 992.83 2019-10-14 02:17:14
47254 19.32 61.36 9.80 87.20 992.86 2019-10-14 02:16:14
47253 19.31 61.40 9.83 87.19 992.86 2019-10-14 02:15:14
47252 19.32 61.34 9.85 87.18 992.83 2019-10-14 02:14:14
47251 19.32 61.39 9.87 87.18 992.88 2019-10-14 02:13:14
47250 19.33 61.34 9.87 87.17 992.97 2019-10-14 02:12:14
47249 19.33 61.36 9.86 87.15 992.97 2019-10-14 02:11:14
47248 19.33 61.41 9.89 87.14 992.96 2019-10-14 02:10:14
47247 19.33 61.42 9.93 87.14 993.00 2019-10-14 02:09:14
47246 19.33 61.43 9.98 87.14 993.05 2019-10-14 02:08:13
47245 19.34 61.42 10.04 87.13 993.06 2019-10-14 02:07:13
47244 19.33 61.44 10.10 87.12 993.03 2019-10-14 02:06:13
47243 19.34 61.40 10.15 87.10 993.01 2019-10-14 02:04:13
47242 19.35 61.38 10.16 87.08 992.97 2019-10-14 02:03:12
47241 19.34 61.39 10.13 87.05 992.97 2019-10-14 02:02:12
47240 19.35 61.34 10.04 87.00 992.95 2019-10-14 02:01:12
47239 19.35 61.34 9.91 86.93 992.91 2019-10-14 02:00:12
47238 19.35 61.37 9.92 86.91 992.95 2019-10-14 01:59:12
47237 19.35 61.33 9.95 86.90 992.91 2019-10-14 01:58:12
47236 19.36 61.33 10.00 86.90 992.92 2019-10-14 01:57:12
47235 19.34 61.31 10.03 86.90 992.92 2019-10-14 01:56:12
47234 19.34 61.37 10.07 86.88 992.90 2019-10-14 01:55:12
47233 19.34 61.34 10.10 86.87 992.90 2019-10-14 01:54:12
47232 19.34 61.32 10.09 86.83 992.90 2019-10-14 01:52:06
47231 19.36 61.31 10.02 86.78 992.93 2019-10-14 01:51:06
47230 19.35 61.34 10.02 86.76 992.95 2019-10-14 01:50:06
47229 19.36 61.28 10.05 86.75 992.99 2019-10-14 01:49:06
47228 19.35 61.31 10.09 86.75 992.96 2019-10-14 01:48:06
47227 19.34 61.33 10.12 86.73 993.00 2019-10-14 01:47:06
47226 19.35 61.32 10.14 86.71 992.96 2019-10-14 01:46:06
47225 19.36 61.28 10.15 86.68 992.99 2019-10-14 01:45:06
47224 19.36 61.31 10.17 86.68 992.99 2019-10-14 01:44:06
47223 19.37 61.27 10.17 86.67 993.03 2019-10-14 01:43:06
47222 19.38 61.26 10.16 86.64 993.05 2019-10-14 01:42:06
47221 19.35 61.31 10.16 86.62 993.02 2019-10-14 01:41:05
47220 19.35 61.31 10.18 86.61 993.04 2019-10-14 01:40:05
47219 19.36 61.30 10.21 86.61 993.03 2019-10-14 01:39:05
47218 19.36 61.29 10.23 86.60 993.06 2019-10-14 01:38:05
47217 19.36 61.29 10.24 86.58 993.04 2019-10-14 01:37:05
47216 19.37 61.28 10.27 86.56 993.03 2019-10-14 01:36:05
47215 19.36 61.28 10.30 86.56 993.05 2019-10-14 01:35:05
47214 19.38 61.25 10.32 86.54 993.09 2019-10-14 01:34:05
47213 19.37 61.29 10.34 86.51 993.12 2019-10-14 01:33:05
47212 19.37 61.27 10.35 86.49 993.14 2019-10-14 01:32:04
47211 19.36 61.28 10.38 86.47 993.15 2019-10-14 01:31:04
47210 19.36 61.29 10.42 86.45 993.20 2019-10-14 01:30:04
47209 19.37 61.26 10.45 86.44 993.19 2019-10-14 01:29:04
47208 19.37 61.27 10.46 86.41 993.15 2019-10-14 01:28:04
47207 19.36 61.27 10.49 86.39 993.13 2019-10-14 01:27:04
47206 19.36 61.28 10.51 86.35 993.13 2019-10-14 01:26:04
47205 19.39 61.18 10.55 86.34 993.09 2019-10-14 01:25:03
47204 19.40 61.14 10.57 86.32 993.08 2019-10-14 01:24:03
47203 19.36 61.15 10.61 86.28 993.02 2019-10-14 01:21:58
47202 19.38 61.05 10.62 86.26 993.01 2019-10-14 01:20:58
47201 19.39 61.01 10.66 86.25 992.98 2019-10-14 01:19:58
47200 19.40 60.89 10.69 86.24 993.02 2019-10-14 01:18:58
47199 19.38 60.88 10.73 86.25 992.97 2019-10-14 01:17:58
47198 19.39 60.78 10.76 86.25 992.94 2019-10-14 01:16:58
47197 19.40 60.70 10.81 86.27 992.95 2019-10-14 01:15:58
47196 19.39 60.75 10.87 86.28 992.92 2019-10-14 01:14:58
47195 19.39 60.75 10.94 86.30 992.97 2019-10-14 01:13:57
47194 19.38 60.72 11.01 86.33 992.96 2019-10-14 01:12:57
47193 19.40 60.69 11.07 86.35 992.98 2019-10-14 01:11:57
47192 19.39 60.69 11.17 86.38 993.02 2019-10-14 01:10:57
47191 19.40 60.61 11.27 86.42 993.01 2019-10-14 01:09:57
47190 19.40 60.56 11.39 86.48 992.98 2019-10-14 01:08:57
47189 19.40 60.54 11.50 86.53 992.96 2019-10-14 01:07:57
47188 19.41 60.54 11.60 86.57 992.98 2019-10-14 01:06:57
47187 19.40 60.54 11.66 86.59 992.97 2019-10-14 01:05:57
47186 19.40 60.48 11.69 86.59 992.97 2019-10-14 01:04:57
47185 19.42 60.42 11.67 86.63 992.95 2019-10-14 01:03:57
47184 19.41 60.44 11.58 86.62 992.94 2019-10-14 01:02:56
47183 19.40 60.45 11.50 86.58 992.96 2019-10-14 01:01:56
47182 19.42 60.38 11.46 86.56 992.95 2019-10-14 01:00:56
47181 19.43 60.34 11.51 86.57 992.98 2019-10-14 00:59:56
47180 19.43 60.31 11.53 86.59 993.00 2019-10-14 00:58:56
47179 19.42 60.29 11.54 86.60 992.99 2019-10-14 00:57:56
47178 19.43 60.24 11.53 86.60 992.96 2019-10-14 00:56:56
47177 19.43 60.25 11.52 86.61 992.95 2019-10-14 00:55:56
47176 19.42 60.26 11.49 86.60 992.89 2019-10-14 00:54:56
47175 19.43 60.29 11.49 86.60 992.90 2019-10-14 00:53:56
47174 19.43 60.25 11.56 86.64 992.90 2019-10-14 00:51:50
47173 19.42 60.25 11.63 86.66 992.93 2019-10-14 00:50:50
47172 19.42 60.25 11.70 86.69 992.95 2019-10-14 00:49:50
47171 19.42 60.26 11.72 86.71 992.92 2019-10-14 00:48:50
47170 19.43 60.23 11.73 86.72 992.92 2019-10-14 00:47:50
47169 19.42 60.29 11.70 86.71 992.90 2019-10-14 00:46:50
47168 19.41 60.23 11.69 86.71 992.85 2019-10-14 00:45:50
47167 19.44 60.15 11.66 86.70 992.87 2019-10-14 00:44:50
47166 19.44 60.19 11.57 86.66 992.81 2019-10-14 00:43:50
47165 19.44 60.13 11.51 86.66 992.83 2019-10-14 00:42:50
47164 19.43 60.14 11.34 86.58 992.84 2019-10-14 00:41:49
47163 19.45 60.13 11.25 86.52 992.83 2019-10-14 00:40:49
47162 19.45 60.12 11.22 86.49 992.85 2019-10-14 00:39:49
47161 19.44 60.15 11.21 86.47 992.91 2019-10-14 00:38:49
47160 19.45 60.11 11.19 86.44 992.92 2019-10-14 00:37:49
47159 19.45 60.06 11.19 86.43 992.92 2019-10-14 00:36:49
47158 19.44 60.04 11.20 86.42 992.90 2019-10-14 00:35:49
47157 19.46 59.99 11.22 86.41 992.90 2019-10-14 00:34:49
47156 19.45 60.02 11.25 86.42 992.93 2019-10-14 00:33:49
47155 19.46 59.96 11.26 86.41 992.92 2019-10-14 00:32:49
47154 19.46 59.93 11.28 86.40 992.93 2019-10-14 00:31:48
47153 19.46 59.96 11.30 86.41 992.88 2019-10-14 00:30:48
47152 19.46 59.93 11.34 86.40 992.92 2019-10-14 00:29:48
47151 19.46 59.91 11.34 86.39 992.88 2019-10-14 00:28:48
47150 19.47 59.85 11.36 86.37 992.88 2019-10-14 00:27:48
47149 19.47 59.85 11.36 86.37 992.91 2019-10-14 00:26:48
47148 19.48 59.80 11.33 86.36 992.96 2019-10-14 00:25:48
47147 19.47 59.82 11.31 86.33 992.94 2019-10-14 00:24:48
47146 19.46 59.83 11.33 86.32 992.95 2019-10-14 00:23:47
47145 19.49 59.77 11.35 86.32 992.99 2019-10-14 00:21:42
47144 19.48 59.78 11.40 86.30 992.99 2019-10-14 00:20:42
47143 19.48 59.80 11.43 86.31 993.00 2019-10-14 00:19:42
47142 19.48 59.74 11.45 86.30 992.98 2019-10-14 00:18:42
47141 19.49 59.69 11.45 86.28 992.98 2019-10-14 00:17:42
47140 19.48 59.73 11.43 86.26 993.03 2019-10-14 00:16:42
47139 19.48 59.68 11.44 86.26 993.02 2019-10-14 00:15:42
47138 19.48 59.68 11.40 86.21 993.02 2019-10-14 00:14:42
47137 19.49 59.66 11.33 86.17 993.04 2019-10-14 00:13:41
47136 19.48 59.68 11.30 86.14 992.98 2019-10-14 00:12:41
47135 19.49 59.68 11.28 86.11 993.01 2019-10-14 00:11:41
47134 19.49 59.67 11.29 86.10 993.00 2019-10-14 00:10:41
47133 19.49 59.67 11.33 86.10 992.97 2019-10-14 00:09:41
47132 19.50 59.66 11.36 86.08 993.00 2019-10-14 00:08:41
47131 19.50 59.64 11.41 86.09 992.95 2019-10-14 00:07:41
47130 19.50 59.60 11.44 86.09 992.97 2019-10-14 00:06:41
47129 19.50 59.66 11.48 86.08 992.98 2019-10-14 00:05:40
47128 19.51 59.62 11.53 86.08 993.02 2019-10-14 00:04:40
47127 19.50 59.64 11.55 86.08 993.07 2019-10-14 00:03:40
47126 19.49 59.69 11.63 86.07 993.10 2019-10-14 00:01:35
47125 19.50 59.66 11.62 86.07 993.08 2019-10-14 00:00:34
47124 19.50 59.66 11.59 86.02 993.08 2019-10-13 23:59:34
47123 19.50 59.59 11.56 86.00 993.08 2019-10-13 23:58:34
47122 19.50 59.57 11.55 85.96 993.02 2019-10-13 23:57:34
47121 19.51 59.52 11.56 85.94 993.04 2019-10-13 23:56:34
47120 19.51 59.56 11.57 85.92 993.00 2019-10-13 23:55:33
47119 19.52 59.53 11.58 85.90 992.97 2019-10-13 23:54:33
47118 19.49 59.59 11.58 85.89 993.00 2019-10-13 23:53:33
47117 19.52 59.50 11.51 85.76 992.90 2019-10-13 23:51:27
47116 19.51 59.54 11.54 nan 992.92 2019-10-13 23:50:27
47115 19.52 59.54 11.58 85.73 992.92 2019-10-13 23:49:27
47114 19.51 59.55 11.62 85.72 992.96 2019-10-13 23:48:27
47113 19.52 59.55 11.67 85.71 992.96 2019-10-13 23:47:27
47112 19.50 59.58 11.69 85.68 993.04 2019-10-13 23:46:27
47111 19.51 59.51 11.68 85.64 993.01 2019-10-13 23:45:27
47110 19.51 59.50 11.65 85.58 993.06 2019-10-13 23:44:27
47109 19.50 59.55 11.61 85.53 993.04 2019-10-13 23:43:26
47108 19.51 59.48 11.54 85.42 993.03 2019-10-13 23:42:26
47107 19.53 59.42 11.48 85.33 992.99 2019-10-13 23:41:26
47106 19.54 59.44 11.45 85.26 993.03 2019-10-13 23:40:26
47105 19.54 59.42 11.39 85.17 993.03 2019-10-13 23:39:26
47104 19.55 59.30 11.31 85.05 993.06 2019-10-13 23:38:26
47103 19.55 59.34 11.22 84.92 993.01 2019-10-13 23:37:26
47102 19.57 59.19 11.16 84.82 993.02 2019-10-13 23:36:26
47101 19.56 59.24 11.12 84.72 993.03 2019-10-13 23:35:26
47100 19.58 59.15 11.11 84.63 993.00 2019-10-13 23:34:25
47099 19.57 59.22 11.11 84.58 993.00 2019-10-13 23:33:25
47098 19.58 59.22 11.12 84.51 992.98 2019-10-13 23:32:24
47097 19.57 59.17 11.13 84.46 993.00 2019-10-13 23:31:24
47096 19.58 59.21 11.13 84.38 993.00 2019-10-13 23:30:24
47095 19.56 59.20 11.15 84.30 993.02 2019-10-13 23:29:24
47094 19.57 59.19 11.17 84.22 993.03 2019-10-13 23:28:24
47093 19.56 59.23 11.19 84.15 993.01 2019-10-13 23:27:24
47092 19.58 59.13 11.22 84.09 993.04 2019-10-13 23:26:23
47091 19.58 59.09 11.25 84.02 993.07 2019-10-13 23:25:23
47090 19.57 59.18 11.28 83.95 993.02 2019-10-13 23:24:23
47089 19.57 59.15 11.33 83.87 993.07 2019-10-13 23:23:23
47088 19.57 59.13 11.39 83.69 993.12 2019-10-13 23:21:17
47087 19.56 59.20 11.40 83.55 993.13 2019-10-13 23:20:17
47086 19.56 59.16 11.43 83.46 993.17 2019-10-13 23:19:17
47085 19.58 59.07 11.48 83.39 993.12 2019-10-13 23:18:17
47084 19.59 59.00 11.51 83.31 993.08 2019-10-13 23:17:17
47083 19.58 59.08 11.57 83.22 993.07 2019-10-13 23:16:17
47082 19.57 59.07 11.61 83.12 993.05 2019-10-13 23:15:17
47081 19.56 59.08 11.67 83.04 993.05 2019-10-13 23:14:17
47080 19.58 59.00 11.72 82.98 993.03 2019-10-13 23:13:17
47079 19.58 59.00 11.79 82.89 993.06 2019-10-13 23:12:16
47078 19.57 59.09 11.86 82.83 993.06 2019-10-13 23:11:16
47077 19.58 59.02 11.95 82.81 993.01 2019-10-13 23:10:16
47076 19.59 58.92 12.06 82.78 993.04 2019-10-13 23:09:16
47075 19.57 58.98 12.14 82.80 993.02 2019-10-13 23:08:16
47074 19.59 58.92 12.22 82.80 993.05 2019-10-13 23:07:16
47073 19.57 58.97 12.32 82.82 993.09 2019-10-13 23:06:16
47072 19.57 58.93 12.40 82.81 993.11 2019-10-13 23:05:15
47071 19.57 58.91 12.42 82.82 993.08 2019-10-13 23:04:15
47070 19.58 58.92 12.45 82.79 993.08 2019-10-13 23:03:15
47069 19.55 59.00 12.48 82.78 993.09 2019-10-13 23:02:15
47068 19.57 59.01 12.50 82.75 993.07 2019-10-13 23:01:15
47067 19.55 58.97 12.52 82.70 993.06 2019-10-13 23:00:15
47066 19.56 58.99 12.56 82.71 993.04 2019-10-13 22:59:15
47065 19.56 58.97 12.59 82.68 993.08 2019-10-13 22:58:15
47064 19.55 58.97 12.59 82.61 993.06 2019-10-13 22:57:15
47063 19.57 58.89 12.63 82.59 993.11 2019-10-13 22:56:15
47062 19.56 58.92 12.69 82.57 993.13 2019-10-13 22:55:15
47061 19.58 58.88 12.70 82.53 993.07 2019-10-13 22:54:14
47060 19.56 58.95 12.68 82.45 993.08 2019-10-13 22:53:14
47059 19.57 58.87 12.81 82.30 993.09 2019-10-13 22:50:04
47058 19.57 58.84 12.85 82.29 993.07 2019-10-13 22:49:04
47057 19.57 58.87 12.84 82.20 993.10 2019-10-13 22:48:04
47056 19.59 58.76 12.79 82.04 993.05 2019-10-13 22:47:04
47055 19.57 58.80 12.80 81.92 993.08 2019-10-13 22:46:04
47054 19.60 58.73 12.83 81.81 993.03 2019-10-13 22:45:03
47053 19.58 58.82 12.85 81.72 993.00 2019-10-13 22:44:03
47052 19.57 58.75 12.88 81.63 993.02 2019-10-13 22:43:03
47051 19.60 58.66 12.93 81.62 992.91 2019-10-13 22:42:03
47050 19.59 58.71 13.02 81.67 992.91 2019-10-13 22:41:03
47049 19.58 58.74 13.09 81.69 992.85 2019-10-13 22:40:02
47048 19.57 58.75 13.16 81.72 992.88 2019-10-13 22:39:02
47047 19.60 58.62 13.20 81.78 992.86 2019-10-13 22:38:02
47046 19.59 58.64 13.21 81.80 992.83 2019-10-13 22:37:02
47045 19.59 58.66 13.23 81.81 992.82 2019-10-13 22:36:02
47044 19.61 58.59 13.26 81.87 992.82 2019-10-13 22:35:02
47043 19.60 58.57 13.25 81.89 992.80 2019-10-13 22:34:01
47042 19.61 58.52 13.24 81.90 992.78 2019-10-13 22:33:01
47041 19.60 58.57 13.20 81.89 992.77 2019-10-13 22:32:01
47040 19.61 58.52 13.16 81.83 992.76 2019-10-13 22:31:01
47039 19.61 58.48 13.14 81.80 992.79 2019-10-13 22:30:00
47038 19.61 58.46 13.12 81.75 992.76 2019-10-13 22:29:00
47037 19.63 58.46 13.09 81.67 992.82 2019-10-13 22:28:00
47036 19.60 58.55 13.08 81.56 992.80 2019-10-13 22:27:00
47035 19.61 58.51 13.05 81.44 992.84 2019-10-13 22:26:00
47034 19.61 58.46 13.02 81.27 992.84 2019-10-13 22:24:59
47033 19.59 58.49 13.02 81.12 992.80 2019-10-13 22:23:59
47032 19.61 58.40 13.04 81.03 992.84 2019-10-13 22:22:58
47031 19.61 58.47 13.05 80.86 992.85 2019-10-13 22:21:58
47030 19.63 58.33 13.10 80.55 992.84 2019-10-13 22:19:53
47029 19.63 58.33 13.14 80.44 992.88 2019-10-13 22:18:53
47028 19.61 58.40 13.19 80.32 992.85 2019-10-13 22:17:53
47027 19.61 58.36 13.23 80.19 992.92 2019-10-13 22:16:52
47026 19.65 58.27 13.27 80.07 992.89 2019-10-13 22:15:52
47025 19.63 58.30 13.32 79.95 992.96 2019-10-13 22:14:51
47024 19.64 58.27 13.34 79.77 992.95 2019-10-13 22:13:50
47023 19.62 58.27 13.35 79.57 992.95 2019-10-13 22:12:50
47022 19.63 58.22 13.43 79.50 992.98 2019-10-13 22:11:50
47021 19.62 58.27 13.48 79.41 992.98 2019-10-13 22:10:50
47020 19.63 58.28 13.53 79.33 992.94 2019-10-13 22:09:50
47019 19.64 58.18 13.56 79.19 992.99 2019-10-13 22:08:50
47018 19.64 58.17 13.60 79.06 993.00 2019-10-13 22:07:49
47017 19.64 58.17 13.66 79.00 993.00 2019-10-13 22:06:54
47016 19.64 58.19 13.70 78.90 993.00 2019-10-13 22:05:44
47015 19.66 58.10 13.74 78.79 993.01 2019-10-13 22:04:44
47014 19.64 58.10 13.74 78.66 993.05 2019-10-13 22:03:44
47013 19.65 58.06 13.80 78.64 993.03 2019-10-13 22:02:44
47012 19.67 57.98 13.86 78.67 993.03 2019-10-13 22:01:43
47011 19.67 57.91 13.89 78.70 993.04 2019-10-13 22:00:42
47010 19.68 57.95 13.87 78.67 993.04 2019-10-13 21:59:40
47009 19.67 57.93 13.83 78.56 993.04 2019-10-13 21:58:40
47008 19.68 57.91 13.84 78.46 993.05 2019-10-13 21:57:40
47007 19.69 57.91 13.83 78.34 993.05 2019-10-13 21:56:40
47006 19.69 57.83 13.84 78.20 993.04 2019-10-13 21:55:40
47005 19.70 57.78 13.87 78.06 993.04 2019-10-13 21:54:40
47004 19.70 57.66 13.89 77.92 993.03 2019-10-13 21:53:40
47003 19.72 57.56 13.96 77.83 993.04 2019-10-13 21:52:40
47002 19.74 57.43 13.98 77.71 993.03 2019-10-13 21:51:40
47001 19.76 57.43 14.07 77.60 993.07 2019-10-13 21:49:35
47000 19.76 57.38 14.10 77.61 993.04 2019-10-13 21:48:34
46999 19.74 57.50 14.12 77.57 993.03 2019-10-13 21:47:34
46998 19.69 57.66 14.12 77.57 993.01 2019-10-13 21:46:34
46997 19.71 57.23 14.14 77.63 993.05 2019-10-13 21:45:34
46996 19.71 57.20 14.13 77.69 993.02 2019-10-13 21:44:34
46995 19.73 57.21 14.08 77.67 993.02 2019-10-13 21:43:34
46994 19.75 57.06 14.08 77.63 993.02 2019-10-13 21:42:34
46993 19.73 57.22 14.07 77.60 993.01 2019-10-13 21:41:34
46992 19.75 57.24 14.06 77.54 993.00 2019-10-13 21:40:34
46991 19.72 57.51 14.04 77.41 993.01 2019-10-13 21:39:33
46990 19.74 57.03 14.05 77.30 993.00 2019-10-13 21:38:33
46989 19.75 57.49 14.08 77.26 992.96 2019-10-13 21:37:33
46988 19.74 57.24 14.11 77.18 992.97 2019-10-13 21:36:33
46987 19.73 57.42 14.12 77.12 992.94 2019-10-13 21:35:33
46986 19.73 57.25 14.14 77.08 992.93 2019-10-13 21:34:33
46985 19.75 57.13 14.14 77.06 992.92 2019-10-13 21:33:33
46984 19.74 57.07 14.13 77.03 992.91 2019-10-13 21:32:32
46983 19.75 56.98 14.10 76.90 992.89 2019-10-13 21:31:32
46982 19.75 56.93 14.09 76.67 992.87 2019-10-13 21:30:32
46981 19.77 56.80 14.12 76.47 992.85 2019-10-13 21:29:32
46980 19.77 56.76 14.17 76.32 992.87 2019-10-13 21:28:32
46979 19.77 56.71 14.21 76.12 992.86 2019-10-13 21:27:32
46978 19.75 56.73 14.26 75.93 992.89 2019-10-13 21:26:32
46977 19.77 56.71 14.31 75.81 992.92 2019-10-13 21:25:32
46976 19.77 56.79 14.37 75.64 992.88 2019-10-13 21:24:31
46975 19.82 56.36 14.42 75.45 992.89 2019-10-13 21:23:31
46974 19.82 56.39 14.46 75.30 992.89 2019-10-13 21:22:31
46973 19.81 56.55 14.50 75.18 992.87 2019-10-13 21:21:31
46972 19.79 56.96 14.59 75.02 992.84 2019-10-13 21:19:26
46971 19.80 56.95 14.63 75.02 992.87 2019-10-13 21:18:26
46970 19.77 56.40 14.64 75.01 992.84 2019-10-13 21:17:26
46969 19.78 56.69 14.63 74.96 992.86 2019-10-13 21:16:26
46968 19.79 56.78 14.63 74.90 992.85 2019-10-13 21:15:26
46967 19.79 56.63 14.64 74.78 992.82 2019-10-13 21:14:25
46966 19.78 56.55 14.68 74.79 992.84 2019-10-13 21:13:25
46965 19.80 56.62 14.69 74.83 992.85 2019-10-13 21:12:25
46964 19.80 56.48 14.68 74.82 992.84 2019-10-13 21:11:25
46963 19.80 56.57 14.67 74.80 992.82 2019-10-13 21:10:25
46962 19.82 56.44 14.64 74.70 992.81 2019-10-13 21:09:25
46961 19.83 56.40 14.65 74.61 992.82 2019-10-13 21:08:24
46960 19.84 56.52 14.65 74.52 992.78 2019-10-13 21:07:24
46959 19.85 56.44 14.67 74.42 992.80 2019-10-13 21:06:24
46958 19.85 56.69 14.66 74.21 992.80 2019-10-13 21:05:24
46957 19.88 56.58 14.69 73.96 992.78 2019-10-13 21:04:24
46956 19.85 56.59 14.75 73.86 992.78 2019-10-13 21:03:24
46955 19.88 56.50 14.79 73.81 992.83 2019-10-13 21:02:24
46954 19.85 56.72 14.79 73.63 992.81 2019-10-13 21:01:24
46953 19.86 56.65 14.83 73.58 992.79 2019-10-13 21:00:24
46952 19.84 56.81 14.86 73.58 992.77 2019-10-13 20:59:23
46951 19.87 56.64 14.86 73.60 992.73 2019-10-13 20:58:23
46950 19.89 56.41 14.86 73.66 992.70 2019-10-13 20:57:23
46949 19.90 56.33 14.81 73.68 992.75 2019-10-13 20:56:22
46948 19.88 56.56 14.82 73.68 992.68 2019-10-13 20:55:22
46947 19.90 56.42 14.79 73.71 992.64 2019-10-13 20:54:22
46946 19.90 56.28 14.75 73.65 992.70 2019-10-13 20:53:22
46945 19.89 56.45 14.75 73.48 992.66 2019-10-13 20:52:22
46944 19.90 56.46 14.80 73.36 992.67 2019-10-13 20:51:21
46943 19.91 56.09 14.84 73.27 992.68 2019-10-13 20:49:16
46942 19.92 56.24 14.86 73.22 992.71 2019-10-13 20:48:16
46941 19.90 56.56 14.85 73.18 992.72 2019-10-13 20:47:15
46940 19.91 56.42 14.84 73.09 992.68 2019-10-13 20:46:15
46939 19.93 56.21 14.86 73.07 992.72 2019-10-13 20:45:15
46938 19.89 56.67 14.87 72.95 992.75 2019-10-13 20:44:15
46937 19.90 56.56 14.88 72.92 992.74 2019-10-13 20:43:14
46936 19.89 56.45 14.88 72.95 992.77 2019-10-13 20:42:14
46935 19.89 56.52 14.87 72.86 992.79 2019-10-13 20:41:14
46934 19.90 56.40 14.89 72.93 992.80 2019-10-13 20:40:14
46933 19.91 56.31 14.86 73.04 992.81 2019-10-13 20:39:14
46932 19.90 56.28 14.86 73.01 992.84 2019-10-13 20:38:14
46931 19.89 56.31 14.86 73.00 992.81 2019-10-13 20:37:13
46930 19.89 56.42 14.87 73.01 992.90 2019-10-13 20:36:13
46929 19.90 56.24 14.85 73.02 992.86 2019-10-13 20:35:13
46928 19.91 56.30 14.85 73.03 992.88 2019-10-13 20:34:12
46927 19.93 55.92 14.85 73.03 992.89 2019-10-13 20:33:09
46926 19.96 55.84 14.80 72.95 992.89 2019-10-13 20:32:41
46925 19.96 56.08 14.81 72.76 992.93 2019-10-13 20:30:59
46924 19.93 56.09 14.84 72.62 992.91 2019-10-13 20:29:59
46923 19.92 56.11 14.89 72.49 992.90 2019-10-13 20:28:59
46922 19.92 56.17 14.91 72.43 992.93 2019-10-13 20:27:59
46921 19.94 55.79 14.94 72.41 992.92 2019-10-13 20:26:59
46920 19.90 55.93 14.95 72.30 992.90 2019-10-13 20:25:58
46919 19.90 55.97 14.98 72.20 992.88 2019-10-13 20:24:58
46918 19.89 55.90 15.00 72.11 992.86 2019-10-13 20:23:58
46917 19.88 55.93 15.04 71.90 992.85 2019-10-13 20:22:58
46916 19.88 55.90 15.08 71.77 992.86 2019-10-13 20:21:58
46915 19.90 55.86 15.10 71.67 992.83 2019-10-13 20:20:58
46914 19.90 55.87 15.19 71.29 992.80 2019-10-13 20:18:49
46913 19.91 55.80 15.24 71.22 992.82 2019-10-13 20:17:49
46912 19.93 55.72 15.26 71.20 992.82 2019-10-13 20:16:49
46911 19.92 55.86 15.26 71.19 992.81 2019-10-13 20:15:49
46910 19.92 55.83 15.26 71.10 992.81 2019-10-13 20:14:49
46909 19.91 55.81 15.29 70.98 992.84 2019-10-13 20:13:49
46908 19.92 55.81 15.32 70.83 992.87 2019-10-13 20:12:49
46907 19.93 55.72 15.36 70.74 992.85 2019-10-13 20:11:49
46906 19.94 55.78 15.37 70.75 992.85 2019-10-13 20:10:48
46905 19.96 55.72 15.38 70.71 992.83 2019-10-13 20:09:48
46904 19.97 55.68 15.40 70.62 992.83 2019-10-13 20:08:48
46903 19.99 55.66 15.43 70.54 992.82 2019-10-13 20:07:48
46902 19.94 55.79 15.43 70.44 992.81 2019-10-13 20:06:48
46901 20.00 55.57 15.47 70.32 992.77 2019-10-13 20:06:05
46900 20.06 55.43 15.53 70.16 992.74 2019-10-13 20:04:42
46899 20.05 55.51 15.59 70.05 992.74 2019-10-13 20:03:42
46898 20.08 55.54 15.61 70.04 992.69 2019-10-13 20:02:42
46897 20.03 55.60 15.64 69.89 992.73 2019-10-13 20:01:42
46896 20.03 55.52 15.66 69.88 992.74 2019-10-13 20:00:42
46895 20.03 55.53 15.69 69.92 992.73 2019-10-13 19:59:41
46894 20.03 55.60 15.71 69.83 992.75 2019-10-13 19:58:41
46893 20.02 55.67 15.70 69.88 992.70 2019-10-13 19:57:41
46892 20.01 55.71 15.73 69.92 992.75 2019-10-13 19:56:41
46891 20.01 55.67 15.74 69.86 992.74 2019-10-13 19:55:41
46890 20.04 55.61 15.75 69.93 992.74 2019-10-13 19:54:41
46889 20.01 55.63 15.72 70.00 992.74 2019-10-13 19:53:41
46888 20.02 55.66 15.72 70.18 992.77 2019-10-13 19:52:41
46887 20.02 55.63 15.73 70.22 992.75 2019-10-13 19:51:41
46886 20.05 55.59 15.69 70.47 992.75 2019-10-13 19:49:35
46885 20.02 55.68 15.68 70.49 992.74 2019-10-13 19:48:35
46884 20.05 55.59 15.70 70.43 992.75 2019-10-13 19:47:35
46883 20.04 55.65 15.71 70.47 992.73 2019-10-13 19:46:35
46882 20.07 55.49 15.73 70.29 992.73 2019-10-13 19:45:35
46881 20.06 55.55 15.78 70.09 992.72 2019-10-13 19:44:35
46880 20.07 55.50 15.83 69.93 992.71 2019-10-13 19:43:35
46879 20.08 55.55 15.86 69.91 992.71 2019-10-13 19:42:35
46878 20.08 55.53 15.91 69.75 992.72 2019-10-13 19:41:34
46877 20.06 55.60 15.95 69.66 992.77 2019-10-13 19:40:34
46876 20.08 55.54 16.00 69.62 992.75 2019-10-13 19:39:34
46875 20.08 55.61 16.01 69.44 992.73 2019-10-13 19:38:34
46874 20.09 55.52 16.03 69.58 992.72 2019-10-13 19:37:34
46873 20.11 55.46 16.05 69.52 992.73 2019-10-13 19:36:34
46872 20.10 55.63 16.07 69.41 992.75 2019-10-13 19:35:34
46871 20.11 55.53 16.12 69.30 992.76 2019-10-13 19:34:34
46870 20.11 55.58 16.16 69.18 992.74 2019-10-13 19:33:34
46869 20.14 55.47 16.21 69.11 992.77 2019-10-13 19:32:34
46868 20.15 55.38 16.22 69.12 992.74 2019-10-13 19:31:33
46867 20.18 55.31 16.23 69.17 992.74 2019-10-13 19:30:33
46866 20.18 55.33 16.24 69.08 992.74 2019-10-13 19:29:33
46865 20.20 55.23 16.22 69.20 992.75 2019-10-13 19:28:33
46864 20.22 55.20 16.21 69.25 992.74 2019-10-13 19:27:33
46863 20.21 55.18 16.25 69.18 992.78 2019-10-13 19:26:33
46862 20.24 55.18 16.30 69.00 992.73 2019-10-13 19:25:33
46861 20.20 55.31 16.36 68.94 992.76 2019-10-13 19:24:32
46860 20.21 55.28 16.37 68.85 992.72 2019-10-13 19:23:32
46859 20.23 55.25 16.38 68.98 992.70 2019-10-13 19:22:32
46858 20.22 55.16 16.41 68.84 992.71 2019-10-13 19:21:32
46857 20.30 54.97 16.47 68.75 992.66 2019-10-13 19:19:27
46856 20.29 54.91 16.52 68.72 992.69 2019-10-13 19:18:27
46855 20.28 55.10 16.55 68.63 992.71 2019-10-13 19:17:27
46854 20.28 55.06 16.58 68.60 992.72 2019-10-13 19:16:27
46853 20.27 55.29 16.59 68.53 992.68 2019-10-13 19:15:26
46852 20.28 55.08 16.64 68.46 992.68 2019-10-13 19:14:26
46851 20.26 55.06 16.68 68.44 992.64 2019-10-13 19:13:25
46850 20.27 55.04 16.68 68.55 992.65 2019-10-13 19:12:25
46849 20.29 55.01 16.68 68.61 992.61 2019-10-13 19:11:25
46848 20.27 55.08 16.70 68.62 992.62 2019-10-13 19:10:25
46847 20.26 55.15 16.71 68.61 992.62 2019-10-13 19:09:25
46846 20.29 55.06 16.75 68.63 992.61 2019-10-13 19:08:25
46845 20.29 55.09 16.76 68.61 992.56 2019-10-13 19:07:25
46844 20.28 55.09 16.75 68.75 992.53 2019-10-13 19:06:24
46843 20.30 55.01 16.78 68.70 992.49 2019-10-13 19:05:24
46842 20.30 55.03 16.80 68.68 992.51 2019-10-13 19:04:24
46841 20.30 55.16 16.84 68.69 992.51 2019-10-13 19:03:23
46840 20.33 54.91 16.89 68.67 992.53 2019-10-13 19:02:23
46839 20.27 55.14 16.95 68.52 992.54 2019-10-13 19:01:23
46838 20.28 55.07 16.97 68.38 992.49 2019-10-13 19:00:23
46837 20.29 55.07 17.01 68.31 992.51 2019-10-13 18:59:22
46836 20.32 54.94 17.03 68.36 992.50 2019-10-13 18:58:22
46835 20.32 55.02 17.09 68.17 992.49 2019-10-13 18:57:22
46834 20.29 55.06 17.15 68.02 992.48 2019-10-13 18:56:22
46833 20.30 55.05 17.17 68.16 992.52 2019-10-13 18:55:22
46832 20.33 54.95 17.17 68.16 992.52 2019-10-13 18:54:22
46831 20.33 54.93 17.14 68.25 992.52 2019-10-13 18:53:21
46830 20.32 55.01 17.14 68.30 992.52 2019-10-13 18:52:21
46829 20.36 54.87 17.16 68.30 992.53 2019-10-13 18:51:21
46828 20.36 54.88 17.22 68.09 992.55 2019-10-13 18:49:16
46827 20.35 54.88 17.25 67.95 992.53 2019-10-13 18:48:16
46826 20.37 54.84 17.28 67.83 992.52 2019-10-13 18:47:16
46825 20.36 54.82 17.32 67.71 992.51 2019-10-13 18:46:16
46824 20.37 54.76 17.38 67.49 992.54 2019-10-13 18:45:16
46823 20.38 54.76 17.42 67.28 992.53 2019-10-13 18:44:16
46822 20.40 54.65 17.46 67.24 992.48 2019-10-13 18:43:16
46821 20.41 54.62 17.49 67.14 992.54 2019-10-13 18:42:15
46820 20.44 54.53 17.53 67.12 992.48 2019-10-13 18:41:15
46819 20.45 54.43 17.59 66.98 992.47 2019-10-13 18:40:15
46818 20.44 54.51 17.63 66.81 992.49 2019-10-13 18:39:15
46817 20.46 54.48 17.59 66.90 992.44 2019-10-13 18:37:10
46816 20.47 54.53 17.58 66.85 992.47 2019-10-13 18:36:06
46815 20.50 54.36 17.61 66.54 992.44 2019-10-13 18:35:06
46814 20.50 54.37 17.66 66.40 992.46 2019-10-13 18:34:06
46813 20.50 54.45 17.71 66.19 992.48 2019-10-13 18:33:06
46812 20.50 54.51 17.74 66.02 992.41 2019-10-13 18:32:05
46811 20.52 54.40 17.79 65.87 992.42 2019-10-13 18:31:05
46810 20.57 54.25 17.82 65.78 992.42 2019-10-13 18:30:05
46809 20.54 54.39 17.84 65.61 992.41 2019-10-13 18:29:05
46808 20.57 54.33 17.86 65.42 992.42 2019-10-13 18:28:05
46807 20.56 54.46 17.88 65.33 992.41 2019-10-13 18:27:05
46806 20.57 54.42 17.87 65.28 992.43 2019-10-13 18:26:05
46805 20.59 54.34 17.89 65.17 992.40 2019-10-13 18:25:05
46804 20.63 54.37 17.88 65.12 992.43 2019-10-13 18:24:05
46803 20.63 54.31 17.92 64.84 992.36 2019-10-13 18:23:05
46802 20.65 54.24 17.97 64.69 992.37 2019-10-13 18:22:04
46801 20.67 54.23 18.00 64.59 992.34 2019-10-13 18:21:04
46800 20.68 54.14 18.05 64.24 992.32 2019-10-13 18:20:04
46799 20.70 54.19 18.08 64.11 992.32 2019-10-13 18:19:04
46798 20.72 54.09 18.12 63.94 992.32 2019-10-13 18:18:04
46797 20.74 54.16 18.14 63.98 992.30 2019-10-13 18:17:04
46796 20.73 54.17 18.16 63.99 992.27 2019-10-13 18:16:03
46795 20.73 54.14 18.17 63.91 992.27 2019-10-13 18:15:03
46794 20.78 53.97 18.20 63.82 992.30 2019-10-13 18:14:03
46793 20.79 53.94 18.25 63.69 992.31 2019-10-13 18:13:03
46792 20.79 53.86 18.31 63.51 992.31 2019-10-13 18:12:03
46791 20.83 53.85 18.34 63.46 992.31 2019-10-13 18:11:03
46790 20.84 53.85 18.37 63.32 992.30 2019-10-13 18:10:03
46789 20.90 53.56 18.42 63.21 992.30 2019-10-13 18:09:03
46788 20.89 53.64 18.58 62.79 992.24 2019-10-13 18:06:58
46787 20.89 53.81 18.63 62.65 992.22 2019-10-13 18:05:57
46786 20.93 53.78 18.67 62.63 992.22 2019-10-13 18:04:57
46785 20.92 53.78 18.70 62.52 992.16 2019-10-13 18:03:57
46784 20.95 53.74 18.74 62.51 992.16 2019-10-13 18:02:57
46783 21.01 53.40 18.78 62.38 992.14 2019-10-13 18:01:57
46782 21.03 53.58 18.84 62.46 992.13 2019-10-13 18:00:57
46781 21.06 53.29 18.88 62.37 992.11 2019-10-13 17:59:57
46780 21.11 53.18 18.93 62.34 992.08 2019-10-13 17:58:57
46779 21.15 53.07 19.01 62.31 992.08 2019-10-13 17:57:57
46778 21.14 53.11 19.05 62.00 992.04 2019-10-13 17:56:57
46777 21.15 53.29 19.06 62.15 992.03 2019-10-13 17:55:56
46776 21.19 53.17 19.08 62.30 992.06 2019-10-13 17:54:56
46775 21.22 53.10 19.09 62.34 992.03 2019-10-13 17:53:56
46774 21.21 53.46 19.08 62.30 992.05 2019-10-13 17:52:56
46773 21.27 53.27 19.01 62.71 992.03 2019-10-13 17:51:56
46772 21.29 53.20 18.97 63.31 992.05 2019-10-13 17:50:56
46771 21.34 52.86 18.98 63.53 992.05 2019-10-13 17:49:56
46770 21.33 53.31 19.06 63.39 992.08 2019-10-13 17:48:56
46769 21.40 52.81 19.14 63.34 992.04 2019-10-13 17:47:56
46768 21.43 52.75 19.24 62.98 992.05 2019-10-13 17:46:55
46767 21.39 52.90 19.33 62.60 992.06 2019-10-13 17:45:55
46766 21.47 52.66 19.42 62.26 992.05 2019-10-13 17:44:55
46765 21.57 52.28 19.50 61.82 992.01 2019-10-13 17:43:55
46764 21.62 52.26 19.56 61.47 992.00 2019-10-13 17:42:55
46763 21.61 52.34 19.61 61.27 992.02 2019-10-13 17:41:55
46762 21.63 52.22 19.67 60.94 992.03 2019-10-13 17:40:55
46761 21.74 51.68 19.74 60.74 992.03 2019-10-13 17:39:55
46760 21.73 52.05 19.80 60.61 992.00 2019-10-13 17:38:55
46759 21.86 52.10 19.93 60.09 991.96 2019-10-13 17:36:49
46758 21.85 52.12 19.98 59.87 991.95 2019-10-13 17:35:49
46757 21.77 52.29 20.01 59.78 991.92 2019-10-13 17:34:49
46756 21.88 51.99 20.05 59.63 991.94 2019-10-13 17:33:49
46755 21.87 51.85 20.08 59.50 991.92 2019-10-13 17:32:49
46754 21.91 51.71 20.13 59.38 991.88 2019-10-13 17:31:49
46753 21.95 51.49 20.20 59.05 991.88 2019-10-13 17:30:49
46752 21.91 51.41 20.30 58.77 991.92 2019-10-13 17:29:48
46751 22.02 51.02 20.40 58.17 991.92 2019-10-13 17:28:48
46750 22.01 51.18 20.50 57.86 991.91 2019-10-13 17:27:48
46749 22.09 51.05 20.56 57.66 991.94 2019-10-13 17:26:48
46748 22.11 50.64 20.62 57.58 991.94 2019-10-13 17:25:48
46747 22.18 50.43 20.68 57.08 991.87 2019-10-13 17:24:48
46746 22.18 50.59 20.72 57.16 991.87 2019-10-13 17:23:48
46745 22.21 50.48 20.75 56.86 991.85 2019-10-13 17:22:48
46744 22.25 50.29 20.78 56.82 991.86 2019-10-13 17:21:48
46743 22.23 50.15 20.85 56.72 991.87 2019-10-13 17:20:48
46742 22.32 50.16 20.91 56.69 991.90 2019-10-13 17:19:48
46741 22.36 50.04 20.97 56.51 991.86 2019-10-13 17:18:47
46740 22.31 50.19 21.04 56.14 991.89 2019-10-13 17:17:47
46739 22.44 49.85 21.09 55.72 991.89 2019-10-13 17:16:47
46738 22.47 49.57 21.15 55.48 991.90 2019-10-13 17:15:47
46737 22.50 49.53 21.19 55.30 991.89 2019-10-13 17:14:47
46736 22.62 49.36 21.24 55.17 991.89 2019-10-13 17:13:47
46735 22.59 49.09 21.27 55.01 991.91 2019-10-13 17:12:47
46734 22.72 49.05 21.29 54.89 991.89 2019-10-13 17:11:47
46733 22.74 49.02 21.31 54.93 991.88 2019-10-13 17:10:46
46732 22.79 48.72 21.33 54.75 991.90 2019-10-13 17:09:46
46731 23.00 48.42 21.34 54.87 991.89 2019-10-13 17:08:46
46730 23.25 47.82 21.47 54.77 991.87 2019-10-13 17:05:36
46729 23.28 47.77 21.51 54.90 991.90 2019-10-13 17:04:36
46728 23.33 47.59 21.57 54.77 991.91 2019-10-13 17:03:36
46727 23.29 47.75 21.66 54.49 991.89 2019-10-13 17:02:36
46726 23.38 47.48 21.70 54.20 991.88 2019-10-13 17:01:36
46725 23.35 47.57 21.72 53.86 991.86 2019-10-13 17:00:36
46724 23.28 47.55 21.75 54.15 991.85 2019-10-13 16:59:36
46723 23.32 47.68 21.76 53.75 991.81 2019-10-13 16:58:35
46722 23.31 47.73 21.78 53.66 991.82 2019-10-13 16:57:35
46721 23.34 47.62 21.83 53.91 991.83 2019-10-13 16:56:35
46720 23.46 47.41 21.85 53.62 991.80 2019-10-13 16:55:35
46719 23.46 47.48 21.92 53.47 991.80 2019-10-13 16:54:35
46718 23.40 47.52 21.95 53.45 991.79 2019-10-13 16:53:35
46717 23.52 47.22 21.99 53.37 991.75 2019-10-13 16:52:35
46716 23.76 46.63 22.05 53.67 991.76 2019-10-13 16:51:35
46715 23.83 46.35 22.11 53.56 991.75 2019-10-13 16:50:35
46714 24.07 45.71 22.20 53.36 991.78 2019-10-13 16:49:34
46713 24.25 45.29 22.25 52.51 991.79 2019-10-13 16:48:34
46712 24.48 44.68 22.29 52.77 991.77 2019-10-13 16:47:34
46711 24.47 44.82 22.31 52.43 991.78 2019-10-13 16:46:34
46710 24.47 45.01 22.36 52.56 991.81 2019-10-13 16:45:34
46709 24.32 45.17 22.38 52.36 991.80 2019-10-13 16:44:34
46708 24.42 45.16 22.41 52.14 991.78 2019-10-13 16:43:34
46707 24.32 45.38 22.48 52.07 991.82 2019-10-13 16:42:34
46706 24.30 45.55 22.53 52.22 991.79 2019-10-13 16:41:34
46705 24.32 45.34 22.59 52.05 991.81 2019-10-13 16:40:34
46704 24.39 45.13 22.65 51.78 991.79 2019-10-13 16:39:33
46703 24.42 45.04 22.69 51.49 991.82 2019-10-13 16:38:33
46702 24.52 44.68 22.77 51.37 991.84 2019-10-13 16:37:33
46701 24.83 43.92 22.95 50.50 991.89 2019-10-13 16:35:28
46700 25.12 43.33 23.05 50.69 991.90 2019-10-13 16:34:28
46699 25.27 42.95 23.12 50.14 991.88 2019-10-13 16:33:28
46698 25.40 42.49 23.24 49.97 991.84 2019-10-13 16:32:28
46697 25.51 42.22 23.33 49.67 991.81 2019-10-13 16:31:28
46696 25.57 42.11 23.45 49.43 991.84 2019-10-13 16:30:28
46695 25.44 42.23 23.53 49.04 991.83 2019-10-13 16:29:28
46694 25.28 42.48 23.68 49.29 991.79 2019-10-13 16:28:27
46693 25.19 42.36 23.81 48.47 991.76 2019-10-13 16:27:27
46692 25.01 42.66 23.90 48.24 991.80 2019-10-13 16:26:27
46691 24.68 43.63 23.97 47.95 991.79 2019-10-13 16:25:27
46690 24.34 44.31 24.06 47.48 991.80 2019-10-13 16:24:27
46689 24.11 44.75 24.12 47.04 991.80 2019-10-13 16:23:27
46688 24.05 44.71 24.22 46.48 991.87 2019-10-13 16:22:27
46687 24.14 44.00 24.34 46.22 991.86 2019-10-13 16:21:27
46686 24.41 43.24 24.53 45.46 991.85 2019-10-13 16:20:27
46685 24.89 41.63 24.65 44.91 991.84 2019-10-13 16:19:27
46684 25.79 39.65 24.80 44.41 991.82 2019-10-13 16:18:26
46683 26.11 38.50 24.97 43.90 991.82 2019-10-13 16:17:26
46682 26.12 38.76 25.15 42.94 991.80 2019-10-13 16:16:26
46681 26.20 38.73 25.31 42.07 991.80 2019-10-13 16:15:26
46680 26.01 38.88 25.49 41.49 991.80 2019-10-13 16:14:26
46679 25.77 38.86 25.63 41.88 991.85 2019-10-13 16:13:26
46678 25.88 38.84 25.60 41.74 991.82 2019-10-13 16:12:26
46677 25.85 38.88 25.60 41.75 991.83 2019-10-13 16:11:26
46676 25.87 38.93 25.59 41.31 991.79 2019-10-13 16:10:25
46675 25.76 39.18 25.58 40.64 991.76 2019-10-13 16:09:25
46674 25.68 39.45 25.62 40.02 991.77 2019-10-13 16:08:25
46673 25.40 40.17 25.68 40.44 991.74 2019-10-13 16:07:25
46672 24.97 41.08 26.07 40.89 991.75 2019-10-13 16:05:20
46671 24.63 41.90 25.95 40.37 991.72 2019-10-13 16:04:20
46670 24.09 43.15 25.88 39.82 991.76 2019-10-13 16:03:20
46669 23.46 44.50 25.82 40.44 991.77 2019-10-13 16:02:20
46668 22.96 45.79 25.75 39.91 991.75 2019-10-13 16:01:20
46667 22.63 46.61 25.73 39.79 991.72 2019-10-13 16:00:19
46666 22.46 46.97 25.80 39.35 991.72 2019-10-13 15:59:19
46665 22.49 47.01 25.86 39.63 991.67 2019-10-13 15:58:19
46664 22.52 46.90 25.96 39.00 991.63 2019-10-13 15:57:19
46663 22.46 47.17 26.10 38.86 991.63 2019-10-13 15:56:19
46662 22.49 46.88 26.13 39.20 991.61 2019-10-13 15:55:19
46661 22.45 46.96 26.01 39.00 991.57 2019-10-13 15:54:19
46660 22.47 46.92 25.89 39.37 991.55 2019-10-13 15:53:19
46659 22.55 46.77 25.81 40.18 991.57 2019-10-13 15:52:18
46658 22.50 46.95 25.73 39.96 991.57 2019-10-13 15:51:18
46657 22.56 46.85 25.76 39.47 991.66 2019-10-13 15:50:18
46656 22.60 46.85 25.88 40.13 991.66 2019-10-13 15:49:18
46655 22.62 46.96 25.93 40.02 991.71 2019-10-13 15:48:18
46654 22.54 47.16 25.92 40.04 991.73 2019-10-13 15:47:18
46653 22.52 46.86 25.91 40.85 991.75 2019-10-13 15:46:18
46652 22.49 47.02 25.86 40.47 991.73 2019-10-13 15:45:18
46651 22.61 46.67 25.80 40.12 991.73 2019-10-13 15:44:18
46650 22.58 46.70 25.73 40.34 991.72 2019-10-13 15:43:17
46649 22.63 46.52 25.60 40.07 991.71 2019-10-13 15:42:17
46648 22.69 46.32 25.56 40.97 991.65 2019-10-13 15:41:17
46647 22.73 46.37 25.34 40.62 991.66 2019-10-13 15:40:17
46646 22.73 46.33 25.25 41.05 991.69 2019-10-13 15:39:17
46645 22.72 46.32 25.26 40.84 991.72 2019-10-13 15:38:17
46644 22.82 46.19 25.78 40.77 991.73 2019-10-13 15:37:17
46643 22.86 46.16 25.56 40.52 991.79 2019-10-13 15:35:12
46642 22.95 45.97 25.49 41.01 991.78 2019-10-13 15:34:12
46641 23.00 45.73 25.53 40.02 991.75 2019-10-13 15:33:11
46640 23.01 45.76 25.58 40.21 991.74 2019-10-13 15:32:11
46639 22.94 45.97 25.76 39.74 991.82 2019-10-13 15:31:11
46638 22.99 45.75 26.06 40.18 991.81 2019-10-13 15:30:11
46637 23.09 45.46 26.05 38.99 991.81 2019-10-13 15:29:11
46636 23.12 45.40 25.87 40.77 991.82 2019-10-13 15:28:11
46635 23.22 45.06 25.73 39.78 991.85 2019-10-13 15:27:11
46634 23.34 44.85 25.65 40.70 991.82 2019-10-13 15:26:11
46633 23.37 44.73 25.54 40.71 991.84 2019-10-13 15:25:11
46632 23.41 44.53 25.54 40.12 991.83 2019-10-13 15:24:11
46631 23.42 44.53 25.62 40.17 991.83 2019-10-13 15:23:10
46630 23.61 44.11 25.61 40.33 991.86 2019-10-13 15:22:10
46629 23.69 43.92 25.68 39.12 991.84 2019-10-13 15:21:10
46628 23.85 43.66 26.05 39.49 991.89 2019-10-13 15:20:10
46627 23.96 43.38 26.04 39.48 991.86 2019-10-13 15:19:10
46626 24.16 42.88 26.13 40.09 991.84 2019-10-13 15:18:10
46625 24.47 42.10 26.05 39.24 991.85 2019-10-13 15:17:10
46624 24.75 41.44 26.10 39.06 991.86 2019-10-13 15:16:10
46623 25.19 40.40 26.16 38.90 991.82 2019-10-13 15:15:09
46622 25.53 39.71 26.41 38.61 991.89 2019-10-13 15:14:09
46621 25.91 38.89 26.53 38.75 991.87 2019-10-13 15:13:09
46620 25.96 38.92 26.55 37.99 991.90 2019-10-13 15:12:09
46619 25.94 39.01 26.69 37.78 991.90 2019-10-13 15:11:09
46618 25.92 39.20 26.80 38.23 991.90 2019-10-13 15:10:09
46617 25.98 38.95 26.80 37.64 991.92 2019-10-13 15:09:09
46616 25.64 39.88 26.84 37.36 991.95 2019-10-13 15:08:09
46615 25.47 40.46 26.95 36.90 991.96 2019-10-13 15:07:08
46614 24.67 42.56 27.14 37.60 991.97 2019-10-13 15:05:03
46613 24.09 43.99 27.18 37.63 991.96 2019-10-13 15:04:03
46612 23.42 45.74 27.11 37.99 991.95 2019-10-13 15:03:03
46611 22.86 46.94 27.00 37.71 991.90 2019-10-13 15:02:03
46610 22.35 48.14 26.91 38.09 991.92 2019-10-13 15:01:03
46609 22.11 48.40 26.80 37.48 991.90 2019-10-13 15:00:02
46608 22.22 48.41 26.81 37.68 991.92 2019-10-13 14:59:02
46607 22.15 48.76 26.94 37.77 991.99 2019-10-13 14:58:02
46606 22.10 48.89 26.96 38.40 991.96 2019-10-13 14:57:02
46605 22.08 48.88 26.97 38.39 992.02 2019-10-13 14:56:02
46604 22.04 49.23 26.98 37.39 992.00 2019-10-13 14:55:02
46603 22.03 49.21 27.09 37.55 991.96 2019-10-13 14:54:02
46602 22.00 49.08 27.03 37.77 991.94 2019-10-13 14:53:02
46601 21.99 49.31 27.03 37.38 991.92 2019-10-13 14:52:02
46600 21.83 49.87 27.12 37.81 991.94 2019-10-13 14:51:01
46599 21.85 49.68 27.22 37.15 991.97 2019-10-13 14:50:01
46598 21.79 49.61 27.53 37.21 991.91 2019-10-13 14:49:01
46597 21.77 49.74 27.94 36.27 991.92 2019-10-13 14:48:01
46596 21.74 49.44 28.46 34.72 991.92 2019-10-13 14:47:01
46595 21.73 49.75 29.11 33.16 991.95 2019-10-13 14:46:01
46594 21.76 49.49 29.73 33.30 991.98 2019-10-13 14:45:01
46593 21.82 49.45 28.78 33.58 991.96 2019-10-13 14:44:01
46592 21.84 49.24 28.88 32.25 991.99 2019-10-13 14:43:01
46591 21.76 49.19 28.68 33.54 992.05 2019-10-13 14:42:01
46590 21.80 49.29 28.18 34.32 992.07 2019-10-13 14:41:01
46589 21.81 49.03 28.31 34.30 992.01 2019-10-13 14:40:00
46588 21.79 49.15 28.65 33.16 992.00 2019-10-13 14:39:00
46587 21.79 49.08 29.19 32.94 991.98 2019-10-13 14:38:00
46586 21.81 49.08 29.38 32.34 992.01 2019-10-13 14:37:00
46585 21.85 48.86 29.43 32.02 991.96 2019-10-13 14:34:55
46584 21.80 48.99 29.36 31.92 991.98 2019-10-13 14:33:55
46583 21.88 48.72 29.62 31.23 992.01 2019-10-13 14:32:55
46582 21.83 48.86 30.02 31.84 991.97 2019-10-13 14:31:55
46581 21.84 48.84 29.72 31.19 991.99 2019-10-13 14:30:54
46580 21.83 49.05 29.27 31.92 991.95 2019-10-13 14:29:54
46579 21.78 49.19 28.51 34.52 991.96 2019-10-13 14:28:54
46578 21.77 49.06 28.11 34.48 992.02 2019-10-13 14:27:54
46577 21.63 49.17 28.09 35.23 992.02 2019-10-13 14:26:54
46576 21.75 48.86 28.14 35.00 992.03 2019-10-13 14:25:54
46575 21.74 48.90 28.46 33.32 992.03 2019-10-13 14:24:54
46574 21.72 49.07 28.79 32.36 992.00 2019-10-13 14:23:54
46573 21.74 48.91 29.20 32.31 992.01 2019-10-13 14:22:53
46572 21.67 48.92 29.84 30.30 992.06 2019-10-13 14:21:53
46571 21.75 48.75 30.95 28.10 992.05 2019-10-13 14:20:53
46570 21.77 49.03 32.20 27.19 992.08 2019-10-13 14:19:53
46569 21.75 49.15 32.42 26.75 992.10 2019-10-13 14:18:53
46568 21.78 49.04 31.86 28.40 992.13 2019-10-13 14:17:53
46567 21.79 49.20 30.86 29.21 992.12 2019-10-13 14:16:53
46566 21.71 49.43 29.77 31.69 992.16 2019-10-13 14:15:52
46565 21.77 49.28 29.50 32.91 992.14 2019-10-13 14:14:52
46564 21.80 49.02 29.89 30.91 992.16 2019-10-13 14:13:52
46563 21.81 49.00 30.99 29.20 992.15 2019-10-13 14:12:52
46562 21.80 49.25 32.59 26.09 992.15 2019-10-13 14:11:52
46561 21.82 49.17 33.86 24.57 992.13 2019-10-13 14:10:51
46560 21.73 49.32 34.32 24.74 992.13 2019-10-13 14:09:51
46559 21.77 49.13 34.20 24.60 992.14 2019-10-13 14:08:51
46558 21.78 49.08 33.99 24.06 992.14 2019-10-13 14:07:51
46557 21.64 49.30 34.33 25.24 992.17 2019-10-13 14:06:51
46556 21.74 49.00 33.57 25.43 992.17 2019-10-13 14:04:46
46555 21.68 49.39 32.96 26.24 992.20 2019-10-13 14:03:46
46554 21.72 49.47 32.46 27.23 992.23 2019-10-13 14:02:45
46553 21.79 49.29 31.75 28.70 992.25 2019-10-13 14:01:45
46552 21.78 48.91 31.08 29.36 992.21 2019-10-13 14:00:45
46551 21.76 49.58 30.50 30.02 992.24 2019-10-13 13:59:45
46550 21.73 49.67 29.74 31.73 992.25 2019-10-13 13:58:45
46549 21.79 49.45 29.62 31.80 992.22 2019-10-13 13:57:45
46548 21.76 49.44 30.25 30.86 992.19 2019-10-13 13:56:45
46547 21.69 49.48 30.46 30.80 992.23 2019-10-13 13:55:44
46546 21.67 49.36 30.20 31.20 992.20 2019-10-13 13:54:44
46545 21.67 49.26 29.93 31.98 992.22 2019-10-13 13:53:44
46544 21.67 49.22 29.32 32.28 992.20 2019-10-13 13:52:44
46543 21.72 49.12 28.76 32.62 992.25 2019-10-13 13:51:44
46542 21.73 49.60 28.39 33.66 992.34 2019-10-13 13:50:44
46541 21.73 49.96 28.18 34.82 992.34 2019-10-13 13:49:44
46540 21.72 49.99 28.43 33.90 992.39 2019-10-13 13:48:44
46539 21.71 49.85 28.73 33.91 992.35 2019-10-13 13:47:44
46538 21.69 49.61 28.92 33.58 992.38 2019-10-13 13:46:43
46537 21.65 49.50 28.87 34.43 992.36 2019-10-13 13:45:43
46536 21.62 49.63 28.53 33.51 992.40 2019-10-13 13:44:43
46535 21.59 49.78 28.98 31.75 992.38 2019-10-13 13:43:43
46534 21.59 49.61 29.73 31.36 992.43 2019-10-13 13:42:43
46533 21.55 49.80 30.46 29.04 992.41 2019-10-13 13:41:43
46532 21.52 50.03 31.38 28.03 992.40 2019-10-13 13:40:43
46531 21.42 50.61 32.18 27.61 992.50 2019-10-13 13:39:43
46530 21.41 50.82 32.62 25.97 992.52 2019-10-13 13:38:43
46529 21.37 51.17 33.23 25.94 992.51 2019-10-13 13:37:41
46528 21.28 51.28 33.08 27.34 992.58 2019-10-13 13:36:41
46527 21.36 51.23 33.63 25.63 992.56 2019-10-13 13:34:36
46526 21.38 51.48 34.02 24.92 992.57 2019-10-13 13:33:36
46525 21.34 51.79 34.29 23.93 992.56 2019-10-13 13:32:36
46524 21.31 51.82 34.96 24.49 992.58 2019-10-13 13:31:36
46523 21.29 51.71 34.89 25.61 992.65 2019-10-13 13:30:36
46522 21.20 51.71 34.72 25.59 992.64 2019-10-13 13:29:35
46521 21.26 51.49 34.81 24.77 992.66 2019-10-13 13:28:35
46520 21.23 51.49 34.83 25.12 992.66 2019-10-13 13:27:35
46519 21.23 51.51 34.90 24.49 992.62 2019-10-13 13:26:35
46518 21.21 51.54 35.07 24.10 992.61 2019-10-13 13:25:34
46517 21.12 51.61 35.07 24.46 992.59 2019-10-13 13:24:34
46516 21.18 51.36 34.78 25.39 992.64 2019-10-13 13:23:34
46515 21.16 51.17 34.00 26.22 992.62 2019-10-13 13:22:34
46514 21.21 51.12 33.26 27.44 992.61 2019-10-13 13:21:34
46513 21.18 51.42 32.38 28.46 992.68 2019-10-13 13:20:34
46512 21.15 51.50 31.52 29.86 992.69 2019-10-13 13:19:34
46511 21.13 51.73 30.77 30.93 992.66 2019-10-13 13:18:34
46510 21.15 51.73 30.02 31.76 992.67 2019-10-13 13:17:34
46509 21.09 51.85 29.51 33.17 992.71 2019-10-13 13:16:33
46508 21.08 51.97 29.23 33.49 992.69 2019-10-13 13:15:33
46507 21.10 51.99 28.72 34.34 992.72 2019-10-13 13:14:33
46506 21.11 51.91 28.27 36.76 992.73 2019-10-13 13:13:33
46505 21.19 51.73 27.94 36.78 992.70 2019-10-13 13:12:33
46504 21.26 51.61 27.85 35.68 992.77 2019-10-13 13:11:33
46503 21.23 51.77 28.00 35.78 992.77 2019-10-13 13:10:33
46502 21.17 52.07 28.18 34.69 992.78 2019-10-13 13:09:33
46501 21.10 52.28 28.62 35.76 992.76 2019-10-13 13:08:32
46500 21.14 52.13 28.72 34.40 992.81 2019-10-13 13:07:32
46499 21.15 52.05 28.86 34.16 992.77 2019-10-13 13:06:32
46498 21.06 52.76 29.68 33.95 992.80 2019-10-13 13:04:27
46497 20.99 52.85 29.36 35.04 992.82 2019-10-13 13:03:27
46496 20.92 52.95 28.76 37.10 992.85 2019-10-13 13:02:27
46495 20.95 52.88 27.87 39.14 992.86 2019-10-13 13:01:27
46494 20.97 52.93 27.00 40.09 992.85 2019-10-13 13:00:27
46493 20.96 52.94 26.36 41.38 992.86 2019-10-13 12:59:27
46492 20.93 53.14 26.11 42.15 992.89 2019-10-13 12:58:26
46491 20.92 52.98 25.95 42.21 992.93 2019-10-13 12:57:26
46490 20.91 53.10 25.76 43.37 992.98 2019-10-13 12:56:26
46489 20.94 53.08 25.57 43.32 992.97 2019-10-13 12:55:26
46488 20.91 53.04 25.46 42.77 992.95 2019-10-13 12:54:26
46487 20.90 53.05 25.51 42.55 992.99 2019-10-13 12:53:26
46486 20.86 53.17 25.50 43.10 993.00 2019-10-13 12:52:26
46485 20.82 53.20 25.50 43.57 992.97 2019-10-13 12:51:26
46484 20.79 53.20 25.49 42.57 992.99 2019-10-13 12:50:26
46483 20.78 53.22 25.46 43.18 992.96 2019-10-13 12:49:26
46482 20.77 53.02 25.24 44.67 993.01 2019-10-13 12:48:42
46481 20.74 52.86 25.08 43.82 992.99 2019-10-13 12:47:20
46480 20.75 52.85 24.99 43.53 993.03 2019-10-13 12:46:17
46479 20.74 52.73 25.25 44.13 993.00 2019-10-13 12:45:17
46478 20.78 52.74 25.28 46.71 993.06 2019-10-13 12:44:17
46477 20.68 52.83 25.54 66.39 993.12 2019-10-13 12:43:17
46476 20.76 52.70 24.76 47.66 993.07 2019-10-13 12:42:17
46475 20.87 52.60 24.03 51.51 993.11 2019-10-13 12:41:17
46474 20.98 52.24 22.99 58.44 993.12 2019-10-13 12:40:17
46473 21.10 52.21 21.30 52.98 993.13 2019-10-13 12:39:17
46472 21.11 51.91 21.22 54.24 993.25 2019-10-13 12:38:17
46471 21.21 51.58 20.95 55.16 993.21 2019-10-13 12:37:15
46470 nan nan nan nan nan 2019-10-13 12:36:01
46469 20.09 54.09 24.71 43.48 993.11 2019-10-13 12:15:18
46468 20.07 54.18 23.96 49.29 993.26 2019-10-13 12:14:18
46467 20.04 54.20 21.42 51.22 993.18 2019-10-13 12:13:18
46466 20.06 55.26 21.19 50.92 993.20 2019-10-13 12:12:18
46465 19.92 54.47 21.28 51.13 993.28 2019-10-13 12:11:18
46464 19.81 54.62 21.51 50.94 993.31 2019-10-13 12:10:18
46463 19.76 54.54 21.56 51.67 993.27 2019-10-13 12:09:17
46462 19.79 54.32 21.43 51.71 993.24 2019-10-13 12:08:17
46461 19.83 54.37 21.64 50.83 993.30 2019-10-13 12:06:12
46460 19.85 54.25 21.48 51.11 993.24 2019-10-13 12:05:12
46459 19.88 54.19 21.08 50.86 993.23 2019-10-13 12:03:06
46458 19.85 54.48 20.96 50.89 993.24 2019-10-13 12:02:06
46457 19.79 54.59 21.44 51.23 993.26 2019-10-13 12:01:06
46456 19.82 54.54 21.14 51.96 993.21 2019-10-13 12:00:06
46455 19.78 54.61 21.32 50.72 993.25 2019-10-13 11:59:06
46454 19.78 54.78 21.42 51.66 993.28 2019-10-13 11:58:05
46453 19.73 54.90 21.30 50.67 993.28 2019-10-13 11:57:05
46452 19.72 54.80 20.89 52.26 993.23 2019-10-13 11:56:05
46451 19.67 54.99 20.90 51.62 993.26 2019-10-13 11:55:05
46450 19.61 55.10 21.53 50.88 993.26 2019-10-13 11:54:05
46449 19.66 55.09 21.15 51.52 993.26 2019-10-13 11:53:05
46448 19.64 55.10 21.68 50.76 993.27 2019-10-13 11:52:04
46447 19.69 54.98 21.41 51.48 993.20 2019-10-13 11:49:59
46446 19.65 54.99 21.66 51.36 993.27 2019-10-13 11:48:59
46445 19.61 55.19 21.68 50.26 993.24 2019-10-13 11:47:59
46444 19.61 55.23 21.41 50.82 993.23 2019-10-13 11:46:59
46443 19.61 55.47 21.18 51.03 993.22 2019-10-13 11:45:59
46442 19.58 55.38 21.48 51.36 993.28 2019-10-13 11:44:58
46441 19.55 55.45 21.38 52.11 993.22 2019-10-13 11:43:58
46440 19.50 55.81 21.11 51.41 993.27 2019-10-13 11:42:58
46439 19.47 55.76 20.95 51.77 993.27 2019-10-13 11:41:58
46438 19.48 55.77 21.30 52.03 993.25 2019-10-13 11:40:58
46437 19.49 55.74 21.03 52.63 993.25 2019-10-13 11:39:57
46436 19.48 55.83 20.93 51.86 993.21 2019-10-13 11:38:57
46435 19.44 55.80 21.21 52.25 993.23 2019-10-13 11:37:57
46434 19.50 55.66 21.18 52.54 993.23 2019-10-13 11:36:57
46433 19.47 55.67 20.87 52.53 993.21 2019-10-13 11:35:57
46432 19.46 55.78 21.03 51.97 993.23 2019-10-13 11:34:57
46431 19.38 56.01 21.10 52.25 993.17 2019-10-13 11:33:57
46430 19.35 55.82 20.84 52.33 993.23 2019-10-13 11:32:57
46429 19.40 55.87 20.94 52.46 993.24 2019-10-13 11:31:57
46428 19.40 55.57 20.74 52.82 993.21 2019-10-13 11:30:56
46427 19.46 55.97 20.93 52.75 993.20 2019-10-13 11:29:56
46426 19.47 55.81 20.81 53.21 993.21 2019-10-13 11:28:56
46425 19.46 55.77 20.75 53.51 993.22 2019-10-13 11:27:56
46424 19.44 55.54 20.57 53.16 993.30 2019-10-13 11:26:56
46423 19.44 56.33 20.60 53.63 993.33 2019-10-13 11:25:56
46422 19.41 56.20 20.51 54.13 993.35 2019-10-13 11:24:56
46421 19.37 56.25 20.43 54.06 993.35 2019-10-13 11:23:56
46420 19.33 56.04 20.30 53.98 993.37 2019-10-13 11:22:55
46419 19.29 55.93 20.33 53.84 993.36 2019-10-13 11:21:55
46418 19.34 56.21 20.24 54.53 993.34 2019-10-13 11:19:50
46417 19.33 56.32 20.37 53.93 993.32 2019-10-13 11:18:50
46416 19.24 56.34 20.31 54.48 993.28 2019-10-13 11:17:49
46415 19.19 56.51 20.21 54.56 993.30 2019-10-13 11:16:49
46414 19.17 56.36 20.33 54.22 993.31 2019-10-13 11:15:49
46413 19.21 56.55 20.34 54.35 993.30 2019-10-13 11:14:49
46412 19.18 56.46 20.39 54.45 993.30 2019-10-13 11:13:49
46411 19.18 56.45 20.30 54.82 993.31 2019-10-13 11:12:49
46410 19.14 56.22 19.95 54.80 993.31 2019-10-13 11:11:49
46409 19.12 56.32 20.05 54.39 993.33 2019-10-13 11:10:49
46408 19.14 56.30 20.16 54.52 993.39 2019-10-13 11:09:48
46407 19.10 56.26 19.93 54.37 993.41 2019-10-13 11:08:48
46406 19.12 56.37 19.81 55.57 993.41 2019-10-13 11:07:48
46405 19.05 56.47 19.86 55.75 993.46 2019-10-13 11:06:48
46404 19.09 56.32 19.81 55.10 993.39 2019-10-13 11:05:48
46403 19.12 56.27 19.63 56.31 993.44 2019-10-13 11:04:47
46402 19.10 56.29 19.42 56.42 993.43 2019-10-13 11:03:47
46401 19.16 56.24 19.90 55.38 993.44 2019-10-13 11:02:47
46400 19.15 56.29 20.09 54.84 993.38 2019-10-13 11:01:47
46399 19.09 56.24 20.18 54.28 993.39 2019-10-13 11:00:47
46398 19.10 56.17 20.16 54.94 993.39 2019-10-13 10:59:46
46397 19.04 56.38 19.93 55.51 993.39 2019-10-13 10:58:46
46396 19.04 56.14 20.13 54.92 993.39 2019-10-13 10:57:46
46395 19.07 55.96 19.72 55.04 993.37 2019-10-13 10:56:46
46394 19.07 56.15 20.04 54.95 993.38 2019-10-13 10:55:46
46393 19.00 56.31 19.63 55.82 993.41 2019-10-13 10:54:46
46392 18.98 56.18 19.83 55.48 993.37 2019-10-13 10:53:46
46391 18.97 56.41 19.70 55.97 993.28 2019-10-13 10:52:45
46390 18.91 56.19 19.33 56.33 993.36 2019-10-13 10:51:45
46389 18.85 56.57 19.96 56.06 993.26 2019-10-13 10:49:40
46388 18.80 56.50 19.73 56.23 993.29 2019-10-13 10:48:40
46387 18.89 55.36 19.70 56.07 993.26 2019-10-13 10:47:40
46386 18.87 55.26 19.66 55.95 993.23 2019-10-13 10:46:40
46385 18.86 55.33 19.75 56.13 993.24 2019-10-13 10:45:40
46384 18.85 55.40 19.80 55.98 993.28 2019-10-13 10:44:40
46383 18.85 55.29 19.58 55.99 993.31 2019-10-13 10:43:40
46382 18.85 55.20 19.69 57.36 993.26 2019-10-13 10:42:39
46381 18.84 55.27 19.14 57.63 993.28 2019-10-13 10:41:39
46380 18.83 55.39 19.34 57.34 993.25 2019-10-13 10:40:39
46379 18.82 55.34 19.42 57.23 993.22 2019-10-13 10:39:39
46378 18.80 55.26 19.23 57.46 993.21 2019-10-13 10:38:39
46377 18.80 55.29 19.11 57.72 993.21 2019-10-13 10:37:39
46376 18.79 55.41 18.93 57.85 993.24 2019-10-13 10:36:39
46375 18.78 55.29 19.41 57.89 993.19 2019-10-13 10:35:38
46374 18.79 55.41 19.18 57.11 993.24 2019-10-13 10:34:38
46373 18.77 55.40 19.27 57.14 993.22 2019-10-13 10:33:38
46372 18.76 55.45 18.92 57.90 993.27 2019-10-13 10:32:38
46371 18.75 55.30 18.92 57.61 993.26 2019-10-13 10:31:38
46370 18.74 55.27 18.99 57.34 993.32 2019-10-13 10:30:37
46369 18.73 55.50 18.99 57.98 993.27 2019-10-13 10:29:37
46368 18.72 55.43 18.84 58.85 993.24 2019-10-13 10:28:37
46367 18.70 55.09 18.89 58.69 993.29 2019-10-13 10:27:37
46366 18.69 55.32 18.69 58.41 993.26 2019-10-13 10:26:37
46365 18.68 55.26 18.60 59.38 993.26 2019-10-13 10:25:37
46364 18.69 55.08 18.91 58.14 993.33 2019-10-13 10:24:37
46363 18.68 54.31 18.84 58.06 993.28 2019-10-13 10:23:37
46362 18.68 54.46 18.62 58.08 993.27 2019-10-13 10:22:37
46361 18.68 54.28 18.65 58.16 993.29 2019-10-13 10:21:37
46360 18.67 54.41 19.01 58.21 993.31 2019-10-13 10:19:31
46359 18.67 54.32 19.01 59.04 993.27 2019-10-13 10:18:31
46358 18.67 54.35 18.52 59.60 993.27 2019-10-13 10:17:31
46357 18.66 54.45 18.36 59.38 993.26 2019-10-13 10:16:31
46356 18.65 54.39 18.82 58.91 993.25 2019-10-13 10:15:31
46355 18.65 54.32 18.99 59.29 993.25 2019-10-13 10:14:31
46354 18.65 54.54 18.82 59.59 993.24 2019-10-13 10:13:31
46353 18.63 54.54 18.69 59.90 993.23 2019-10-13 10:12:31
46352 18.64 54.55 18.52 59.77 993.26 2019-10-13 10:11:30
46351 18.64 54.95 18.19 59.73 993.22 2019-10-13 10:10:30
46350 18.64 54.78 18.45 59.43 993.30 2019-10-13 10:09:30
46349 18.63 54.71 18.36 59.92 993.28 2019-10-13 10:08:30
46348 18.63 54.63 18.63 59.53 993.30 2019-10-13 10:07:30
46347 18.63 54.81 18.49 60.30 993.29 2019-10-13 10:06:30
46346 18.62 54.82 18.34 60.17 993.27 2019-10-13 10:05:30
46345 18.62 54.86 18.01 60.37 993.29 2019-10-13 10:04:49
46344 18.61 54.96 18.21 59.92 993.28 2019-10-13 10:03:25
46343 18.61 54.95 18.27 60.03 993.26 2019-10-13 10:02:25
46342 18.60 54.96 18.41 59.45 993.22 2019-10-13 10:01:25
46341 18.60 55.21 18.85 59.51 993.30 2019-10-13 10:00:25
46340 18.60 55.26 18.69 59.69 993.26 2019-10-13 09:59:24
46339 18.60 55.30 18.58 59.82 993.21 2019-10-13 09:58:24
46338 18.59 55.33 18.49 60.27 993.30 2019-10-13 09:57:24
46337 18.60 55.50 18.46 60.95 993.25 2019-10-13 09:56:24
46336 18.59 55.52 17.90 62.00 993.27 2019-10-13 09:55:24
46335 18.59 55.72 17.46 62.44 993.27 2019-10-13 09:54:24
46334 18.58 55.80 17.68 62.71 993.27 2019-10-13 09:53:24
46333 18.57 55.87 17.25 63.46 993.31 2019-10-13 09:52:24
46332 18.57 56.14 17.13 63.40 993.25 2019-10-13 09:51:24
46331 18.57 56.21 17.27 62.42 993.27 2019-10-13 09:49:19
46330 18.57 56.27 17.03 63.39 993.25 2019-10-13 09:48:18
46329 18.57 56.34 17.35 62.17 993.26 2019-10-13 09:47:18
46328 18.57 56.36 17.79 60.71 993.25 2019-10-13 09:46:18
46327 18.57 56.49 18.20 60.10 993.22 2019-10-13 09:45:18
46326 18.57 56.45 18.36 59.47 993.24 2019-10-13 09:44:18
46325 18.57 56.51 18.36 58.16 993.28 2019-10-13 09:43:18
46324 18.57 56.55 19.12 56.09 993.29 2019-10-13 09:42:18
46323 18.57 56.58 20.51 52.82 993.27 2019-10-13 09:41:18
46322 18.56 56.44 19.08 55.81 993.30 2019-10-13 09:40:18
46321 18.56 56.55 19.87 53.72 993.30 2019-10-13 09:39:18
46320 18.56 56.63 20.83 52.12 993.27 2019-10-13 09:38:18
46319 18.56 56.68 20.78 51.36 993.25 2019-10-13 09:37:17
46318 18.55 56.65 21.58 49.11 993.26 2019-10-13 09:36:17
46317 18.55 56.75 22.88 46.60 993.28 2019-10-13 09:35:17
46316 18.55 56.93 21.34 49.92 993.26 2019-10-13 09:34:17
46315 18.54 56.98 22.01 49.10 993.24 2019-10-13 09:33:17
46314 18.53 56.89 20.78 51.40 993.23 2019-10-13 09:32:17
46313 18.53 57.13 20.43 52.43 993.21 2019-10-13 09:31:17
46312 18.53 57.18 19.74 54.16 993.28 2019-10-13 09:30:17
46311 18.53 57.29 20.09 52.84 993.27 2019-10-13 09:29:17
46310 18.53 57.51 21.70 49.22 993.23 2019-10-13 09:28:17
46309 18.53 57.64 21.68 48.98 993.31 2019-10-13 09:27:16
46308 18.53 57.52 21.63 48.38 993.30 2019-10-13 09:26:16
46307 18.52 57.48 22.32 48.39 993.26 2019-10-13 09:25:16
46306 18.51 57.40 22.00 48.16 993.27 2019-10-13 09:24:16
46305 18.50 57.94 22.67 46.86 993.29 2019-10-13 09:23:16
46304 18.49 57.78 23.07 45.89 993.30 2019-10-13 09:22:16
46303 18.48 57.91 23.08 46.66 993.29 2019-10-13 09:21:16
46302 18.48 57.91 20.85 54.01 993.28 2019-10-13 09:19:11
46301 18.46 57.91 18.96 58.70 993.27 2019-10-13 09:18:11
46300 18.45 58.06 18.13 61.07 993.19 2019-10-13 09:17:11
46299 18.45 58.23 17.33 62.70 993.26 2019-10-13 09:16:11
46298 18.44 58.16 17.49 62.17 993.15 2019-10-13 09:15:10
46297 18.43 57.65 18.09 60.87 993.17 2019-10-13 09:14:10
46296 18.42 57.82 18.16 60.91 993.15 2019-10-13 09:13:10
46295 18.40 57.94 17.32 62.89 993.18 2019-10-13 09:12:10
46294 18.39 58.23 17.70 62.06 993.18 2019-10-13 09:11:10
46293 18.38 58.06 17.66 62.26 993.17 2019-10-13 09:10:10
46292 18.36 58.33 17.80 61.80 993.13 2019-10-13 09:09:10
46291 18.35 58.59 17.45 63.49 993.15 2019-10-13 09:08:10
46290 18.35 58.92 17.01 64.92 993.17 2019-10-13 09:07:10
46289 18.31 59.05 16.70 66.25 993.16 2019-10-13 09:06:10
46288 18.31 59.00 16.30 66.97 993.13 2019-10-13 09:05:09
46287 18.31 59.30 16.07 67.46 993.12 2019-10-13 09:04:09
46286 18.30 59.38 15.79 67.47 993.09 2019-10-13 09:03:09
46285 18.27 59.54 16.18 67.51 993.10 2019-10-13 09:02:09
46284 18.28 59.84 15.93 67.57 993.10 2019-10-13 09:01:09
46283 18.27 59.85 15.82 67.37 993.07 2019-10-13 09:00:09
46282 18.22 60.06 16.12 66.66 993.12 2019-10-13 08:59:09
46281 18.20 60.14 15.86 66.77 993.08 2019-10-13 08:58:09
46280 18.19 60.15 16.17 66.01 993.09 2019-10-13 08:57:09
46279 18.18 60.19 16.36 65.60 993.09 2019-10-13 08:56:08
46278 18.17 60.24 16.46 65.33 993.07 2019-10-13 08:55:08
46277 18.18 60.22 16.84 64.37 993.03 2019-10-13 08:54:08
46276 18.16 60.24 16.67 65.13 993.02 2019-10-13 08:53:08
46275 18.17 60.22 16.39 65.93 993.01 2019-10-13 08:52:08
46274 18.16 60.25 16.28 66.79 992.98 2019-10-13 08:51:08
46273 18.16 60.25 15.06 71.69 993.06 2019-10-13 08:49:03
46272 18.14 60.25 14.41 73.08 993.03 2019-10-13 08:48:03
46271 18.16 60.22 14.09 73.69 993.03 2019-10-13 08:47:03
46270 18.14 60.27 14.13 73.62 993.05 2019-10-13 08:46:03
46269 18.14 60.28 14.00 73.93 993.05 2019-10-13 08:45:03
46268 18.14 60.28 14.05 73.62 993.07 2019-10-13 08:44:02
46267 18.14 60.28 13.93 73.67 993.07 2019-10-13 08:43:02
46266 18.13 60.30 13.92 73.71 993.05 2019-10-13 08:42:02
46265 18.11 60.34 13.95 73.90 993.05 2019-10-13 08:41:02
46264 18.13 60.34 13.81 74.12 993.07 2019-10-13 08:40:02
46263 18.12 60.35 13.69 74.37 993.04 2019-10-13 08:39:02
46262 18.12 60.38 13.74 74.31 993.06 2019-10-13 08:38:02
46261 18.11 60.37 13.70 74.51 993.04 2019-10-13 08:37:02
46260 18.11 60.37 13.60 74.72 993.01 2019-10-13 08:36:02
46259 18.11 60.35 13.49 74.70 993.02 2019-10-13 08:35:02
46258 18.12 60.37 13.40 74.75 993.02 2019-10-13 08:34:01
46257 18.11 60.38 13.31 74.81 993.02 2019-10-13 08:33:01
46256 18.10 60.44 13.28 74.93 992.96 2019-10-13 08:32:01
46255 18.09 60.43 13.15 75.11 993.00 2019-10-13 08:31:01
46254 18.10 60.39 13.16 74.95 993.03 2019-10-13 08:30:01
46253 18.09 60.41 13.14 75.01 993.06 2019-10-13 08:29:01
46252 18.10 60.45 13.08 75.11 993.04 2019-10-13 08:28:01
46251 18.09 60.42 13.04 75.00 993.02 2019-10-13 08:27:01
46250 18.09 60.41 13.08 74.86 993.03 2019-10-13 08:26:01
46249 18.09 60.40 13.04 74.80 992.99 2019-10-13 08:25:01
46248 18.10 60.39 12.99 74.85 993.00 2019-10-13 08:24:00
46247 18.10 60.41 12.84 75.13 993.00 2019-10-13 08:23:00
46246 18.09 60.41 12.85 75.25 993.02 2019-10-13 08:22:00
46245 18.10 60.38 12.85 75.07 992.99 2019-10-13 08:21:00
46244 18.11 60.38 12.71 74.95 992.96 2019-10-13 08:18:55
46243 18.10 60.36 12.70 74.86 992.89 2019-10-13 08:17:55
46242 18.11 60.36 12.66 74.94 992.86 2019-10-13 08:16:55
46241 18.11 60.37 12.63 74.73 992.84 2019-10-13 08:15:55
46240 18.10 60.36 12.67 74.58 992.86 2019-10-13 08:14:55
46239 18.10 60.35 12.63 74.49 992.82 2019-10-13 08:13:54
46238 18.10 60.33 12.59 74.46 992.87 2019-10-13 08:12:54
46237 18.12 60.30 12.57 74.57 992.85 2019-10-13 08:11:54
46236 18.10 60.32 12.55 74.61 992.86 2019-10-13 08:10:54
46235 18.11 60.32 12.52 74.68 992.90 2019-10-13 08:09:54
46234 18.10 60.23 12.44 74.84 992.86 2019-10-13 08:08:54
46233 18.08 60.31 12.39 74.86 992.83 2019-10-13 08:07:54
46232 18.08 60.34 12.34 74.84 992.85 2019-10-13 08:06:54
46231 18.09 60.32 12.22 74.92 992.84 2019-10-13 08:05:54
46230 18.10 60.35 12.33 74.77 992.82 2019-10-13 08:04:55
46229 18.08 60.32 12.29 74.92 992.84 2019-10-13 08:03:49
46228 18.10 60.28 12.26 74.97 992.84 2019-10-13 08:02:48
46227 18.11 60.29 12.16 75.29 992.91 2019-10-13 08:01:48
46226 18.10 60.32 12.04 75.50 992.83 2019-10-13 08:00:48
46225 18.10 60.30 12.06 75.51 992.78 2019-10-13 07:59:48
46224 18.11 60.30 12.07 75.60 992.78 2019-10-13 07:58:48
46223 18.10 60.37 11.98 75.89 992.79 2019-10-13 07:57:48
46222 18.10 60.37 11.70 76.32 992.79 2019-10-13 07:56:48
46221 18.10 60.31 11.87 76.10 992.80 2019-10-13 07:55:48
46220 18.10 60.36 11.72 76.30 992.81 2019-10-13 07:54:48
46219 18.10 60.31 11.66 76.34 992.81 2019-10-13 07:53:48
46218 18.09 60.34 11.50 76.20 992.81 2019-10-13 07:52:48
46217 18.08 60.33 11.49 75.81 992.85 2019-10-13 07:51:48
46216 18.09 60.33 11.63 75.36 992.77 2019-10-13 07:50:47
46215 18.11 60.22 11.96 74.26 992.73 2019-10-13 07:48:42
46214 18.14 60.16 12.11 74.25 992.75 2019-10-13 07:47:42
46213 18.15 60.07 12.04 74.53 992.66 2019-10-13 07:46:42
46212 18.13 60.03 12.05 74.56 992.68 2019-10-13 07:45:42
46211 18.13 60.02 12.06 74.74 992.60 2019-10-13 07:44:42
46210 18.11 60.06 11.99 74.90 992.57 2019-10-13 07:43:42
46209 18.13 60.07 12.07 75.02 992.55 2019-10-13 07:42:42
46208 18.12 60.05 11.99 75.42 992.56 2019-10-13 07:41:42
46207 18.12 60.06 11.89 75.72 992.56 2019-10-13 07:40:42
46206 18.11 60.05 11.93 75.80 992.59 2019-10-13 07:39:41
46205 18.14 59.99 11.80 76.12 992.56 2019-10-13 07:38:41
46204 18.12 60.07 11.83 76.08 992.54 2019-10-13 07:37:41
46203 18.14 59.98 11.76 76.20 992.58 2019-10-13 07:36:41
46202 18.16 59.90 11.72 76.25 992.59 2019-10-13 07:35:41
46201 18.15 59.90 11.81 76.34 992.57 2019-10-13 07:34:41
46200 18.13 59.92 11.73 76.45 992.63 2019-10-13 07:33:41
46199 18.13 59.95 11.73 76.48 992.64 2019-10-13 07:32:41
46198 18.12 59.95 11.75 76.36 992.57 2019-10-13 07:31:41
46197 18.11 59.97 11.95 76.14 992.56 2019-10-13 07:30:41
46196 18.14 59.90 11.96 76.47 992.56 2019-10-13 07:29:41
46195 18.13 59.92 11.83 76.85 992.51 2019-10-13 07:28:40
46194 18.14 59.86 11.71 77.15 992.55 2019-10-13 07:27:40
46193 18.14 59.89 11.58 77.29 992.48 2019-10-13 07:26:40
46192 18.14 59.91 11.63 77.09 992.53 2019-10-13 07:25:40
46191 18.12 59.94 11.71 76.85 992.51 2019-10-13 07:24:40
46190 18.13 59.95 11.87 76.55 992.50 2019-10-13 07:23:40
46189 18.13 59.98 11.63 76.67 992.52 2019-10-13 07:22:40
46188 18.13 59.94 11.91 76.16 992.49 2019-10-13 07:21:40
46187 18.13 59.93 12.03 75.99 992.49 2019-10-13 07:20:40
46186 18.15 59.93 12.08 76.38 992.42 2019-10-13 07:18:35
46185 18.14 59.94 12.03 76.63 992.39 2019-10-13 07:17:35
46184 18.15 59.98 11.97 76.87 992.35 2019-10-13 07:16:34
46183 18.15 59.95 11.96 76.79 992.33 2019-10-13 07:15:34
46182 18.16 59.84 12.06 76.68 992.33 2019-10-13 07:14:34
46181 18.16 59.83 11.83 77.01 992.29 2019-10-13 07:13:34
46180 18.17 59.77 11.92 76.62 992.29 2019-10-13 07:12:34
46179 18.17 59.72 11.98 76.14 992.27 2019-10-13 07:11:34
46178 18.16 59.74 11.99 76.13 992.26 2019-10-13 07:10:34
46177 18.17 59.74 11.99 76.16 992.24 2019-10-13 07:09:34
46176 18.17 59.77 12.00 76.21 992.22 2019-10-13 07:08:34
46175 18.16 59.78 11.99 76.24 992.19 2019-10-13 07:07:34
46174 18.17 59.75 12.04 76.23 992.19 2019-10-13 07:06:34
46173 18.17 59.75 12.00 76.30 992.20 2019-10-13 07:05:33
46172 18.16 59.79 12.05 76.31 992.19 2019-10-13 07:04:33
46171 18.17 59.78 12.09 76.41 992.21 2019-10-13 07:03:33
46170 18.16 59.80 12.09 76.46 992.21 2019-10-13 07:02:33
46169 18.16 59.82 12.07 76.48 992.19 2019-10-13 07:01:33
46168 18.15 59.83 12.14 76.54 992.23 2019-10-13 07:00:33
46167 18.15 59.83 12.17 76.70 992.22 2019-10-13 06:59:33
46166 18.15 59.84 12.11 76.93 992.22 2019-10-13 06:58:33
46165 18.15 59.84 12.03 77.24 992.26 2019-10-13 06:57:33
46164 18.14 59.89 12.05 77.24 992.25 2019-10-13 06:56:32
46163 18.13 59.93 12.22 77.36 992.23 2019-10-13 06:55:32
46162 18.13 59.93 12.16 77.56 992.20 2019-10-13 06:54:32
46161 18.15 59.88 12.18 77.66 992.22 2019-10-13 06:53:32
46160 18.14 59.86 12.22 77.94 992.21 2019-10-13 06:52:32
46159 18.15 59.89 12.17 78.25 992.22 2019-10-13 06:51:32
46158 18.15 59.88 12.08 78.64 992.23 2019-10-13 06:50:32
46157 18.13 59.92 11.94 79.31 992.25 2019-10-13 06:48:27
46156 18.14 59.89 11.91 79.46 992.21 2019-10-13 06:47:27
46155 18.15 59.89 11.84 79.77 992.18 2019-10-13 06:46:27
46154 18.14 59.79 11.78 79.67 992.22 2019-10-13 06:45:27
46153 18.14 59.82 11.83 79.84 992.18 2019-10-13 06:44:27
46152 18.13 59.85 11.78 79.94 992.19 2019-10-13 06:43:26
46151 18.13 59.84 11.74 79.80 992.21 2019-10-13 06:42:26
46150 18.13 59.81 11.78 79.69 992.20 2019-10-13 06:41:26
46149 18.15 59.79 11.69 79.62 992.25 2019-10-13 06:40:26
46148 18.15 59.83 11.85 79.21 992.22 2019-10-13 06:39:26
46147 18.15 59.80 11.79 79.21 992.22 2019-10-13 06:38:26
46146 18.15 59.78 11.77 79.12 992.22 2019-10-13 06:37:26
46145 18.14 59.81 11.92 78.90 992.27 2019-10-13 06:36:26
46144 18.15 59.80 11.83 78.68 992.33 2019-10-13 06:35:26
46143 18.16 59.82 11.83 78.62 992.31 2019-10-13 06:34:26
46142 18.14 59.83 11.84 78.66 992.34 2019-10-13 06:33:26
46141 18.14 59.85 11.86 78.43 992.41 2019-10-13 06:32:25
46140 18.14 59.83 11.87 78.00 992.37 2019-10-13 06:31:25
46139 18.15 59.84 12.06 77.51 992.40 2019-10-13 06:30:25
46138 18.15 59.81 12.01 77.91 992.44 2019-10-13 06:29:25
46137 18.16 59.79 11.96 78.32 992.42 2019-10-13 06:28:25
46136 18.16 59.78 11.80 78.53 992.42 2019-10-13 06:27:25
46135 18.17 59.77 11.76 78.14 992.45 2019-10-13 06:26:25
46134 18.17 59.73 11.72 78.04 992.44 2019-10-13 06:25:25
46133 18.16 59.72 11.86 77.89 992.46 2019-10-13 06:24:24
46132 18.17 59.71 11.74 78.04 992.47 2019-10-13 06:23:24
46131 18.17 59.73 11.63 77.72 992.45 2019-10-13 06:22:24
46130 18.18 59.70 11.67 77.22 992.48 2019-10-13 06:21:24
46129 18.18 59.73 11.60 76.89 992.46 2019-10-13 06:20:24
46128 18.19 59.66 11.59 73.57 992.35 2019-10-13 06:18:19
46127 18.18 59.69 12.09 72.15 992.32 2019-10-13 06:17:19
46126 18.19 59.69 12.04 72.37 992.33 2019-10-13 06:16:18
46125 18.17 59.68 12.06 72.43 992.33 2019-10-13 06:15:18
46124 18.19 59.66 11.94 72.64 992.33 2019-10-13 06:14:18
46123 18.19 59.67 11.99 72.68 992.32 2019-10-13 06:13:18
46122 18.17 59.70 12.00 72.52 992.35 2019-10-13 06:12:18
46121 18.19 59.70 12.04 72.43 992.30 2019-10-13 06:11:18
46120 18.20 59.68 12.08 72.14 992.32 2019-10-13 06:10:18
46119 18.20 59.68 12.10 72.03 992.31 2019-10-13 06:09:18
46118 18.18 59.75 12.11 72.04 992.29 2019-10-13 06:08:18
46117 18.19 59.72 12.10 72.10 992.29 2019-10-13 06:07:18
46116 18.19 59.75 12.12 72.20 992.29 2019-10-13 06:06:18
46115 18.18 59.77 12.13 72.30 992.29 2019-10-13 06:05:17
46114 18.20 59.71 12.04 72.72 992.35 2019-10-13 06:03:17
46113 18.19 59.76 12.08 72.85 992.34 2019-10-13 06:02:17
46112 18.19 59.79 12.08 73.20 992.37 2019-10-13 06:01:17
46111 18.19 59.79 12.01 73.46 992.34 2019-10-13 06:00:17
46110 18.19 59.81 12.06 73.33 992.34 2019-10-13 05:59:17
46109 18.19 59.84 11.86 73.89 992.31 2019-10-13 05:58:17
46108 18.20 59.84 11.70 73.91 992.35 2019-10-13 05:57:16
46107 18.21 59.70 11.95 73.36 992.34 2019-10-13 05:56:16
46106 18.22 59.81 12.00 73.38 992.34 2019-10-13 05:55:16
46105 18.21 59.80 12.07 73.25 992.29 2019-10-13 05:54:16
46104 18.19 59.83 12.08 73.49 992.31 2019-10-13 05:53:16
46103 18.19 59.85 12.01 73.89 992.35 2019-10-13 05:52:16
46102 18.20 59.84 11.84 74.31 992.33 2019-10-13 05:51:16
46101 18.21 59.77 11.83 73.87 992.32 2019-10-13 05:50:16
46100 18.18 59.89 11.95 73.52 992.36 2019-10-13 05:48:11
46099 18.18 59.85 12.26 72.80 992.36 2019-10-13 05:47:11
46098 18.18 59.88 12.16 73.07 992.39 2019-10-13 05:46:11
46097 18.19 59.85 12.21 72.91 992.40 2019-10-13 05:45:10
46096 18.19 59.80 12.20 72.98 992.41 2019-10-13 05:44:10
46095 18.19 59.83 12.23 72.99 992.42 2019-10-13 05:43:10
46094 18.18 59.81 12.19 73.17 992.43 2019-10-13 05:42:10
46093 18.20 59.80 12.14 73.31 992.42 2019-10-13 05:41:10
46092 18.19 59.81 12.23 73.10 992.44 2019-10-13 05:40:10
46091 18.19 59.84 12.30 72.96 992.46 2019-10-13 05:39:10
46090 18.22 59.78 12.33 72.99 992.48 2019-10-13 05:38:10
46089 18.23 59.75 12.33 72.98 992.49 2019-10-13 05:37:10
46088 18.24 59.62 12.37 72.99 992.51 2019-10-13 05:36:10
46087 18.25 59.58 12.43 72.94 992.50 2019-10-13 05:35:10
46086 18.23 59.65 12.48 72.95 992.50 2019-10-13 05:34:09
46085 18.23 59.60 12.50 72.98 992.54 2019-10-13 05:33:09
46084 18.23 59.62 12.50 72.96 992.51 2019-10-13 05:32:09
46083 18.23 59.62 12.49 73.04 992.51 2019-10-13 05:31:09
46082 18.23 59.56 12.40 73.27 992.50 2019-10-13 05:30:09
46081 18.24 59.56 12.49 73.01 992.49 2019-10-13 05:29:09
46080 18.25 59.50 12.51 72.91 992.46 2019-10-13 05:28:09
46079 18.24 59.53 12.49 72.96 992.46 2019-10-13 05:27:09
46078 18.23 59.57 12.48 72.95 992.48 2019-10-13 05:26:09
46077 18.23 59.58 12.46 72.83 992.53 2019-10-13 05:25:09
46076 18.25 59.57 12.59 72.58 992.53 2019-10-13 05:24:09
46075 18.24 59.58 12.56 72.76 992.57 2019-10-13 05:23:08
46074 18.24 59.59 12.51 72.85 992.54 2019-10-13 05:22:08
46073 18.23 59.62 12.57 72.79 992.56 2019-10-13 05:21:08
46072 18.23 59.63 12.56 72.83 992.53 2019-10-13 05:20:08
46071 18.23 59.59 12.44 73.47 992.49 2019-10-13 05:16:58
46070 18.24 59.58 12.49 73.23 992.52 2019-10-13 05:15:58
46069 18.23 59.60 12.46 73.27 992.48 2019-10-13 05:14:58
46068 18.23 59.56 12.46 73.16 992.46 2019-10-13 05:13:58
46067 18.23 59.57 12.51 73.12 992.43 2019-10-13 05:12:58
46066 18.22 59.62 12.55 73.02 992.44 2019-10-13 05:11:58
46065 18.21 59.63 12.56 73.07 992.40 2019-10-13 05:10:58
46064 18.22 59.63 12.58 73.06 992.38 2019-10-13 05:09:57
46063 18.24 59.59 12.64 73.04 992.40 2019-10-13 05:08:57
46062 18.24 59.58 12.61 73.18 992.40 2019-10-13 05:07:57
46061 18.26 59.47 12.60 73.18 992.36 2019-10-13 05:06:57
46060 18.27 59.38 12.66 73.14 992.44 2019-10-13 05:05:57
46059 18.24 59.41 12.64 73.38 992.42 2019-10-13 05:04:57
46058 18.26 59.35 12.55 73.52 992.43 2019-10-13 05:03:57
46057 18.25 59.40 12.71 73.18 992.46 2019-10-13 05:02:56
46056 18.24 59.41 12.71 73.20 992.39 2019-10-13 05:01:56
46055 18.23 59.42 12.75 73.15 992.42 2019-10-13 05:00:56
46054 18.25 59.36 12.76 73.16 992.41 2019-10-13 04:59:56
46053 18.25 59.37 12.84 73.14 992.35 2019-10-13 04:58:56
46052 18.25 59.38 12.83 73.25 992.37 2019-10-13 04:57:56
46051 18.25 59.39 12.73 73.55 992.38 2019-10-13 04:56:56
46050 18.25 59.35 12.75 73.53 992.42 2019-10-13 04:55:56
46049 18.26 59.37 12.73 73.75 992.39 2019-10-13 04:54:56
46048 18.26 59.38 12.65 74.03 992.40 2019-10-13 04:53:56
46047 18.24 59.41 12.49 74.04 992.47 2019-10-13 04:52:56
46046 18.25 59.40 12.48 74.09 992.49 2019-10-13 04:51:55
46045 18.23 59.43 12.57 73.71 992.43 2019-10-13 04:50:55
46044 18.24 59.46 12.82 73.39 992.46 2019-10-13 04:49:55
46043 18.25 59.45 12.68 73.56 992.47 2019-10-13 04:48:55
46042 18.24 59.46 12.92 72.96 992.50 2019-10-13 04:46:50
46041 18.25 59.47 12.96 72.93 992.50 2019-10-13 04:45:50
46040 18.25 59.46 12.94 73.11 992.55 2019-10-13 04:44:50
46039 18.25 59.46 12.88 73.22 992.50 2019-10-13 04:43:50
46038 18.25 59.48 12.78 73.21 992.52 2019-10-13 04:42:50
46037 18.25 59.46 12.91 73.20 992.54 2019-10-13 04:41:50
46036 18.24 59.49 12.93 73.27 992.53 2019-10-13 04:40:49
46035 18.24 59.50 12.84 73.56 992.56 2019-10-13 04:39:49
46034 18.25 59.50 12.85 73.66 992.51 2019-10-13 04:38:49
46033 18.24 59.52 12.81 73.81 992.55 2019-10-13 04:37:49
46032 18.24 59.49 12.64 74.30 992.54 2019-10-13 04:36:49
46031 18.25 59.48 12.43 74.46 992.56 2019-10-13 04:35:49
46030 18.24 59.53 12.47 74.30 992.53 2019-10-13 04:34:49
46029 18.26 59.46 12.49 74.13 992.55 2019-10-13 04:33:49
46028 18.24 59.47 12.62 73.71 992.57 2019-10-13 04:32:49
46027 18.26 59.39 12.81 73.44 992.56 2019-10-13 04:31:48
46026 18.26 59.37 12.89 73.20 992.51 2019-10-13 04:30:48
46025 18.26 59.38 13.00 73.07 992.54 2019-10-13 04:29:48
46024 18.27 59.34 13.07 73.19 992.51 2019-10-13 04:28:48
46023 18.26 59.34 13.09 73.27 992.53 2019-10-13 04:27:48
46022 18.27 59.33 13.03 73.53 992.47 2019-10-13 04:26:48
46021 18.27 59.30 12.94 73.74 992.47 2019-10-13 04:25:48
46020 18.28 59.30 12.86 73.79 992.43 2019-10-13 04:24:48
46019 18.29 59.20 12.99 73.79 992.48 2019-10-13 04:23:48
46018 18.30 59.17 12.96 73.77 992.47 2019-10-13 04:22:48
46017 18.30 59.02 13.01 73.79 992.42 2019-10-13 04:21:47
46016 18.31 58.98 13.08 73.57 992.46 2019-10-13 04:20:47
46015 18.31 58.99 13.07 73.70 992.47 2019-10-13 04:19:47
46014 18.32 58.99 13.02 73.89 992.49 2019-10-13 04:18:47
46013 18.31 59.01 12.88 74.33 992.49 2019-10-13 04:16:42
46012 18.31 59.04 12.90 74.32 992.46 2019-10-13 04:15:42
46011 18.31 59.06 12.90 74.40 992.45 2019-10-13 04:14:42
46010 18.30 59.08 12.88 74.47 992.45 2019-10-13 04:13:42
46009 18.31 59.07 12.85 74.56 992.44 2019-10-13 04:12:42
46008 18.31 59.10 12.81 74.61 992.42 2019-10-13 04:11:42
46007 18.30 59.12 12.83 74.55 992.41 2019-10-13 04:10:42
46006 18.30 59.12 12.84 74.59 992.42 2019-10-13 04:09:41
46005 18.30 59.15 12.81 74.79 992.41 2019-10-13 04:08:41
46004 18.29 59.19 12.79 74.81 992.37 2019-10-13 04:07:41
46003 18.27 59.21 12.77 74.93 992.37 2019-10-13 04:06:41
46002 18.29 59.19 12.72 75.25 992.36 2019-10-13 04:05:41
46001 18.28 59.19 12.50 75.71 992.39 2019-10-13 04:04:41
46000 18.27 59.25 12.33 75.77 992.37 2019-10-13 04:03:41
45999 18.28 59.25 12.61 75.30 992.36 2019-10-13 04:02:41
45998 18.27 59.29 12.47 75.53 992.36 2019-10-13 04:01:41
45997 18.26 59.32 12.40 75.44 992.39 2019-10-13 04:00:40
45996 18.28 59.25 12.51 75.22 992.31 2019-10-13 03:59:40
45995 18.31 59.15 12.56 75.12 992.33 2019-10-13 03:58:40
45994 18.30 59.12 12.50 75.04 992.32 2019-10-13 03:57:40
45993 18.31 59.03 12.67 74.76 992.31 2019-10-13 03:56:40
45992 18.30 58.98 12.80 74.63 992.33 2019-10-13 03:55:40
45991 18.32 58.92 12.66 74.98 992.33 2019-10-13 03:54:40
45990 18.32 58.94 12.61 75.03 992.31 2019-10-13 03:53:40
45989 18.30 58.97 12.70 75.01 992.31 2019-10-13 03:52:40
45988 18.30 58.98 12.50 75.52 992.36 2019-10-13 03:51:40
45987 18.29 59.00 12.44 75.46 992.34 2019-10-13 03:50:40
45986 18.31 58.91 12.55 75.65 992.28 2019-10-13 03:49:39
45985 18.34 58.77 12.32 75.98 992.30 2019-10-13 03:48:39
45984 18.34 58.71 12.32 76.08 992.33 2019-10-13 03:46:34
45983 18.34 58.68 12.30 76.13 992.32 2019-10-13 03:45:34
45982 18.34 58.69 12.31 76.25 992.26 2019-10-13 03:44:34
45981 18.33 58.69 12.20 76.44 992.29 2019-10-13 03:43:34
45980 18.33 58.68 12.03 76.65 992.27 2019-10-13 03:42:34
45979 18.33 58.69 12.05 76.48 992.29 2019-10-13 03:41:34
45978 18.34 58.68 12.18 76.24 992.29 2019-10-13 03:40:34
45977 18.34 58.67 12.17 76.23 992.30 2019-10-13 03:39:34
45976 18.34 58.67 12.19 76.19 992.32 2019-10-13 03:38:33
45975 18.33 58.68 12.15 76.24 992.26 2019-10-13 03:37:33
45974 18.34 58.68 12.17 76.18 992.30 2019-10-13 03:36:33
45973 18.33 58.70 12.05 76.20 992.28 2019-10-13 03:35:33
45972 18.34 58.68 12.17 75.91 992.30 2019-10-13 03:34:33
45971 18.33 58.70 12.27 75.83 992.30 2019-10-13 03:33:33
45970 18.34 58.70 12.22 75.93 992.30 2019-10-13 03:32:32
45969 18.32 58.73 12.14 75.99 992.31 2019-10-13 03:31:32
45968 18.32 58.72 12.14 75.84 992.32 2019-10-13 03:30:32
45967 18.31 58.75 12.24 75.55 992.30 2019-10-13 03:29:31
45966 18.32 58.77 12.24 75.53 992.29 2019-10-13 03:28:31
45965 18.31 58.81 12.39 75.31 992.24 2019-10-13 03:27:31
45964 18.29 58.85 12.18 75.75 992.26 2019-10-13 03:26:31
45963 18.30 58.83 12.13 75.73 992.25 2019-10-13 03:25:31
45962 18.30 58.83 12.08 75.79 992.21 2019-10-13 03:24:30
45961 18.31 58.79 12.11 75.73 992.22 2019-10-13 03:23:30
45960 18.30 58.83 11.99 75.76 992.19 2019-10-13 03:22:30
45959 18.29 58.83 12.14 75.50 992.25 2019-10-13 03:21:30
45958 18.30 58.82 12.13 75.43 992.25 2019-10-13 03:20:30
45957 18.30 58.81 12.10 75.38 992.29 2019-10-13 03:19:30
45956 18.29 58.84 12.14 75.17 992.29 2019-10-13 03:18:29
45955 18.32 58.81 12.23 74.72 992.34 2019-10-13 03:16:24
45954 18.33 58.73 12.25 74.47 992.34 2019-10-13 03:15:24
45953 18.34 58.69 12.30 74.04 992.33 2019-10-13 03:14:23
45952 18.34 58.60 12.54 73.63 992.31 2019-10-13 03:13:23
45951 18.35 58.56 12.47 73.31 992.32 2019-10-13 03:12:23
45950 18.34 58.59 12.81 72.64 992.28 2019-10-13 03:11:23
45949 18.35 58.58 12.85 72.69 992.35 2019-10-13 03:10:23
45948 18.35 58.58 12.78 72.90 992.30 2019-10-13 03:09:23
45947 18.36 58.56 12.82 73.03 992.34 2019-10-13 03:08:22
45946 18.35 58.57 12.66 73.55 992.30 2019-10-13 03:07:22
45945 18.35 58.57 12.56 73.87 992.30 2019-10-13 03:06:22
45944 18.35 58.57 12.55 73.99 992.31 2019-10-13 03:05:21
45943 18.35 58.58 12.36 74.24 992.29 2019-10-13 03:04:21
45942 18.35 58.57 12.37 74.20 992.32 2019-10-13 03:03:21
45941 18.34 58.59 12.35 74.08 992.37 2019-10-13 03:02:21
45940 18.35 58.62 12.34 73.81 992.37 2019-10-13 03:01:21
45939 18.35 58.61 12.42 73.45 992.43 2019-10-13 03:00:21
45938 18.36 58.59 12.57 73.04 992.40 2019-10-13 02:59:20
45937 18.35 58.59 12.73 72.72 992.46 2019-10-13 02:58:20
45936 18.35 58.57 12.72 72.66 992.48 2019-10-13 02:57:20
45935 18.36 58.51 12.77 72.64 992.52 2019-10-13 02:56:20
45934 18.36 58.49 12.70 72.87 992.49 2019-10-13 02:55:20
45933 18.36 58.49 12.80 72.46 992.49 2019-10-13 02:54:20
45932 18.36 58.45 12.81 72.60 992.47 2019-10-13 02:53:20
45931 18.37 58.41 12.57 73.01 992.48 2019-10-13 02:52:20
45930 18.36 58.43 12.71 72.94 992.40 2019-10-13 02:51:20
45929 18.36 58.41 12.42 73.35 992.48 2019-10-13 02:50:20
45928 18.37 58.42 12.46 73.41 992.46 2019-10-13 02:49:20
45927 18.37 58.39 12.42 73.50 992.49 2019-10-13 02:48:19
45926 18.36 58.40 12.43 72.73 992.53 2019-10-13 02:46:14
45925 18.35 58.38 12.76 72.09 992.56 2019-10-13 02:45:14
45924 18.37 58.37 12.72 72.05 992.56 2019-10-13 02:44:14
45923 18.37 58.38 12.70 72.11 992.57 2019-10-13 02:43:14
45922 18.36 58.40 12.68 72.20 992.63 2019-10-13 02:42:14
45921 18.36 58.42 12.72 72.12 992.63 2019-10-13 02:41:14
45920 18.36 58.41 12.75 72.14 992.59 2019-10-13 02:40:14
45919 18.36 58.39 12.71 72.36 992.60 2019-10-13 02:39:14
45918 18.37 58.34 12.71 72.48 992.58 2019-10-13 02:38:14
45917 18.38 58.37 12.54 72.59 992.61 2019-10-13 02:37:13
45916 18.38 58.34 12.72 72.03 992.57 2019-10-13 02:36:13
45915 18.37 58.34 12.85 71.75 992.57 2019-10-13 02:35:13
45914 18.38 58.32 12.83 71.90 992.58 2019-10-13 02:34:13
45913 18.38 58.35 12.88 71.84 992.59 2019-10-13 02:33:13
45912 18.37 58.37 12.85 72.04 992.62 2019-10-13 02:32:13
45911 18.38 58.34 12.75 72.46 992.65 2019-10-13 02:31:13
45910 18.39 58.33 12.66 72.63 992.67 2019-10-13 02:30:13
45909 18.40 58.31 12.53 72.91 992.70 2019-10-13 02:29:13
45908 18.38 58.34 12.57 72.72 992.69 2019-10-13 02:28:13
45907 18.38 58.34 12.61 72.60 992.68 2019-10-13 02:27:12
45906 18.39 58.32 12.67 72.46 992.69 2019-10-13 02:26:12
45905 18.38 58.31 12.79 72.16 992.67 2019-10-13 02:25:12
45904 18.39 58.30 12.74 72.39 992.62 2019-10-13 02:24:12
45903 18.38 58.35 12.64 72.31 992.65 2019-10-13 02:23:12
45902 18.40 58.32 12.70 72.16 992.63 2019-10-13 02:22:12
45901 18.40 58.31 12.71 72.22 992.58 2019-10-13 02:21:12
45900 18.39 58.30 12.66 72.14 992.60 2019-10-13 02:20:12
45899 18.41 58.31 12.67 71.96 992.59 2019-10-13 02:19:12
45898 18.39 58.31 12.96 71.26 992.59 2019-10-13 02:18:12
45897 18.40 58.34 12.93 71.44 992.58 2019-10-13 02:16:07
45896 18.39 58.38 12.75 71.78 992.57 2019-10-13 02:15:06
45895 18.40 58.34 12.96 71.38 992.58 2019-10-13 02:14:06
45894 18.42 58.30 12.88 71.60 992.59 2019-10-13 02:13:06
45893 18.41 58.34 12.90 71.70 992.62 2019-10-13 02:12:06
45892 18.42 58.33 12.85 71.90 992.64 2019-10-13 02:11:06
45891 18.43 58.30 12.69 72.32 992.69 2019-10-13 02:10:06
45890 18.43 58.23 12.58 72.32 992.71 2019-10-13 02:09:06
45889 18.44 58.17 12.62 72.30 992.70 2019-10-13 02:08:06
45888 18.44 58.14 12.53 72.32 992.74 2019-10-13 02:07:06
45887 18.43 58.13 12.74 71.64 992.73 2019-10-13 02:06:06
45886 18.44 58.09 12.88 71.63 992.74 2019-10-13 02:05:06
45885 18.42 58.10 12.80 71.79 992.76 2019-10-13 02:04:05
45884 18.42 58.04 12.76 71.94 992.80 2019-10-13 02:03:05
45883 18.44 57.98 12.78 71.84 992.83 2019-10-13 02:02:05
45882 18.44 57.93 12.71 72.09 992.84 2019-10-13 02:01:05
45881 18.43 57.95 12.66 72.19 992.85 2019-10-13 02:00:05
45880 18.42 57.98 12.70 72.18 992.89 2019-10-13 01:59:05
45879 18.42 57.99 12.68 72.13 992.88 2019-10-13 01:58:05
45878 18.42 57.98 12.72 72.11 992.88 2019-10-13 01:57:05
45877 18.43 57.96 12.81 71.85 992.89 2019-10-13 01:56:05
45876 18.43 57.99 13.07 71.27 992.81 2019-10-13 01:55:05
45875 18.42 57.94 13.02 71.54 992.81 2019-10-13 01:54:04
45874 18.42 57.98 12.83 71.87 992.79 2019-10-13 01:53:04
45873 18.43 57.95 12.79 71.87 992.82 2019-10-13 01:52:04
45872 18.43 57.96 12.88 71.76 992.74 2019-10-13 01:51:04
45871 18.43 57.93 12.92 71.55 992.76 2019-10-13 01:50:04
45870 18.43 57.98 13.00 71.63 992.68 2019-10-13 01:49:04
45869 18.43 57.92 12.95 71.83 992.70 2019-10-13 01:48:04
45868 18.45 57.90 12.78 72.17 992.65 2019-10-13 01:45:59
45867 18.46 57.82 12.91 71.88 992.64 2019-10-13 01:44:59
45866 18.46 57.80 12.91 71.98 992.59 2019-10-13 01:43:59
45865 18.46 57.81 12.89 72.15 992.57 2019-10-13 01:42:59
45864 18.45 57.82 12.81 72.60 992.56 2019-10-13 01:41:58
45863 18.45 57.80 12.55 73.17 992.55 2019-10-13 01:40:58
45862 18.45 57.76 12.45 73.59 992.56 2019-10-13 01:39:58
45861 18.45 57.74 12.37 73.62 992.56 2019-10-13 01:38:58
45860 18.46 57.73 12.36 73.62 992.56 2019-10-13 01:37:58
45859 18.45 57.72 12.36 73.51 992.57 2019-10-13 01:36:58
45858 18.46 57.68 12.28 73.42 992.55 2019-10-13 01:35:58
45857 18.46 57.67 12.44 73.26 992.53 2019-10-13 01:34:58
45856 18.46 57.70 12.33 73.26 992.55 2019-10-13 01:33:58
45855 18.46 57.71 12.48 73.15 992.53 2019-10-13 01:32:58
45854 18.45 57.70 12.55 73.01 992.56 2019-10-13 01:31:58
45853 18.45 57.70 12.67 73.02 992.51 2019-10-13 01:30:57
45852 18.46 57.62 12.54 73.42 992.55 2019-10-13 01:29:57
45851 18.46 57.59 12.29 73.84 992.53 2019-10-13 01:28:57
45850 18.44 57.59 12.24 74.05 992.50 2019-10-13 01:27:57
45849 18.47 57.53 12.40 73.80 992.50 2019-10-13 01:26:57
45848 18.47 57.48 12.27 74.03 992.49 2019-10-13 01:25:57
45847 18.49 57.41 12.29 74.01 992.47 2019-10-13 01:24:57
45846 18.50 57.39 12.30 74.03 992.44 2019-10-13 01:23:57
45845 18.48 57.40 12.17 74.10 992.41 2019-10-13 01:22:57
45844 18.50 57.36 12.29 73.79 992.45 2019-10-13 01:21:57
45843 18.49 57.36 12.27 73.86 992.41 2019-10-13 01:20:56
45842 18.51 57.27 12.33 73.76 992.41 2019-10-13 01:19:56
45841 18.54 57.16 12.14 74.00 992.44 2019-10-13 01:18:56
45840 18.52 57.01 12.20 73.65 992.43 2019-10-13 01:17:56
45839 18.51 57.20 12.35 73.00 992.50 2019-10-13 01:15:51
45838 18.51 57.20 12.50 72.83 992.55 2019-10-13 01:14:51
45837 18.51 57.18 12.61 72.55 992.57 2019-10-13 01:13:51
45836 18.51 57.15 12.46 72.72 992.60 2019-10-13 01:12:51
45835 18.52 57.17 12.57 72.10 992.58 2019-10-13 01:11:51
45834 18.52 57.14 12.81 71.99 992.52 2019-10-13 01:10:51
45833 18.53 57.13 12.63 72.58 992.60 2019-10-13 01:09:51
45832 18.54 57.05 12.60 72.71 992.62 2019-10-13 01:08:50
45831 18.54 57.12 12.48 72.82 992.61 2019-10-13 01:07:50
45830 18.53 57.04 12.40 72.78 992.59 2019-10-13 01:06:50
45829 18.54 57.06 12.55 72.38 992.58 2019-10-13 01:05:50
45828 18.54 57.04 12.51 72.07 992.57 2019-10-13 01:04:50
45827 18.55 56.99 12.85 71.28 992.56 2019-10-13 01:03:50
45826 18.54 56.81 12.91 71.29 992.52 2019-10-13 01:02:50
45825 18.56 56.89 12.89 71.31 992.55 2019-10-13 01:01:50
45824 18.55 56.97 12.94 71.18 992.52 2019-10-13 01:00:50
45823 18.56 56.95 12.89 71.24 992.51 2019-10-13 00:59:49
45822 18.56 56.85 12.90 71.10 992.51 2019-10-13 00:58:49
45821 18.56 56.87 12.91 71.10 992.56 2019-10-13 00:57:49
45820 18.54 56.82 12.92 71.07 992.53 2019-10-13 00:56:49
45819 18.54 56.95 12.97 70.96 992.57 2019-10-13 00:55:49
45818 18.55 56.73 13.01 70.92 992.57 2019-10-13 00:54:49
45817 18.54 56.94 13.01 70.91 992.59 2019-10-13 00:53:49
45816 18.54 56.79 13.08 70.83 992.62 2019-10-13 00:52:49
45815 18.54 56.72 13.06 70.99 992.63 2019-10-13 00:51:49
45814 18.54 56.62 13.05 71.13 992.61 2019-10-13 00:50:49
45813 18.55 56.86 13.00 71.33 992.65 2019-10-13 00:49:49
45812 18.55 56.85 12.99 71.47 992.58 2019-10-13 00:48:49
45811 18.55 56.74 12.90 71.67 992.60 2019-10-13 00:47:48
45810 18.55 56.64 12.95 71.89 992.58 2019-10-13 00:45:43
45809 18.55 56.77 12.87 72.22 992.60 2019-10-13 00:44:43
45808 18.55 56.82 12.91 72.20 992.65 2019-10-13 00:43:43
45807 18.56 56.70 12.92 72.30 992.58 2019-10-13 00:42:43
45806 18.56 56.62 12.81 72.74 992.61 2019-10-13 00:41:43
45805 18.56 56.63 12.74 73.21 992.61 2019-10-13 00:40:43
45804 18.55 56.37 12.60 73.46 992.59 2019-10-13 00:39:43
45803 18.55 56.39 12.45 73.76 992.52 2019-10-13 00:38:43
45802 18.56 56.39 12.57 73.57 992.52 2019-10-13 00:37:43
45801 18.55 56.29 12.46 73.79 992.48 2019-10-13 00:36:42
45800 18.56 56.37 12.49 73.68 992.47 2019-10-13 00:35:42
45799 18.56 56.50 12.52 73.75 992.48 2019-10-13 00:34:42
45798 18.55 56.37 12.42 73.95 992.48 2019-10-13 00:33:42
45797 18.56 56.39 12.39 73.97 992.44 2019-10-13 00:32:42
45796 18.55 56.40 12.36 74.04 992.44 2019-10-13 00:31:42
45795 18.56 56.20 12.40 73.92 992.44 2019-10-13 00:30:42
45794 18.56 56.36 12.45 73.85 992.39 2019-10-13 00:29:42
45793 18.56 56.25 12.58 73.61 992.36 2019-10-13 00:28:42
45792 18.56 56.21 12.44 73.83 992.35 2019-10-13 00:27:41
45791 18.56 56.22 12.51 73.73 992.41 2019-10-13 00:26:41
45790 18.56 55.97 12.45 73.75 992.43 2019-10-13 00:25:41
45789 18.55 55.94 12.55 73.71 992.44 2019-10-13 00:24:41
45788 18.56 56.14 12.45 73.77 992.41 2019-10-13 00:23:41
45787 18.56 56.15 12.50 73.68 992.44 2019-10-13 00:22:41
45786 18.57 56.02 12.50 73.64 992.44 2019-10-13 00:21:41
45785 18.55 55.88 12.53 73.52 992.44 2019-10-13 00:20:41
45784 18.57 55.94 12.59 73.56 992.39 2019-10-13 00:19:40
45783 18.56 55.84 12.55 73.73 992.40 2019-10-13 00:18:40
45782 18.56 55.83 12.51 73.79 992.42 2019-10-13 00:17:40
45781 18.57 55.84 12.43 73.94 992.37 2019-10-13 00:15:35
45780 18.56 55.88 12.44 73.84 992.37 2019-10-13 00:14:35
45779 18.56 55.85 12.51 73.74 992.32 2019-10-13 00:13:35
45778 18.57 55.77 12.46 73.80 992.38 2019-10-13 00:12:35
45777 18.56 55.68 12.55 73.69 992.30 2019-10-13 00:11:34
45776 18.57 55.73 12.51 73.77 992.27 2019-10-13 00:10:34
45775 18.56 55.73 12.45 73.74 992.30 2019-10-13 00:09:34
45774 18.57 55.69 12.54 73.56 992.28 2019-10-13 00:08:34
45773 18.56 55.68 12.54 73.52 992.30 2019-10-13 00:07:34
45772 18.57 55.70 12.54 73.53 992.29 2019-10-13 00:06:34
45771 18.56 55.68 12.47 73.58 992.33 2019-10-13 00:05:34
45770 18.56 55.65 12.48 73.41 992.35 2019-10-13 00:04:53
45769 18.57 55.73 12.56 73.19 992.28 2019-10-13 00:03:29
45768 18.57 55.74 12.54 73.30 992.32 2019-10-13 00:02:29
45767 18.56 55.68 12.59 73.15 992.36 2019-10-13 00:01:29
45766 18.58 55.76 12.56 73.11 992.44 2019-10-13 00:00:28
45765 18.56 55.62 12.61 73.02 992.49 2019-10-12 23:59:28
45764 18.57 55.70 12.59 72.98 992.51 2019-10-12 23:58:28
45763 18.56 55.71 12.68 72.81 992.49 2019-10-12 23:57:28
45762 18.57 55.68 12.77 72.74 992.53 2019-10-12 23:56:28
45761 18.57 55.69 12.58 73.08 992.53 2019-10-12 23:55:28
45760 18.56 55.64 12.61 72.91 992.47 2019-10-12 23:54:28
45759 18.57 55.63 12.66 72.81 992.44 2019-10-12 23:53:28
45758 18.56 55.59 12.68 72.88 992.44 2019-10-12 23:52:28
45757 18.57 55.61 12.62 72.90 992.44 2019-10-12 23:51:27
45756 18.56 55.55 12.63 72.80 992.44 2019-10-12 23:50:27
45755 18.57 55.58 12.58 72.94 992.46 2019-10-12 23:49:27
45754 18.57 55.62 12.66 72.72 992.49 2019-10-12 23:48:27
45753 18.57 55.63 12.62 72.80 992.46 2019-10-12 23:47:27
45752 18.57 55.57 12.68 72.64 992.50 2019-10-12 23:45:22
45751 18.57 55.50 12.56 72.73 992.57 2019-10-12 23:44:22
45750 18.56 55.44 12.65 72.60 992.58 2019-10-12 23:43:22
45749 18.56 55.51 12.71 72.47 992.53 2019-10-12 23:42:22
45748 18.55 55.52 12.68 72.47 992.51 2019-10-12 23:41:22
45747 18.56 55.42 12.70 72.43 992.54 2019-10-12 23:40:22
45746 18.55 55.51 12.68 72.49 992.57 2019-10-12 23:39:21
45745 18.55 55.50 12.70 72.35 992.56 2019-10-12 23:38:21
45744 18.56 55.48 12.76 72.13 992.58 2019-10-12 23:37:21
45743 18.56 55.51 12.68 72.25 992.59 2019-10-12 23:36:21
45742 18.55 55.47 12.74 72.09 992.62 2019-10-12 23:35:21
45741 18.55 55.45 12.87 71.81 992.63 2019-10-12 23:34:21
45740 18.55 55.42 12.89 71.69 992.64 2019-10-12 23:33:21
45739 18.55 55.45 12.96 71.53 992.68 2019-10-12 23:32:21
45738 18.55 55.42 12.88 71.69 992.62 2019-10-12 23:31:21
45737 18.55 55.43 12.86 71.69 992.64 2019-10-12 23:30:21
45736 18.56 55.38 12.97 71.57 992.68 2019-10-12 23:29:20
45735 18.56 55.43 12.91 71.61 992.67 2019-10-12 23:28:20
45734 18.55 55.39 12.86 71.63 992.68 2019-10-12 23:27:20
45733 18.55 55.37 12.94 71.52 992.69 2019-10-12 23:26:20
45732 18.55 55.33 12.97 71.49 992.74 2019-10-12 23:25:20
45731 18.55 55.37 12.97 71.45 992.72 2019-10-12 23:24:20
45730 18.54 55.29 12.93 71.59 992.68 2019-10-12 23:23:20
45729 18.55 55.34 12.99 71.60 992.68 2019-10-12 23:22:20
45728 18.54 55.30 12.91 71.63 992.70 2019-10-12 23:21:20
45727 18.55 55.26 12.89 71.68 992.66 2019-10-12 23:20:20
45726 18.55 55.29 12.98 71.62 992.66 2019-10-12 23:19:20
45725 18.54 55.26 12.91 71.59 992.59 2019-10-12 23:18:19
45724 18.54 55.26 12.92 71.59 992.59 2019-10-12 23:17:19
45723 18.54 55.21 12.98 71.44 992.54 2019-10-12 23:14:09
45722 18.54 55.24 13.02 71.46 992.56 2019-10-12 23:13:09
45721 18.54 55.20 12.87 71.63 992.53 2019-10-12 23:12:09
45720 18.54 55.22 12.91 71.55 992.54 2019-10-12 23:11:09
45719 18.53 55.21 12.99 71.41 992.55 2019-10-12 23:10:09
45718 18.54 55.23 13.05 71.35 992.54 2019-10-12 23:09:09
45717 18.54 55.21 13.02 71.46 992.52 2019-10-12 23:08:09
45716 18.54 55.21 12.96 71.55 992.53 2019-10-12 23:07:09
45715 18.53 55.19 12.88 71.60 992.52 2019-10-12 23:06:09
45714 18.52 55.17 12.95 71.42 992.53 2019-10-12 23:05:08
45713 18.52 55.19 13.01 71.17 992.56 2019-10-12 23:04:08
45712 18.53 55.17 13.05 71.20 992.55 2019-10-12 23:03:08
45711 18.53 55.19 12.97 71.21 992.53 2019-10-12 23:02:08
45710 18.53 55.19 12.96 71.07 992.54 2019-10-12 23:01:08
45709 18.53 55.15 13.19 70.55 992.55 2019-10-12 23:00:08
45708 18.52 55.17 13.11 70.77 992.55 2019-10-12 22:59:08
45707 18.52 55.17 13.14 70.64 992.55 2019-10-12 22:58:08
45706 18.53 55.19 13.38 70.17 992.55 2019-10-12 22:57:08
45705 18.52 55.15 13.29 70.44 992.54 2019-10-12 22:56:08
45704 18.52 55.12 13.31 70.55 992.55 2019-10-12 22:55:08
45703 18.51 55.13 13.18 70.82 992.52 2019-10-12 22:54:07
45702 18.51 55.15 13.07 71.04 992.51 2019-10-12 22:53:07
45701 18.51 55.13 13.16 70.75 992.47 2019-10-12 22:52:07
45700 18.51 55.12 13.09 70.83 992.43 2019-10-12 22:51:07
45699 18.50 55.14 13.12 70.80 992.45 2019-10-12 22:50:07
45698 18.51 55.12 13.11 70.83 992.42 2019-10-12 22:49:07
45697 18.50 55.09 13.12 70.65 992.38 2019-10-12 22:48:07
45696 18.49 55.11 13.17 70.57 992.37 2019-10-12 22:47:07
45695 18.49 55.12 13.13 70.44 992.40 2019-10-12 22:46:07
45694 18.48 55.13 13.25 69.95 992.37 2019-10-12 22:44:02
45693 18.48 55.10 13.31 69.70 992.42 2019-10-12 22:43:02
45692 18.48 55.12 13.57 69.08 992.42 2019-10-12 22:42:02
45691 18.48 55.12 13.43 69.30 992.46 2019-10-12 22:41:01
45690 18.47 55.11 13.64 69.16 992.42 2019-10-12 22:40:01
45689 18.47 55.13 13.45 69.39 992.46 2019-10-12 22:39:01
45688 18.47 55.12 13.47 69.32 992.41 2019-10-12 22:38:01
45687 18.46 55.13 13.58 69.30 992.42 2019-10-12 22:37:01
45686 18.46 55.14 13.36 69.46 992.41 2019-10-12 22:36:01
45685 18.46 55.15 13.41 69.38 992.46 2019-10-12 22:35:01
45684 18.46 55.15 13.52 69.12 992.46 2019-10-12 22:34:01
45683 18.45 55.18 13.61 69.07 992.47 2019-10-12 22:33:01
45682 18.46 55.22 13.59 68.88 992.44 2019-10-12 22:32:01
45681 18.45 55.15 13.54 68.77 992.44 2019-10-12 22:31:00
45680 18.44 55.20 13.65 68.23 992.48 2019-10-12 22:30:00
45679 18.43 55.22 13.62 68.17 992.47 2019-10-12 22:29:00
45678 18.42 55.23 13.97 67.44 992.45 2019-10-12 22:28:00
45677 18.43 55.24 13.92 67.60 992.47 2019-10-12 22:27:00
45676 18.42 55.26 13.90 67.68 992.49 2019-10-12 22:26:00
45675 18.42 55.24 13.90 67.59 992.49 2019-10-12 22:25:00
45674 18.41 55.27 13.92 67.66 992.52 2019-10-12 22:24:00
45673 18.40 55.28 14.02 67.47 992.51 2019-10-12 22:23:00
45672 18.39 55.33 13.97 67.72 992.51 2019-10-12 22:22:00
45671 18.38 55.36 13.98 67.83 992.56 2019-10-12 22:21:00
45670 18.37 55.39 13.85 68.12 992.53 2019-10-12 22:19:59
45669 18.36 55.41 13.83 68.08 992.54 2019-10-12 22:18:59
45668 18.36 55.40 13.96 67.90 992.51 2019-10-12 22:17:59
45667 18.35 55.46 13.82 68.12 992.49 2019-10-12 22:16:59
45666 18.34 55.48 14.03 67.64 992.52 2019-10-12 22:15:59
45665 18.32 55.58 14.06 67.58 992.48 2019-10-12 22:13:54
45664 18.31 55.52 13.98 67.84 992.47 2019-10-12 22:12:54
45663 18.29 55.55 13.85 68.20 992.48 2019-10-12 22:11:54
45662 18.27 55.55 13.61 68.59 992.45 2019-10-12 22:10:54
45661 18.25 55.63 13.79 68.38 992.45 2019-10-12 22:09:54
45660 18.23 55.77 13.51 68.50 992.41 2019-10-12 22:08:53
45659 18.20 55.91 14.02 67.55 992.38 2019-10-12 22:07:53
45658 18.19 55.89 13.83 67.72 992.35 2019-10-12 22:06:53
45657 18.16 56.05 14.04 67.54 992.37 2019-10-12 22:05:53
45656 18.13 56.04 14.11 67.42 992.36 2019-10-12 22:04:53
45655 18.10 56.11 13.99 67.74 992.32 2019-10-12 22:03:53
45654 18.06 56.14 14.07 67.49 992.34 2019-10-12 22:02:53
45653 18.12 56.72 14.01 67.57 992.32 2019-10-12 22:01:53
45652 18.08 56.03 14.21 67.06 992.34 2019-10-12 22:00:52
45651 18.08 55.99 14.17 67.13 992.34 2019-10-12 21:59:52
45650 18.08 55.99 14.20 67.29 992.36 2019-10-12 21:58:52
45649 18.09 56.01 14.09 67.68 992.33 2019-10-12 21:57:52
45648 18.09 56.03 14.18 67.56 992.34 2019-10-12 21:56:52
45647 18.09 56.04 14.13 67.73 992.37 2019-10-12 21:55:52
45646 18.09 56.01 14.07 67.86 992.31 2019-10-12 21:54:52
45645 18.09 56.03 13.90 68.25 992.29 2019-10-12 21:53:52
45644 18.09 56.04 13.90 68.41 992.29 2019-10-12 21:52:52
45643 18.10 56.03 13.70 68.90 992.23 2019-10-12 21:51:52
45642 18.09 56.03 13.73 68.85 992.19 2019-10-12 21:50:52
45641 18.11 56.01 13.86 68.54 992.18 2019-10-12 21:49:51
45640 18.09 56.05 13.92 68.62 992.18 2019-10-12 21:48:51
45639 18.09 56.04 13.59 69.25 992.11 2019-10-12 21:47:51
45638 18.10 56.02 13.62 69.07 992.12 2019-10-12 21:46:51
45637 18.11 56.01 13.68 68.77 992.10 2019-10-12 21:45:51
45636 18.10 55.98 13.75 68.89 992.09 2019-10-12 21:43:46
45635 18.11 56.00 13.67 68.89 992.03 2019-10-12 21:42:46
45634 18.10 56.01 13.80 68.71 992.03 2019-10-12 21:41:46
45633 18.11 56.00 13.68 69.00 992.04 2019-10-12 21:40:46
45632 18.10 56.00 13.77 68.79 992.05 2019-10-12 21:39:46
45631 18.10 56.02 13.75 68.83 992.07 2019-10-12 21:38:46
45630 18.11 56.01 13.77 68.83 992.00 2019-10-12 21:37:45
45629 18.11 56.00 13.76 68.84 992.01 2019-10-12 21:36:45
45628 18.11 56.01 13.69 68.99 991.99 2019-10-12 21:35:45
45627 18.10 56.00 13.76 68.91 992.00 2019-10-12 21:34:45
45626 18.10 56.01 13.66 68.94 991.97 2019-10-12 21:33:45
45625 18.11 55.96 13.81 68.73 991.99 2019-10-12 21:32:45
45624 18.11 55.97 13.74 68.92 991.94 2019-10-12 21:31:45
45623 18.12 55.96 13.73 68.88 991.92 2019-10-12 21:30:45
45622 18.11 55.97 13.78 68.91 991.93 2019-10-12 21:29:45
45621 18.11 55.94 13.74 68.95 991.94 2019-10-12 21:28:45
45620 18.12 55.95 13.70 68.99 991.90 2019-10-12 21:27:45
45619 18.12 55.94 13.71 68.93 991.90 2019-10-12 21:26:44
45618 18.12 55.93 13.72 68.92 991.90 2019-10-12 21:25:44
45617 18.12 55.92 13.80 68.68 991.89 2019-10-12 21:24:44
45616 18.13 55.93 13.90 68.66 991.88 2019-10-12 21:23:44
45615 18.12 55.93 13.80 68.63 991.93 2019-10-12 21:22:44
45614 18.13 55.93 13.84 68.68 991.90 2019-10-12 21:21:44
45613 18.12 55.93 13.90 68.42 991.88 2019-10-12 21:20:44
45612 18.13 55.92 13.96 68.35 991.89 2019-10-12 21:19:44
45611 18.13 55.91 14.02 68.27 991.96 2019-10-12 21:18:44
45610 18.13 55.91 13.92 68.48 991.95 2019-10-12 21:17:44
45609 18.13 55.91 13.85 68.57 991.93 2019-10-12 21:16:43
45608 18.13 55.91 13.91 68.59 991.96 2019-10-12 21:15:43
45607 18.13 55.87 13.85 68.74 991.90 2019-10-12 21:13:38
45606 18.14 55.88 13.88 68.71 991.79 2019-10-12 21:12:38
45605 18.14 55.85 13.91 68.46 991.81 2019-10-12 21:11:38
45604 18.15 55.84 13.97 68.35 991.82 2019-10-12 21:10:38
45603 18.15 55.82 13.97 68.35 991.81 2019-10-12 21:09:38
45602 18.14 55.83 14.03 68.24 991.81 2019-10-12 21:08:38
45601 18.15 55.83 13.99 68.46 991.78 2019-10-12 21:07:37
45600 18.15 55.81 14.02 68.35 991.76 2019-10-12 21:06:37
45599 18.15 55.83 14.12 68.29 991.72 2019-10-12 21:05:37
45598 18.15 55.79 13.93 68.57 991.73 2019-10-12 21:04:37
45597 18.15 55.81 13.98 68.40 991.72 2019-10-12 21:03:37
45596 18.15 55.80 14.09 68.13 991.74 2019-10-12 21:02:37
45595 18.16 55.80 14.11 68.08 991.73 2019-10-12 21:01:37
45594 18.16 55.81 14.14 68.09 991.74 2019-10-12 21:00:37
45593 18.15 55.81 14.17 67.99 991.76 2019-10-12 20:59:37
45592 18.16 55.78 14.17 67.88 991.78 2019-10-12 20:58:37
45591 18.16 55.79 14.19 67.89 991.79 2019-10-12 20:57:36
45590 18.16 55.76 14.26 67.69 991.78 2019-10-12 20:56:36
45589 18.16 55.78 14.32 67.50 991.79 2019-10-12 20:55:36
45588 18.17 55.75 14.27 67.57 991.81 2019-10-12 20:54:36
45587 18.17 55.73 14.34 67.45 991.78 2019-10-12 20:53:36
45586 18.18 55.73 14.33 67.50 991.79 2019-10-12 20:52:36
45585 18.17 55.73 14.41 67.31 991.81 2019-10-12 20:51:36
45584 18.18 55.70 14.42 67.31 991.80 2019-10-12 20:50:36
45583 18.19 55.70 14.40 67.36 991.80 2019-10-12 20:49:36
45582 18.18 55.70 14.43 67.49 991.78 2019-10-12 20:48:36
45581 18.18 55.70 14.38 67.72 991.71 2019-10-12 20:47:36
45580 18.19 55.70 14.35 67.84 991.75 2019-10-12 20:46:35
45579 18.18 55.71 14.36 67.71 991.78 2019-10-12 20:45:35
45578 18.18 55.70 14.54 67.38 991.76 2019-10-12 20:43:30
45577 18.18 55.69 14.63 67.36 991.74 2019-10-12 20:42:30
45576 18.19 55.68 14.55 67.44 991.70 2019-10-12 20:41:30
45575 18.18 55.68 14.57 67.53 991.73 2019-10-12 20:40:30
45574 18.18 55.69 14.53 67.56 991.71 2019-10-12 20:39:30
45573 18.19 55.66 14.67 67.31 991.76 2019-10-12 20:38:30
45572 18.18 55.66 14.71 67.44 991.73 2019-10-12 20:37:30
45571 18.19 55.63 14.73 67.46 991.74 2019-10-12 20:36:30
45570 18.19 55.63 14.71 67.44 991.71 2019-10-12 20:35:30
45569 18.20 55.62 14.77 67.37 991.68 2019-10-12 20:34:29
45568 18.19 55.62 14.76 67.49 991.68 2019-10-12 20:33:29
45567 18.21 55.60 14.79 67.38 991.60 2019-10-12 20:32:29
45566 18.20 55.60 14.72 67.52 991.63 2019-10-12 20:31:29
45565 18.20 55.61 14.78 67.42 991.62 2019-10-12 20:30:29
45564 18.20 55.59 14.87 67.33 991.59 2019-10-12 20:29:29
45563 18.18 55.65 14.82 67.58 991.51 2019-10-12 20:28:29
45562 18.24 55.49 14.87 67.50 991.50 2019-10-12 20:27:29
45561 18.23 55.51 14.91 67.48 991.49 2019-10-12 20:26:29
45560 18.22 55.51 14.98 67.51 991.48 2019-10-12 20:25:29
45559 18.23 55.49 14.96 67.67 991.51 2019-10-12 20:24:28
45558 18.23 55.49 14.91 67.83 991.52 2019-10-12 20:23:28
45557 18.23 55.49 14.93 67.72 991.51 2019-10-12 20:22:28
45556 18.23 55.48 15.06 67.41 991.49 2019-10-12 20:21:28
45555 18.24 55.46 15.09 67.40 991.46 2019-10-12 20:20:28
45554 18.23 55.47 15.20 67.52 991.38 2019-10-12 20:19:28
45553 18.24 55.46 15.08 67.72 991.34 2019-10-12 20:18:28
45552 18.23 55.45 15.12 67.67 991.37 2019-10-12 20:17:28
45551 18.23 55.44 15.19 67.52 991.34 2019-10-12 20:16:28
45550 18.23 55.43 15.18 67.54 991.30 2019-10-12 20:15:27
45549 18.24 55.41 15.26 67.47 991.29 2019-10-12 20:13:22
45548 18.25 55.39 15.32 67.37 991.29 2019-10-12 20:12:22
45547 18.25 55.38 15.24 67.36 991.33 2019-10-12 20:11:22
45546 18.25 55.37 15.33 67.22 991.33 2019-10-12 20:10:22
45545 18.25 55.34 15.41 66.99 991.24 2019-10-12 20:09:22
45544 18.26 55.33 15.42 66.89 991.29 2019-10-12 20:08:22
45543 18.26 55.34 15.47 66.85 991.23 2019-10-12 20:07:22
45542 18.26 55.32 15.46 66.89 991.22 2019-10-12 20:06:22
45541 18.26 55.32 15.50 66.82 991.24 2019-10-12 20:05:21
45540 18.27 55.30 15.53 66.81 991.17 2019-10-12 20:04:21
45539 18.27 55.29 15.52 66.70 991.14 2019-10-12 20:03:21
45538 18.27 55.28 15.55 66.78 991.17 2019-10-12 20:02:21
45537 18.27 55.27 15.56 66.78 991.16 2019-10-12 20:01:21
45536 18.28 55.25 15.60 66.60 991.10 2019-10-12 20:00:21
45535 18.27 55.24 15.53 66.74 991.14 2019-10-12 19:59:21
45534 18.27 55.23 15.61 66.86 991.19 2019-10-12 19:58:21
45533 18.27 55.25 15.59 66.96 991.16 2019-10-12 19:57:21
45532 18.27 55.23 15.68 66.84 991.13 2019-10-12 19:56:21
45531 18.28 55.23 15.70 66.79 991.09 2019-10-12 19:55:20
45530 18.27 55.23 15.74 66.79 991.09 2019-10-12 19:54:20
45529 18.27 55.23 15.81 66.93 991.04 2019-10-12 19:53:20
45528 18.27 55.22 15.78 67.11 991.06 2019-10-12 19:52:20
45527 18.28 55.18 15.79 67.27 991.06 2019-10-12 19:51:20
45526 18.28 55.18 15.86 67.20 991.06 2019-10-12 19:50:20
45525 18.28 55.18 15.80 67.23 991.06 2019-10-12 19:49:20
45524 18.28 55.17 15.80 67.22 991.05 2019-10-12 19:48:20
45523 18.28 55.17 15.92 66.92 991.01 2019-10-12 19:47:20
45522 18.29 55.14 16.02 66.70 991.01 2019-10-12 19:46:20
45521 18.29 55.14 15.98 66.81 990.93 2019-10-12 19:45:20
45520 18.30 55.13 16.12 66.49 990.99 2019-10-12 19:43:15
45519 18.29 55.12 16.13 66.69 990.99 2019-10-12 19:42:14
45518 18.30 55.12 16.21 66.65 990.97 2019-10-12 19:41:14
45517 18.30 55.12 16.23 66.78 990.98 2019-10-12 19:40:14
45516 18.29 55.11 16.22 66.82 990.99 2019-10-12 19:39:14
45515 18.30 55.10 16.31 66.78 990.95 2019-10-12 19:38:14
45514 18.30 55.10 16.41 66.60 990.98 2019-10-12 19:37:14
45513 18.30 55.10 16.50 66.59 990.96 2019-10-12 19:36:14
45512 18.30 55.12 16.52 66.60 990.96 2019-10-12 19:35:14
45511 18.31 55.09 16.59 66.54 990.96 2019-10-12 19:34:14
45510 18.29 55.10 16.57 66.67 990.98 2019-10-12 19:33:14
45509 18.30 55.08 16.63 66.67 990.94 2019-10-12 19:32:13
45508 18.31 55.07 16.60 66.75 990.94 2019-10-12 19:31:13
45507 18.30 55.08 16.61 66.67 990.97 2019-10-12 19:30:13
45506 18.30 55.08 16.68 66.48 990.94 2019-10-12 19:29:13
45505 18.31 55.06 16.75 66.41 990.89 2019-10-12 19:28:13
45504 18.30 55.06 16.69 66.56 990.85 2019-10-12 19:27:13
45503 18.31 55.03 16.85 66.26 990.84 2019-10-12 19:26:13
45502 18.31 55.07 16.80 66.47 990.79 2019-10-12 19:25:13
45501 18.31 55.04 16.80 66.52 990.78 2019-10-12 19:24:13
45500 18.32 55.03 16.79 66.56 990.75 2019-10-12 19:23:13
45499 18.31 55.04 16.81 66.59 990.74 2019-10-12 19:22:12
45498 18.31 55.06 16.81 66.58 990.70 2019-10-12 19:21:12
45497 18.31 55.04 16.84 66.48 990.71 2019-10-12 19:20:12
45496 18.32 55.02 16.84 66.41 990.69 2019-10-12 19:19:12
45495 18.32 55.04 16.86 66.39 990.69 2019-10-12 19:18:12
45494 18.33 54.98 16.93 66.28 990.66 2019-10-12 19:17:12
45493 18.34 54.96 16.95 66.05 990.66 2019-10-12 19:16:12
45492 18.35 54.95 17.03 65.87 990.62 2019-10-12 19:15:12
45491 18.34 54.95 17.09 65.50 990.60 2019-10-12 19:13:06
45490 18.32 54.99 17.08 65.41 990.56 2019-10-12 19:12:06
45489 18.33 54.92 17.14 65.16 990.60 2019-10-12 19:11:06
45488 18.33 54.96 17.20 64.90 990.56 2019-10-12 19:10:06
45487 18.35 54.92 17.28 64.65 990.54 2019-10-12 19:09:06
45486 18.35 54.90 17.33 64.41 990.55 2019-10-12 19:08:06
45485 18.35 54.91 17.37 64.19 990.55 2019-10-12 19:07:06
45484 18.35 54.90 17.42 63.98 990.49 2019-10-12 19:06:05
45483 18.34 54.90 17.47 63.85 990.50 2019-10-12 19:05:05
45482 18.35 54.88 17.48 63.65 990.47 2019-10-12 19:04:05
45481 18.35 54.87 17.58 63.40 990.49 2019-10-12 19:03:05
45480 18.36 54.86 17.56 63.42 990.50 2019-10-12 19:02:05
45479 18.37 54.87 17.60 63.32 990.50 2019-10-12 19:01:05
45478 18.36 54.88 17.64 63.10 990.54 2019-10-12 19:00:05
45477 18.36 54.89 17.67 63.05 990.44 2019-10-12 18:59:04
45476 18.36 54.88 17.62 63.00 990.49 2019-10-12 18:58:04
45475 18.37 54.85 17.73 62.67 990.47 2019-10-12 18:57:04
45474 18.37 54.84 17.72 62.60 990.46 2019-10-12 18:56:04
45473 18.37 54.84 17.73 62.54 990.45 2019-10-12 18:55:04
45472 18.39 54.80 17.83 62.05 990.43 2019-10-12 18:54:03
45471 18.39 54.78 17.91 61.70 990.41 2019-10-12 18:53:03
45470 18.38 54.80 17.85 61.87 990.37 2019-10-12 18:52:03
45469 18.39 54.76 17.85 61.78 990.33 2019-10-12 18:51:03
45468 18.39 54.75 17.85 61.68 990.37 2019-10-12 18:50:03
45467 18.40 54.78 17.85 61.48 990.38 2019-10-12 18:49:03
45466 18.41 54.74 17.93 61.07 990.39 2019-10-12 18:48:03
45465 18.41 54.72 17.98 60.75 990.36 2019-10-12 18:47:03
45464 18.42 54.72 18.07 60.13 990.35 2019-10-12 18:46:03
45463 18.42 54.73 18.09 59.82 990.35 2019-10-12 18:45:02
45462 18.42 54.70 18.22 58.69 990.30 2019-10-12 18:42:57
45461 18.43 54.67 18.32 58.08 990.24 2019-10-12 18:41:57
45460 18.43 54.64 18.41 57.39 990.20 2019-10-12 18:40:57
45459 18.45 54.62 18.44 57.32 990.19 2019-10-12 18:39:57
45458 18.45 54.57 18.49 57.19 990.20 2019-10-12 18:38:57
45457 18.45 54.59 18.58 56.90 990.16 2019-10-12 18:37:57
45456 18.46 54.56 18.61 56.67 990.17 2019-10-12 18:36:57
45455 18.46 54.51 18.55 56.69 990.20 2019-10-12 18:35:57
45454 18.47 54.52 18.55 56.40 990.13 2019-10-12 18:34:57
45453 18.47 54.49 18.42 56.56 990.12 2019-10-12 18:33:57
45452 18.47 54.51 18.45 56.19 990.12 2019-10-12 18:32:56
45451 18.48 54.45 18.48 55.68 990.06 2019-10-12 18:31:56
45450 18.48 54.44 18.48 55.45 990.10 2019-10-12 18:30:56
45449 18.47 54.44 18.64 55.16 990.12 2019-10-12 18:29:56
45448 18.48 54.51 18.58 54.74 990.10 2019-10-12 18:28:56
45447 18.48 54.42 18.52 55.19 990.10 2019-10-12 18:27:56
45446 18.50 54.41 18.62 54.50 990.11 2019-10-12 18:26:56
45445 18.50 54.46 18.60 54.51 990.10 2019-10-12 18:25:56
45444 18.50 54.51 18.61 54.33 990.09 2019-10-12 18:24:56
45443 18.48 54.46 18.52 54.59 990.07 2019-10-12 18:23:56
45442 18.54 54.23 18.46 54.59 990.04 2019-10-12 18:22:55
45441 18.54 54.24 18.50 54.35 990.11 2019-10-12 18:21:55
45440 18.54 54.23 18.61 54.15 990.11 2019-10-12 18:20:55
45439 18.55 54.18 18.61 54.12 990.09 2019-10-12 18:19:55
45438 18.57 54.12 18.72 53.79 990.09 2019-10-12 18:18:55
45437 18.57 54.11 18.75 53.71 990.09 2019-10-12 18:17:55
45436 18.57 54.05 18.81 53.72 990.03 2019-10-12 18:16:55
45435 18.58 54.02 18.86 53.82 990.06 2019-10-12 18:15:55
45434 18.58 54.06 19.15 54.12 990.03 2019-10-12 18:14:55
45433 18.59 53.96 18.88 53.08 990.02 2019-10-12 18:12:50
45432 18.60 53.96 18.86 53.47 989.98 2019-10-12 18:11:49
45431 18.60 53.92 18.91 53.61 989.97 2019-10-12 18:10:49
45430 18.60 53.87 19.11 53.30 990.01 2019-10-12 18:09:49
45429 18.61 53.87 19.31 52.97 989.95 2019-10-12 18:08:49
45428 18.62 53.85 19.50 52.72 989.91 2019-10-12 18:07:49
45427 18.62 53.83 19.55 52.35 989.89 2019-10-12 18:06:49
45426 18.63 53.81 19.55 51.93 989.86 2019-10-12 18:05:49
45425 18.63 53.80 19.54 51.34 989.82 2019-10-12 18:04:49
45424 18.64 53.76 19.42 50.49 989.78 2019-10-12 18:03:48
45423 18.66 53.74 19.44 50.56 989.77 2019-10-12 18:02:47
45422 18.66 53.73 19.46 50.29 989.74 2019-10-12 18:01:47
45421 18.66 53.71 19.43 50.47 989.74 2019-10-12 18:00:47
45420 18.66 53.71 19.48 51.40 989.70 2019-10-12 17:59:47
45419 18.67 53.64 19.52 51.35 989.72 2019-10-12 17:58:47
45418 18.68 53.56 19.58 51.87 989.70 2019-10-12 17:57:47
45417 18.68 53.52 19.81 51.98 989.71 2019-10-12 17:56:47
45416 18.68 53.51 19.80 52.00 989.67 2019-10-12 17:55:47
45415 18.70 53.47 19.72 52.04 989.68 2019-10-12 17:54:46
45414 18.71 53.39 19.67 49.53 989.68 2019-10-12 17:53:46
45413 18.71 53.36 19.59 53.81 989.74 2019-10-12 17:52:46
45412 18.74 53.28 19.65 54.59 989.74 2019-10-12 17:51:46
45411 18.74 53.25 19.59 54.34 989.80 2019-10-12 17:50:46
45410 18.75 53.20 19.48 53.64 989.76 2019-10-12 17:49:46
45409 18.76 53.15 19.56 54.02 989.79 2019-10-12 17:48:46
45408 18.77 53.12 19.81 54.26 989.82 2019-10-12 17:47:46
45407 18.78 53.07 19.75 54.40 989.85 2019-10-12 17:46:46
45406 18.80 53.04 19.59 53.72 989.86 2019-10-12 17:45:46
45405 18.81 53.00 19.53 54.24 989.87 2019-10-12 17:44:45
45404 18.84 52.88 19.79 53.24 989.79 2019-10-12 17:42:40
45403 18.86 52.84 19.91 52.60 989.81 2019-10-12 17:41:40
45402 18.86 52.82 19.95 52.83 989.84 2019-10-12 17:40:40
45401 18.87 52.78 19.94 53.00 989.80 2019-10-12 17:39:40
45400 18.87 52.72 19.90 51.70 989.79 2019-10-12 17:38:40
45399 18.88 52.81 19.98 51.04 989.80 2019-10-12 17:37:40
45398 18.89 52.79 19.98 51.80 989.83 2019-10-12 17:36:40
45397 18.90 52.61 19.89 52.14 989.81 2019-10-12 17:35:40
45396 18.90 52.58 19.92 52.04 989.79 2019-10-12 17:34:40
45395 18.89 52.53 19.87 51.29 989.78 2019-10-12 17:33:40
45394 18.90 52.62 19.93 50.98 989.78 2019-10-12 17:32:39
45393 18.91 52.47 19.95 50.47 989.77 2019-10-12 17:31:39
45392 18.93 52.58 19.93 50.05 989.77 2019-10-12 17:30:39
45391 18.92 52.53 19.98 49.60 989.77 2019-10-12 17:29:39
45390 18.93 52.51 20.03 48.99 989.77 2019-10-12 17:28:39
45389 18.93 52.36 20.13 48.93 989.76 2019-10-12 17:27:39
45388 18.93 52.45 20.25 47.66 989.69 2019-10-12 17:26:39
45387 18.96 52.54 20.26 48.04 989.78 2019-10-12 17:25:39
45386 18.97 52.52 20.29 47.49 989.70 2019-10-12 17:24:39
45385 18.98 52.46 20.23 47.89 989.73 2019-10-12 17:23:38
45384 18.98 52.37 20.13 48.12 989.78 2019-10-12 17:22:38
45383 18.99 52.36 20.26 47.89 989.76 2019-10-12 17:21:38
45382 19.00 52.31 20.28 47.95 989.85 2019-10-12 17:20:38
45381 19.01 52.31 20.29 48.00 989.85 2019-10-12 17:19:38
45380 19.04 52.26 20.41 47.93 989.82 2019-10-12 17:18:38
45379 19.04 52.22 20.49 47.82 989.85 2019-10-12 17:17:38
45378 19.06 52.20 20.68 48.10 989.85 2019-10-12 17:16:38
45377 19.08 52.16 20.74 47.06 989.81 2019-10-12 17:15:38
45376 19.09 52.14 20.74 46.93 989.87 2019-10-12 17:14:38
45375 19.13 52.13 20.79 47.21 989.87 2019-10-12 17:12:32
45374 19.14 52.07 20.97 46.85 989.87 2019-10-12 17:11:32
45373 19.15 52.09 20.92 47.28 989.83 2019-10-12 17:10:32
45372 19.15 52.00 20.93 46.49 989.82 2019-10-12 17:09:32
45371 19.16 52.09 20.88 46.04 989.82 2019-10-12 17:08:32
45370 19.18 52.00 20.99 45.97 989.78 2019-10-12 17:07:32
45369 19.20 52.12 21.09 45.47 989.83 2019-10-12 17:06:32
45368 19.19 52.16 21.05 46.03 989.83 2019-10-12 17:05:32
45367 19.15 52.37 21.12 45.92 989.82 2019-10-12 17:04:32
45366 19.14 52.33 21.14 45.48 989.87 2019-10-12 17:03:31
45365 19.14 52.42 21.24 44.87 989.86 2019-10-12 17:02:31
45364 19.15 52.41 21.25 45.36 989.87 2019-10-12 17:01:31
45363 19.15 52.27 21.30 44.58 989.86 2019-10-12 17:00:31
45362 19.16 52.34 21.34 44.51 989.84 2019-10-12 16:59:31
45361 19.16 52.36 21.43 44.05 989.83 2019-10-12 16:58:31
45360 19.18 52.25 21.38 44.13 989.87 2019-10-12 16:57:31
45359 19.19 52.12 21.46 44.17 989.85 2019-10-12 16:56:31
45358 19.19 52.19 21.50 43.91 989.87 2019-10-12 16:55:31
45357 19.21 52.15 21.47 44.68 989.81 2019-10-12 16:54:31
45356 19.22 52.05 21.55 45.70 989.82 2019-10-12 16:53:31
45355 19.23 51.93 21.52 46.92 989.78 2019-10-12 16:52:31
45354 19.24 51.88 21.54 46.59 989.78 2019-10-12 16:51:30
45353 19.25 51.85 21.60 45.49 989.81 2019-10-12 16:50:30
45352 19.26 51.68 21.68 45.78 989.76 2019-10-12 16:49:30
45351 19.28 51.44 21.70 45.47 989.72 2019-10-12 16:48:30
45350 19.27 51.34 21.71 46.37 989.76 2019-10-12 16:47:30
45349 19.26 51.31 21.72 46.03 989.80 2019-10-12 16:46:30
45348 19.26 51.21 21.66 45.01 989.79 2019-10-12 16:45:30
45347 19.26 51.21 21.74 44.96 989.79 2019-10-12 16:44:30
45346 19.23 51.42 21.95 44.46 989.80 2019-10-12 16:42:25
45345 19.21 51.55 21.99 43.59 989.78 2019-10-12 16:41:25
45344 19.19 51.54 22.06 43.28 989.79 2019-10-12 16:40:25
45343 19.18 51.52 22.05 42.77 989.76 2019-10-12 16:39:24
45342 19.16 51.51 22.07 43.36 989.80 2019-10-12 16:38:24
45341 19.18 51.28 22.19 42.25 989.81 2019-10-12 16:37:24
45340 19.18 51.42 22.02 43.22 989.84 2019-10-12 16:36:24
45339 19.16 51.10 22.00 42.95 989.83 2019-10-12 16:35:24
45338 19.16 51.13 21.93 43.93 989.81 2019-10-12 16:34:24
45337 19.14 50.83 21.88 45.28 989.86 2019-10-12 16:33:24
45336 19.14 50.91 22.07 43.82 989.85 2019-10-12 16:32:24
45335 19.13 50.85 22.03 44.05 989.85 2019-10-12 16:31:23
45334 19.12 51.12 22.11 43.04 989.83 2019-10-12 16:30:23
45333 19.11 51.29 22.18 41.15 989.80 2019-10-12 16:29:22
45332 19.10 51.23 22.24 40.13 989.76 2019-10-12 16:28:22
45331 19.09 51.10 22.34 41.38 989.76 2019-10-12 16:27:22
45330 19.08 51.38 22.32 40.58 989.77 2019-10-12 16:26:22
45329 19.08 51.38 22.38 39.76 989.72 2019-10-12 16:25:22
45328 19.06 51.42 22.43 39.67 989.71 2019-10-12 16:24:21
45327 19.06 51.61 22.43 40.44 989.74 2019-10-12 16:23:21
45326 19.06 51.49 22.50 41.03 989.71 2019-10-12 16:22:21
45325 19.04 51.67 22.42 41.15 989.70 2019-10-12 16:21:21
45324 19.04 51.78 22.40 41.77 989.70 2019-10-12 16:20:21
45323 19.04 51.89 22.43 41.31 989.71 2019-10-12 16:19:21
45322 19.03 51.86 22.40 41.21 989.72 2019-10-12 16:18:21
45321 19.03 52.00 22.40 43.08 989.79 2019-10-12 16:17:20
45320 19.02 51.97 22.37 42.17 989.80 2019-10-12 16:16:20
45319 19.02 51.85 22.35 42.31 989.85 2019-10-12 16:15:20
45318 19.00 51.83 22.37 40.67 989.84 2019-10-12 16:14:20
45317 18.96 51.12 22.25 44.17 989.88 2019-10-12 16:12:15
45316 18.95 50.85 22.33 44.02 989.89 2019-10-12 16:11:15
45315 18.94 50.63 22.48 42.79 989.89 2019-10-12 16:10:15
45314 18.94 50.92 22.42 41.85 989.89 2019-10-12 16:09:15
45313 18.93 50.86 22.53 41.89 989.90 2019-10-12 16:08:21
45312 18.89 50.81 22.51 40.28 989.93 2019-10-12 16:06:05
45311 18.86 51.47 22.45 39.42 989.93 2019-10-12 16:05:03
45310 18.84 51.62 22.55 40.73 989.88 2019-10-12 16:04:03
45309 18.83 51.68 22.61 40.72 989.88 2019-10-12 16:03:03
45308 18.81 51.99 22.58 40.56 989.89 2019-10-12 16:02:03
45307 18.79 52.25 22.69 38.62 989.84 2019-10-12 16:01:03
45306 18.77 52.58 22.74 38.48 989.87 2019-10-12 16:00:03
45305 18.75 52.68 22.74 39.44 989.84 2019-10-12 15:59:03
45304 18.73 52.98 22.70 40.94 989.85 2019-10-12 15:58:03
45303 18.71 53.09 22.79 40.73 989.90 2019-10-12 15:57:03
45302 18.69 53.11 22.74 40.34 989.89 2019-10-12 15:56:03
45301 18.68 53.39 22.67 40.18 989.88 2019-10-12 15:55:02
45300 18.63 53.58 22.64 42.31 989.87 2019-10-12 15:54:02
45299 18.60 54.05 22.75 41.34 989.89 2019-10-12 15:53:02
45298 18.56 54.47 22.68 40.40 989.91 2019-10-12 15:52:02
45297 18.51 54.94 22.57 40.44 989.92 2019-10-12 15:51:02
45296 18.46 55.15 22.43 41.99 989.92 2019-10-12 15:50:02
45295 18.41 55.29 22.47 41.62 989.98 2019-10-12 15:49:02
45294 18.36 55.35 22.46 43.15 990.00 2019-10-12 15:48:02
45293 18.32 55.40 22.44 44.66 989.97 2019-10-12 15:47:02
45292 18.30 55.57 22.36 42.16 989.99 2019-10-12 15:46:02
45291 18.26 55.46 22.29 41.83 989.99 2019-10-12 15:45:01
45290 18.28 55.43 22.27 41.52 989.97 2019-10-12 15:44:01
45289 18.28 55.40 22.35 41.27 990.01 2019-10-12 15:41:56
45288 18.29 55.39 22.47 40.22 990.01 2019-10-12 15:40:56
45287 18.30 55.37 22.48 40.57 990.01 2019-10-12 15:39:56
45286 18.29 55.37 22.52 40.26 990.03 2019-10-12 15:38:56
45285 18.29 55.37 22.47 40.15 990.02 2019-10-12 15:37:56
45284 18.30 55.34 22.41 39.67 990.00 2019-10-12 15:36:56
45283 18.30 55.34 22.33 42.46 990.02 2019-10-12 15:35:55
45282 18.29 55.34 22.38 41.57 989.98 2019-10-12 15:34:55
45281 18.31 55.29 22.45 41.23 990.01 2019-10-12 15:33:55
45280 18.31 55.32 22.42 40.70 990.08 2019-10-12 15:32:55
45279 18.31 55.29 22.44 39.72 990.05 2019-10-12 15:31:55
45278 18.32 55.27 22.45 40.88 990.10 2019-10-12 15:30:55
45277 18.32 55.27 22.39 42.74 990.14 2019-10-12 15:29:55
45276 18.34 55.24 22.33 45.49 990.14 2019-10-12 15:28:55
45275 18.34 55.23 22.25 44.76 990.14 2019-10-12 15:27:55
45274 18.34 55.21 22.36 44.01 990.11 2019-10-12 15:26:54
45273 18.35 55.19 22.35 41.56 990.15 2019-10-12 15:25:54
45272 18.35 55.19 22.35 40.79 990.15 2019-10-12 15:24:54
45271 18.36 55.15 22.16 42.85 990.16 2019-10-12 15:23:54
45270 18.37 55.14 22.03 42.72 990.23 2019-10-12 15:22:54
45269 18.36 55.14 22.08 42.19 990.18 2019-10-12 15:21:54
45268 18.37 55.15 22.20 40.44 990.15 2019-10-12 15:20:54
45267 18.37 55.13 22.20 40.77 990.20 2019-10-12 15:19:54
45266 18.37 55.12 22.26 40.68 990.18 2019-10-12 15:18:54
45265 18.37 55.12 22.15 41.24 990.24 2019-10-12 15:17:54
45264 18.38 55.11 22.13 39.68 990.25 2019-10-12 15:16:53
45263 18.39 55.10 22.27 40.08 990.15 2019-10-12 15:15:53
45262 18.38 55.11 22.13 39.69 990.20 2019-10-12 15:14:53
45261 18.40 55.09 22.03 41.82 990.22 2019-10-12 15:13:52
45260 18.40 55.07 22.33 41.35 990.18 2019-10-12 15:11:47
45259 18.40 55.06 22.26 40.48 990.19 2019-10-12 15:10:47
45258 18.41 55.05 22.26 39.87 990.18 2019-10-12 15:09:47
45257 18.42 55.05 22.29 38.48 990.20 2019-10-12 15:08:47
45256 18.41 55.05 22.31 38.37 990.17 2019-10-12 15:07:47
45255 18.41 55.03 22.19 39.54 990.21 2019-10-12 15:06:46
45254 18.42 55.07 22.24 39.92 990.20 2019-10-12 15:05:46
45253 18.42 55.01 22.24 40.87 990.25 2019-10-12 15:04:46
45252 18.43 54.99 22.11 42.59 990.33 2019-10-12 15:03:46
45251 18.43 54.99 22.14 42.18 990.31 2019-10-12 15:02:45
45250 18.44 54.99 22.19 40.39 990.30 2019-10-12 15:01:45
45249 18.44 54.97 22.05 39.40 990.34 2019-10-12 15:00:45
45248 18.44 54.98 22.06 39.15 990.33 2019-10-12 14:59:45
45247 18.44 54.98 22.10 38.56 990.28 2019-10-12 14:58:45
45246 18.44 54.98 22.10 37.89 990.34 2019-10-12 14:57:45
45245 18.45 54.97 22.13 38.90 990.32 2019-10-12 14:56:45
45244 18.45 54.97 22.15 38.07 990.31 2019-10-12 14:55:45
45243 18.45 54.97 22.18 39.80 990.32 2019-10-12 14:54:45
45242 18.45 54.95 22.07 38.94 990.34 2019-10-12 14:53:45
45241 18.46 54.95 22.07 39.80 990.32 2019-10-12 14:52:43
45240 18.46 54.94 22.07 41.06 990.33 2019-10-12 14:51:43
45239 18.47 54.92 21.92 42.17 990.38 2019-10-12 14:50:43
45238 18.47 54.91 21.89 41.79 990.37 2019-10-12 14:49:43
45237 18.47 54.92 21.78 42.70 990.33 2019-10-12 14:48:43
45236 18.47 54.91 21.76 41.82 990.33 2019-10-12 14:47:42
45235 18.48 54.88 21.75 41.76 990.33 2019-10-12 14:46:42
45234 18.48 54.91 21.93 40.13 990.36 2019-10-12 14:45:42
45233 18.47 54.91 21.85 41.66 990.36 2019-10-12 14:44:42
45232 18.47 54.94 21.92 42.21 990.36 2019-10-12 14:43:42
45231 18.48 54.93 21.97 41.98 990.38 2019-10-12 14:41:37
45230 18.47 54.94 22.03 41.26 990.39 2019-10-12 14:40:37
45229 18.48 54.92 21.98 41.25 990.34 2019-10-12 14:39:37
45228 18.48 54.94 21.86 44.77 990.37 2019-10-12 14:38:37
45227 18.48 54.91 21.71 45.40 990.37 2019-10-12 14:37:36
45226 18.49 54.92 21.63 45.05 990.35 2019-10-12 14:36:36
45225 18.48 54.90 21.64 46.82 990.37 2019-10-12 14:35:36
45224 18.49 54.90 21.69 46.27 990.37 2019-10-12 14:34:36
45223 18.49 54.91 21.71 45.82 990.37 2019-10-12 14:33:36
45222 18.50 54.92 21.70 44.84 990.37 2019-10-12 14:32:36
45221 18.50 54.88 21.70 46.54 990.37 2019-10-12 14:31:36
45220 18.50 54.90 21.74 46.32 990.35 2019-10-12 14:30:36
45219 18.50 54.89 21.72 47.50 990.38 2019-10-12 14:29:36
45218 18.51 54.89 21.63 47.47 990.42 2019-10-12 14:28:36
45217 18.52 54.89 21.61 47.06 990.40 2019-10-12 14:27:35
45216 18.51 54.89 21.65 45.46 990.39 2019-10-12 14:26:35
45215 18.52 54.88 21.77 44.00 990.37 2019-10-12 14:25:35
45214 18.51 54.88 21.73 44.35 990.40 2019-10-12 14:24:35
45213 18.51 54.87 21.75 46.17 990.41 2019-10-12 14:23:35
45212 18.53 54.87 21.75 45.44 990.35 2019-10-12 14:22:35
45211 18.53 54.88 21.61 46.62 990.36 2019-10-12 14:21:35
45210 18.53 54.86 21.61 45.16 990.38 2019-10-12 14:20:35
45209 18.53 54.84 21.65 47.50 990.38 2019-10-12 14:19:34
45208 18.54 54.82 21.57 47.00 990.42 2019-10-12 14:18:34
45207 18.54 54.80 21.58 47.15 990.43 2019-10-12 14:17:34
45206 18.55 54.80 21.56 46.49 990.42 2019-10-12 14:16:34
45205 18.55 54.79 21.49 47.54 990.43 2019-10-12 14:15:34
45204 18.56 54.78 21.56 46.37 990.43 2019-10-12 14:14:34
45203 18.57 54.75 21.58 46.33 990.47 2019-10-12 14:13:34
45202 18.57 54.71 21.60 44.93 990.49 2019-10-12 14:11:29
45201 18.59 54.69 21.59 44.36 990.50 2019-10-12 14:10:29
45200 18.59 54.68 21.49 45.12 990.50 2019-10-12 14:09:29
45199 18.59 54.66 21.49 43.85 990.48 2019-10-12 14:08:28
45198 18.59 54.66 21.54 45.75 990.52 2019-10-12 14:07:28
45197 18.59 54.66 21.57 45.29 990.52 2019-10-12 14:06:28
45196 18.59 54.64 21.65 44.28 990.50 2019-10-12 14:05:28
45195 18.60 54.64 21.31 44.80 990.47 2019-10-12 14:04:28
45194 18.61 54.62 21.30 47.43 990.50 2019-10-12 14:03:28
45193 18.60 54.63 21.47 46.57 990.48 2019-10-12 14:02:28
45192 18.61 54.59 21.60 45.33 990.50 2019-10-12 14:01:28
45191 18.61 54.58 21.32 46.31 990.51 2019-10-12 14:00:27
45190 18.62 54.58 21.40 44.68 990.50 2019-10-12 13:59:26
45189 18.62 54.56 21.40 46.54 990.55 2019-10-12 13:58:26
45188 18.62 54.56 21.47 45.43 990.53 2019-10-12 13:57:26
45187 18.63 54.56 21.42 46.40 990.53 2019-10-12 13:56:26
45186 18.63 54.54 21.49 45.26 990.54 2019-10-12 13:55:26
45185 18.63 54.54 21.58 46.72 990.59 2019-10-12 13:54:25
45184 18.63 54.53 21.41 46.05 990.54 2019-10-12 13:53:25
45183 18.64 54.52 21.35 44.41 990.55 2019-10-12 13:52:25
45182 18.64 54.53 21.44 45.44 990.61 2019-10-12 13:51:25
45181 18.63 54.53 21.62 44.50 990.56 2019-10-12 13:50:25
45180 18.63 54.53 21.26 45.98 990.54 2019-10-12 13:49:25
45179 18.63 54.54 21.24 46.77 990.55 2019-10-12 13:48:25
45178 18.63 54.54 21.23 46.20 990.59 2019-10-12 13:47:25
45177 18.63 54.54 21.21 44.09 990.56 2019-10-12 13:46:25
45176 18.63 54.55 21.35 45.04 990.58 2019-10-12 13:45:25
45175 18.63 54.53 21.25 45.64 990.61 2019-10-12 13:44:25
45174 18.63 54.52 21.25 44.61 990.64 2019-10-12 13:43:24
45173 18.63 54.52 21.23 47.68 990.64 2019-10-12 13:41:19
45172 18.65 54.51 21.25 47.29 990.66 2019-10-12 13:40:19
45171 18.63 54.54 21.31 46.03 990.63 2019-10-12 13:39:19
45170 18.64 54.52 21.26 46.68 990.69 2019-10-12 13:38:19
45169 18.65 54.46 21.20 46.36 990.72 2019-10-12 13:37:19
45168 18.66 54.46 21.28 46.60 990.74 2019-10-12 13:36:19
45167 18.66 54.47 21.51 46.61 990.73 2019-10-12 13:35:19
45166 18.66 54.49 21.53 45.73 990.74 2019-10-12 13:34:19
45165 18.66 54.46 21.54 44.50 990.79 2019-10-12 13:33:19
45164 18.67 54.46 21.69 44.64 990.79 2019-10-12 13:32:18
45163 18.67 54.46 22.04 44.70 990.81 2019-10-12 13:31:18
45162 18.67 54.46 22.13 44.95 990.83 2019-10-12 13:30:18
45161 18.66 54.48 22.15 42.73 990.84 2019-10-12 13:29:18
45160 18.67 54.42 22.09 41.85 990.82 2019-10-12 13:28:18
45159 18.67 54.46 21.84 44.13 990.80 2019-10-12 13:27:18
45158 18.67 54.50 21.86 43.40 990.79 2019-10-12 13:26:18
45157 18.66 54.45 21.58 44.53 990.76 2019-10-12 13:25:18
45156 18.67 54.46 21.42 42.83 990.78 2019-10-12 13:24:18
45155 18.68 54.44 21.53 43.68 990.85 2019-10-12 13:23:17
45154 18.68 54.44 21.97 42.69 990.80 2019-10-12 13:22:17
45153 18.68 54.43 22.15 43.48 990.85 2019-10-12 13:21:17
45152 18.67 54.46 21.93 43.80 990.89 2019-10-12 13:20:17
45151 18.67 54.45 21.84 43.05 990.90 2019-10-12 13:19:17
45150 18.66 54.46 21.86 43.74 990.91 2019-10-12 13:18:17
45149 18.66 54.46 21.57 44.98 990.88 2019-10-12 13:17:17
45148 18.65 54.50 21.61 45.40 990.91 2019-10-12 13:16:17
45147 18.64 54.52 21.98 45.10 990.95 2019-10-12 13:15:17
45146 18.65 54.47 21.65 43.96 990.94 2019-10-12 13:14:17
45145 18.65 54.47 21.25 44.24 990.90 2019-10-12 13:13:16
45144 18.64 54.51 21.87 43.31 990.94 2019-10-12 13:11:11
45143 18.64 54.53 21.67 44.59 990.92 2019-10-12 13:10:11
45142 18.62 54.50 21.33 43.06 990.95 2019-10-12 13:09:11
45141 18.62 54.57 21.32 43.65 990.93 2019-10-12 13:08:11
45140 18.61 54.55 21.43 44.21 990.98 2019-10-12 13:07:11
45139 18.61 54.57 21.19 45.22 991.00 2019-10-12 13:06:11
45138 18.59 54.60 21.10 47.44 990.99 2019-10-12 13:05:10
45137 18.59 54.60 21.25 45.87 990.98 2019-10-12 13:04:10
45136 18.58 54.62 21.12 45.47 990.98 2019-10-12 13:03:10
45135 18.58 54.61 21.07 45.95 990.98 2019-10-12 13:02:10
45134 18.58 54.62 20.98 44.57 991.03 2019-10-12 13:01:10
45133 18.57 54.64 20.97 44.34 991.02 2019-10-12 13:00:10
45132 18.56 54.64 20.83 44.17 991.05 2019-10-12 12:59:10
45131 18.55 54.69 21.22 45.64 990.98 2019-10-12 12:58:10
45130 18.54 54.70 21.11 45.14 991.01 2019-10-12 12:57:10
45129 18.54 54.71 21.06 45.03 991.03 2019-10-12 12:56:10
45128 18.53 54.73 20.81 44.61 991.06 2019-10-12 12:55:09
45127 18.52 54.77 20.88 43.65 991.07 2019-10-12 12:54:09
45126 18.51 54.79 20.69 43.79 991.11 2019-10-12 12:53:09
45125 18.49 54.82 20.54 46.09 991.10 2019-10-12 12:52:09
45124 18.49 54.83 20.58 49.38 991.14 2019-10-12 12:51:09
45123 18.48 54.83 20.53 46.39 991.17 2019-10-12 12:50:09
45122 18.47 54.87 20.49 45.11 991.21 2019-10-12 12:49:09
45121 18.46 54.87 20.52 45.66 991.23 2019-10-12 12:48:09
45120 18.46 54.87 20.63 43.65 991.20 2019-10-12 12:47:09
45119 18.44 54.96 20.66 44.73 991.17 2019-10-12 12:46:09
45118 18.42 54.95 20.66 44.50 991.14 2019-10-12 12:45:09
45117 18.43 54.96 20.72 44.24 991.14 2019-10-12 12:44:08
45116 18.43 54.95 20.45 46.23 991.19 2019-10-12 12:43:08
45115 18.42 54.98 20.43 46.55 991.21 2019-10-12 12:41:03
45114 18.42 54.98 20.39 45.77 991.22 2019-10-12 12:40:03
45113 18.40 54.99 20.28 46.10 991.25 2019-10-12 12:39:03
45112 18.40 55.00 20.39 45.99 991.22 2019-10-12 12:38:03
45111 18.38 55.02 20.41 46.37 991.28 2019-10-12 12:37:03
45110 18.39 55.02 20.38 46.09 991.30 2019-10-12 12:36:03
45109 18.38 55.03 20.21 47.01 991.28 2019-10-12 12:35:03
45108 18.37 55.05 20.24 48.14 991.30 2019-10-12 12:34:03
45107 18.36 55.10 20.30 46.37 991.28 2019-10-12 12:33:03
45106 18.34 55.12 20.33 46.15 991.33 2019-10-12 12:32:02
45105 18.33 55.13 20.40 46.81 991.30 2019-10-12 12:31:02
45104 18.32 55.15 20.18 46.22 991.27 2019-10-12 12:30:02
45103 18.30 55.18 20.19 48.30 991.29 2019-10-12 12:29:02
45102 18.30 55.18 20.32 46.87 991.30 2019-10-12 12:28:02
45101 18.27 55.23 20.28 46.39 991.30 2019-10-12 12:27:02
45100 18.28 55.20 20.43 46.46 991.31 2019-10-12 12:26:02
45099 18.26 55.27 20.34 46.95 991.32 2019-10-12 12:25:02
45098 18.25 55.29 20.21 46.79 991.32 2019-10-12 12:24:02
45097 18.23 55.29 20.32 47.43 991.32 2019-10-12 12:23:02
45096 18.22 55.34 20.50 45.11 991.29 2019-10-12 12:22:01
45095 18.22 55.35 20.34 45.59 991.33 2019-10-12 12:21:01
45094 18.20 55.38 20.22 46.33 991.29 2019-10-12 12:20:01
45093 18.19 55.43 20.26 46.62 991.28 2019-10-12 12:19:01
45092 18.18 55.46 20.29 46.17 991.33 2019-10-12 12:18:01
45091 18.17 55.46 20.31 46.43 991.33 2019-10-12 12:17:01
45090 18.16 55.50 20.24 47.82 991.35 2019-10-12 12:16:01
45089 18.15 55.50 20.26 47.03 991.32 2019-10-12 12:15:01
45088 18.13 55.53 20.22 45.39 991.32 2019-10-12 12:14:01
45087 18.13 55.56 20.16 45.99 991.33 2019-10-12 12:13:01
45086 18.10 55.63 20.51 46.01 991.38 2019-10-12 12:10:56
45085 18.09 55.64 20.20 47.11 991.32 2019-10-12 12:09:55
45084 18.07 55.66 20.15 46.64 991.32 2019-10-12 12:08:55
45083 18.06 55.67 20.26 48.22 991.46 2019-10-12 12:07:55
45082 18.04 55.71 20.25 46.96 991.40 2019-10-12 12:06:55
45081 18.03 55.75 20.31 46.87 991.44 2019-10-12 12:05:55
45080 18.02 55.75 20.21 48.93 991.43 2019-10-12 12:04:54
45079 18.01 55.80 20.45 46.85 991.45 2019-10-12 12:03:54
45078 17.99 55.84 20.42 46.66 991.42 2019-10-12 12:02:54
45077 17.98 55.81 20.13 46.35 991.45 2019-10-12 12:01:54
45076 17.96 55.86 20.58 47.59 991.45 2019-10-12 12:00:54
45075 17.95 55.88 20.52 48.02 991.48 2019-10-12 11:59:54
45074 17.95 55.93 20.36 49.90 991.46 2019-10-12 11:58:54
45073 17.93 55.93 20.42 48.00 991.44 2019-10-12 11:57:54
45072 17.93 55.96 20.37 48.63 991.47 2019-10-12 11:56:54
45071 17.91 55.97 20.02 47.34 991.44 2019-10-12 11:55:54
45070 17.89 56.00 19.89 45.92 991.46 2019-10-12 11:54:53
45069 17.88 56.01 20.08 48.73 991.48 2019-10-12 11:53:53
45068 17.87 56.06 20.13 48.84 991.45 2019-10-12 11:52:53
45067 17.86 56.08 19.81 50.77 991.48 2019-10-12 11:51:53
45066 17.85 56.09 19.94 50.29 991.48 2019-10-12 11:50:53
45065 17.83 56.12 20.00 49.27 991.49 2019-10-12 11:49:53
45064 17.83 56.12 19.99 50.20 991.49 2019-10-12 11:48:53
45063 17.81 56.16 19.94 49.29 991.52 2019-10-12 11:47:53
45062 17.80 56.18 19.93 50.27 991.45 2019-10-12 11:46:53
45061 17.79 56.21 19.85 50.49 991.51 2019-10-12 11:45:53
45060 17.78 56.24 19.93 48.54 991.47 2019-10-12 11:44:53
45059 17.76 56.25 19.90 49.66 991.50 2019-10-12 11:43:52
45058 17.75 56.27 19.90 50.27 991.50 2019-10-12 11:42:52
45057 17.72 56.33 20.15 47.81 991.48 2019-10-12 11:40:47
45056 17.71 56.37 19.84 49.39 991.53 2019-10-12 11:39:47
45055 17.70 56.41 19.95 49.01 991.55 2019-10-12 11:38:47
45054 17.69 56.42 19.73 47.56 991.54 2019-10-12 11:37:47
45053 17.68 56.45 19.99 48.24 991.52 2019-10-12 11:36:47
45052 17.66 56.46 19.93 48.38 991.55 2019-10-12 11:35:47
45051 17.65 56.48 19.79 49.92 991.53 2019-10-12 11:34:47
45050 17.64 56.49 19.76 49.80 991.54 2019-10-12 11:33:47
45049 17.64 56.52 19.78 48.68 991.54 2019-10-12 11:32:47
45048 17.63 56.56 19.67 50.14 991.57 2019-10-12 11:31:46
45047 17.61 56.58 19.52 49.54 991.60 2019-10-12 11:30:46
45046 17.60 56.61 19.51 49.52 991.59 2019-10-12 11:29:46
45045 17.59 56.63 19.39 48.58 991.57 2019-10-12 11:28:46
45044 17.58 56.65 19.61 49.32 991.58 2019-10-12 11:27:46
45043 17.57 56.66 19.53 50.01 991.58 2019-10-12 11:26:46
45042 17.56 56.70 19.57 49.95 991.60 2019-10-12 11:25:46
45041 17.55 56.72 19.50 48.68 991.60 2019-10-12 11:24:46
45040 17.53 56.74 19.50 48.55 991.60 2019-10-12 11:23:46
45039 17.53 56.76 19.49 48.13 991.58 2019-10-12 11:22:46
45038 17.51 56.79 19.62 48.69 991.58 2019-10-12 11:21:45
45037 17.49 56.82 19.77 47.78 991.56 2019-10-12 11:20:45
45036 17.48 56.83 19.55 48.59 991.57 2019-10-12 11:19:45
45035 17.48 56.86 19.46 48.78 991.59 2019-10-12 11:18:45
45034 17.47 56.88 19.47 48.87 991.62 2019-10-12 11:17:45
45033 17.45 56.90 19.40 49.01 991.62 2019-10-12 11:16:45
45032 17.44 56.93 19.27 48.30 991.65 2019-10-12 11:15:45
45031 17.43 56.95 19.45 48.31 991.66 2019-10-12 11:14:45
45030 17.41 56.97 19.46 50.82 991.62 2019-10-12 11:13:45
45029 17.40 56.98 19.44 48.51 991.64 2019-10-12 11:12:45
45028 17.37 57.06 19.20 49.60 991.68 2019-10-12 11:09:34
45027 17.36 57.08 19.26 50.06 991.67 2019-10-12 11:08:34
45026 17.35 57.09 18.97 50.33 991.70 2019-10-12 11:07:34
45025 17.34 57.10 18.93 49.88 991.67 2019-10-12 11:06:33
45024 17.32 57.13 19.05 49.18 991.72 2019-10-12 11:05:33
45023 17.32 57.13 18.99 48.18 991.72 2019-10-12 11:04:33
45022 17.30 57.15 18.91 47.49 991.68 2019-10-12 11:03:33
45021 17.30 57.17 19.14 50.69 991.70 2019-10-12 11:02:33
45020 17.30 57.19 19.26 49.16 991.70 2019-10-12 11:01:33
45019 17.28 57.20 19.04 49.74 991.71 2019-10-12 11:00:33
45018 17.27 57.21 18.83 49.57 991.69 2019-10-12 10:59:33
45017 17.27 57.22 18.93 48.81 991.71 2019-10-12 10:58:33
45016 17.26 57.22 18.92 48.50 991.72 2019-10-12 10:57:32
45015 17.25 57.26 18.76 49.33 991.70 2019-10-12 10:56:32
45014 17.24 57.28 18.78 49.46 991.70 2019-10-12 10:55:32
45013 17.23 57.30 18.78 50.90 991.75 2019-10-12 10:54:32
45012 17.22 57.31 18.68 50.78 991.73 2019-10-12 10:53:32
45011 17.21 57.33 18.47 50.33 991.78 2019-10-12 10:52:32
45010 17.19 57.35 18.73 49.85 991.74 2019-10-12 10:51:31
45009 17.20 57.37 18.85 51.88 991.76 2019-10-12 10:50:31
45008 17.19 57.41 18.81 49.66 991.70 2019-10-12 10:49:31
45007 17.17 57.44 18.70 50.97 991.70 2019-10-12 10:48:31
45006 17.17 57.44 18.68 50.17 991.75 2019-10-12 10:47:31
45005 17.16 57.47 18.67 50.74 991.72 2019-10-12 10:46:31
45004 17.15 57.49 18.66 50.37 991.73 2019-10-12 10:45:31
45003 17.15 57.54 18.57 49.32 991.76 2019-10-12 10:44:31
45002 17.14 57.57 18.48 49.19 991.74 2019-10-12 10:43:31
45001 17.13 57.60 18.44 49.45 991.73 2019-10-12 10:42:30
45000 17.12 57.63 18.28 48.54 991.75 2019-10-12 10:41:30
44999 17.11 57.69 18.79 51.07 991.74 2019-10-12 10:39:25
44998 17.09 57.73 18.81 48.73 991.77 2019-10-12 10:38:25
44997 17.08 57.78 18.65 49.36 991.83 2019-10-12 10:37:25
44996 17.07 57.81 18.46 50.06 991.74 2019-10-12 10:36:25
44995 17.06 57.85 18.28 49.37 991.78 2019-10-12 10:35:25
44994 17.06 57.86 18.12 50.61 991.76 2019-10-12 10:34:25
44993 17.05 57.90 18.54 50.58 991.76 2019-10-12 10:33:25
44992 17.04 57.92 18.38 51.00 991.72 2019-10-12 10:32:24
44991 17.03 57.96 18.28 50.22 991.74 2019-10-12 10:31:24
44990 17.03 57.98 18.28 50.85 991.74 2019-10-12 10:30:24
44989 17.01 58.03 18.30 50.91 991.72 2019-10-12 10:29:24
44988 17.00 58.05 18.08 49.91 991.70 2019-10-12 10:28:24
44987 17.00 58.06 18.08 51.80 991.73 2019-10-12 10:27:24
44986 17.00 58.09 17.97 51.25 991.76 2019-10-12 10:26:24
44985 16.99 58.12 17.86 51.08 991.69 2019-10-12 10:25:24
44984 16.98 58.15 18.07 51.48 991.73 2019-10-12 10:24:24
44983 16.97 58.18 17.88 51.15 991.74 2019-10-12 10:23:24
44982 16.96 58.21 17.86 51.74 991.73 2019-10-12 10:22:23
44981 16.95 58.25 17.39 52.81 991.74 2019-10-12 10:21:23
44980 16.94 58.27 17.71 51.68 991.76 2019-10-12 10:20:23
44979 16.94 58.29 17.77 50.87 991.73 2019-10-12 10:19:23
44978 16.94 58.32 17.71 51.98 991.78 2019-10-12 10:18:23
44977 16.93 58.35 17.78 51.86 991.77 2019-10-12 10:17:23
44976 16.93 58.37 17.75 53.39 991.74 2019-10-12 10:16:23
44975 16.91 58.41 17.49 52.64 991.76 2019-10-12 10:15:23
44974 16.90 58.43 17.57 52.95 991.77 2019-10-12 10:14:23
44973 16.90 58.45 17.57 52.92 991.74 2019-10-12 10:13:22
44972 16.88 58.49 17.61 52.19 991.73 2019-10-12 10:12:22
44971 16.89 58.52 17.76 52.68 991.74 2019-10-12 10:11:22
44970 16.86 58.55 17.81 55.11 991.71 2019-10-12 10:09:17
44969 16.86 58.58 17.74 52.89 991.75 2019-10-12 10:08:17
44968 16.85 58.63 17.55 54.13 991.72 2019-10-12 10:07:27
44967 16.84 58.66 17.58 53.84 991.71 2019-10-12 10:05:07
44966 16.83 58.67 17.44 53.99 991.74 2019-10-12 10:04:07
44965 16.83 58.69 17.35 54.40 991.76 2019-10-12 10:03:07
44964 16.82 58.73 17.47 55.30 991.74 2019-10-12 10:02:07
44963 16.81 58.76 17.52 54.25 991.69 2019-10-12 10:01:07
44962 16.80 58.79 17.54 54.14 991.72 2019-10-12 10:00:06
44961 16.79 58.81 17.53 52.96 991.73 2019-10-12 09:59:06
44960 16.79 58.86 17.50 53.17 991.71 2019-10-12 09:58:06
44959 16.78 58.88 17.63 52.79 991.72 2019-10-12 09:57:06
44958 16.77 58.90 17.57 53.10 991.68 2019-10-12 09:56:06
44957 16.77 58.93 17.72 52.82 991.71 2019-10-12 09:55:06
44956 16.76 58.96 17.67 51.31 991.73 2019-10-12 09:54:06
44955 16.76 58.99 18.20 50.56 991.73 2019-10-12 09:53:06
44954 16.75 59.01 18.74 49.94 991.72 2019-10-12 09:52:06
44953 16.75 59.04 18.92 49.07 991.68 2019-10-12 09:51:06
44952 16.74 59.08 19.37 47.64 991.67 2019-10-12 09:50:06
44951 16.72 59.12 19.78 45.84 991.65 2019-10-12 09:49:05
44950 16.73 59.13 19.94 45.22 991.63 2019-10-12 09:48:05
44949 16.71 59.19 20.58 44.31 991.66 2019-10-12 09:47:05
44948 16.71 59.19 21.00 43.30 991.63 2019-10-12 09:46:05
44947 16.72 59.18 21.05 42.81 991.63 2019-10-12 09:45:05
44946 16.70 59.23 21.83 41.03 991.67 2019-10-12 09:44:05
44945 16.70 59.25 22.41 38.62 991.64 2019-10-12 09:43:05
44944 16.70 59.28 22.57 38.33 991.64 2019-10-12 09:42:05
44943 16.69 59.30 23.15 37.84 991.69 2019-10-12 09:41:05
44942 16.68 59.34 22.16 38.88 991.59 2019-10-12 09:39:00
44941 16.66 59.39 23.47 36.65 991.64 2019-10-12 09:38:00
44940 16.65 59.42 24.01 35.34 991.63 2019-10-12 09:36:59
44939 16.64 59.44 23.39 35.64 991.57 2019-10-12 09:35:59
44938 16.64 59.44 23.37 36.20 991.66 2019-10-12 09:34:59
44937 16.64 59.46 23.95 34.27 991.61 2019-10-12 09:33:59
44936 16.64 59.47 24.27 35.01 991.61 2019-10-12 09:32:59
44935 16.63 59.49 24.20 34.86 991.57 2019-10-12 09:31:59
44934 16.63 59.48 23.38 36.71 991.65 2019-10-12 09:30:59
44933 16.63 59.50 23.34 36.67 991.62 2019-10-12 09:29:59
44932 16.62 59.52 22.56 37.49 991.62 2019-10-12 09:28:59
44931 16.61 59.54 22.42 37.47 991.64 2019-10-12 09:27:58
44930 16.60 59.55 23.14 36.96 991.67 2019-10-12 09:26:58
44929 16.59 59.60 22.26 37.80 991.63 2019-10-12 09:25:58
44928 16.57 59.61 22.63 38.13 991.63 2019-10-12 09:24:58
44927 16.58 59.59 22.40 39.27 991.64 2019-10-12 09:23:58
44926 16.58 59.60 21.53 41.15 991.59 2019-10-12 09:22:58
44925 16.58 59.60 20.29 43.69 991.64 2019-10-12 09:21:58
44924 16.57 59.62 19.00 46.74 991.72 2019-10-12 09:20:58
44923 16.57 59.63 18.33 49.42 991.69 2019-10-12 09:19:58
44922 16.57 59.64 17.19 53.19 991.64 2019-10-12 09:18:58
44921 16.56 59.64 15.85 56.96 991.64 2019-10-12 09:17:57
44920 16.55 59.67 15.07 58.96 991.64 2019-10-12 09:16:57
44919 16.55 59.70 14.36 60.86 991.67 2019-10-12 09:15:57
44918 16.54 59.73 13.62 62.31 991.70 2019-10-12 09:14:57
44917 16.53 59.75 13.38 62.57 991.66 2019-10-12 09:13:57
44916 16.53 59.76 13.03 63.34 991.63 2019-10-12 09:12:57
44915 16.53 59.74 12.67 64.21 991.66 2019-10-12 09:11:57
44914 16.54 59.74 12.80 63.73 991.57 2019-10-12 09:10:57
44913 16.52 59.77 12.63 64.73 991.59 2019-10-12 09:08:52
44912 16.52 59.79 12.12 65.57 991.57 2019-10-12 09:07:52
44911 16.52 59.79 12.20 65.88 991.54 2019-10-12 09:06:51
44910 16.52 59.81 12.26 66.46 991.51 2019-10-12 09:05:51
44909 16.52 59.84 12.12 67.48 991.56 2019-10-12 09:04:51
44908 16.53 59.83 11.86 68.75 991.57 2019-10-12 09:03:51
44907 16.52 59.86 11.73 68.99 991.56 2019-10-12 09:02:51
44906 16.52 59.88 11.64 69.04 991.55 2019-10-12 09:01:51
44905 16.51 59.91 11.50 69.11 991.57 2019-10-12 09:00:51
44904 16.49 59.96 11.36 69.05 991.54 2019-10-12 08:59:50
44903 16.48 59.99 11.38 69.38 991.55 2019-10-12 08:58:50
44902 16.48 60.01 11.28 69.52 991.52 2019-10-12 08:57:50
44901 16.49 60.01 11.25 70.32 991.54 2019-10-12 08:56:50
44900 16.48 60.02 11.02 70.45 991.49 2019-10-12 08:55:50
44899 16.47 60.06 11.10 70.87 991.53 2019-10-12 08:54:50
44898 16.48 60.02 11.04 71.17 991.48 2019-10-12 08:53:50
44897 16.48 60.01 10.96 71.17 991.45 2019-10-12 08:52:50
44896 16.50 59.99 10.79 71.30 991.45 2019-10-12 08:51:50
44895 16.49 60.04 10.68 71.58 991.45 2019-10-12 08:50:50
44894 16.48 60.05 10.59 71.83 991.45 2019-10-12 08:49:50
44893 16.47 60.08 10.56 71.89 991.40 2019-10-12 08:48:49
44892 16.48 60.06 10.63 71.76 991.37 2019-10-12 08:47:49
44891 16.49 60.06 10.44 72.30 991.37 2019-10-12 08:46:49
44890 16.48 60.09 10.34 72.23 991.37 2019-10-12 08:45:49
44889 16.49 60.12 10.43 72.09 991.37 2019-10-12 08:44:49
44888 16.48 60.12 10.33 72.01 991.36 2019-10-12 08:43:49
44887 16.47 60.16 10.33 71.69 991.39 2019-10-12 08:42:49
44886 16.47 60.19 10.30 71.51 991.47 2019-10-12 08:41:49
44885 16.46 60.20 10.31 71.62 991.43 2019-10-12 08:40:49
44884 16.46 60.25 10.17 71.89 991.40 2019-10-12 08:38:44
44883 16.45 60.30 10.17 71.92 991.34 2019-10-12 08:37:44
44882 16.45 60.30 10.05 72.18 991.36 2019-10-12 08:36:43
44881 16.45 60.31 9.91 72.07 991.33 2019-10-12 08:35:43
44880 16.45 60.30 9.95 72.24 991.26 2019-10-12 08:34:43
44879 16.46 60.33 9.70 72.82 991.34 2019-10-12 08:33:43
44878 16.45 60.31 9.75 72.88 991.35 2019-10-12 08:32:43
44877 16.45 60.32 9.67 73.40 991.39 2019-10-12 08:31:43
44876 16.45 60.36 9.57 73.87 991.36 2019-10-12 08:30:43
44875 16.45 60.36 9.53 73.94 991.36 2019-10-12 08:29:43
44874 16.45 60.36 9.40 74.12 991.36 2019-10-12 08:28:43
44873 16.45 60.37 9.31 74.30 991.32 2019-10-12 08:27:43
44872 16.45 60.36 9.08 74.33 991.34 2019-10-12 08:26:42
44871 16.45 60.39 9.29 74.07 991.31 2019-10-12 08:25:42
44870 16.45 60.39 9.23 74.15 991.36 2019-10-12 08:24:42
44869 16.46 60.40 9.18 74.31 991.33 2019-10-12 08:23:42
44868 16.45 60.42 9.13 74.29 991.35 2019-10-12 08:22:42
44867 16.45 60.42 9.03 74.42 991.29 2019-10-12 08:21:42
44866 16.46 60.42 8.93 74.56 991.32 2019-10-12 08:20:42
44865 16.47 60.42 8.97 74.42 991.35 2019-10-12 08:19:41
44864 16.47 60.43 9.02 74.39 991.34 2019-10-12 08:18:41
44863 16.46 60.44 8.88 74.63 991.33 2019-10-12 08:17:41
44862 16.47 60.45 8.73 74.79 991.33 2019-10-12 08:16:41
44861 16.46 60.48 8.72 74.55 991.29 2019-10-12 08:15:41
44860 16.46 60.46 8.78 74.46 991.29 2019-10-12 08:14:41
44859 16.47 60.45 8.79 74.47 991.28 2019-10-12 08:13:41
44858 16.46 60.48 8.79 74.52 991.26 2019-10-12 08:12:41
44857 16.46 60.47 8.65 74.60 991.30 2019-10-12 08:11:41
44856 16.47 60.50 8.63 74.50 991.34 2019-10-12 08:10:41
44855 16.47 60.53 8.72 74.21 991.28 2019-10-12 08:08:35
44854 16.48 60.53 8.67 74.27 991.27 2019-10-12 08:07:35
44853 16.48 60.53 8.62 74.43 991.24 2019-10-12 08:06:35
44852 16.47 60.58 8.51 74.53 991.28 2019-10-12 08:05:35
44851 16.48 60.54 8.46 74.47 991.26 2019-10-12 08:04:35
44850 16.47 60.55 8.39 74.48 991.25 2019-10-12 08:03:35
44849 16.48 60.57 8.52 74.26 991.23 2019-10-12 08:02:35
44848 16.48 60.55 8.48 74.30 991.22 2019-10-12 08:01:35
44847 16.48 60.58 8.46 74.16 991.25 2019-10-12 08:00:35
44846 16.48 60.58 8.39 74.33 991.23 2019-10-12 07:59:34
44845 16.49 60.57 8.25 74.72 991.22 2019-10-12 07:58:34
44844 16.49 60.60 8.16 74.52 991.24 2019-10-12 07:57:34
44843 16.49 60.60 8.20 74.42 991.21 2019-10-12 07:56:34
44842 16.49 60.59 8.23 74.43 991.21 2019-10-12 07:55:34
44841 16.50 60.59 8.21 74.66 991.18 2019-10-12 07:54:34
44840 16.49 60.60 8.06 75.02 991.15 2019-10-12 07:53:34
44839 16.49 60.60 8.08 75.01 991.19 2019-10-12 07:52:34
44838 16.50 60.59 7.92 75.38 991.16 2019-10-12 07:51:34
44837 16.51 60.59 7.52 75.78 991.12 2019-10-12 07:50:34
44836 16.50 60.61 7.83 75.20 991.17 2019-10-12 07:49:34
44835 16.52 60.60 7.62 75.21 991.18 2019-10-12 07:48:33
44834 16.53 60.57 7.91 74.95 991.13 2019-10-12 07:47:33
44833 16.53 60.59 7.54 75.74 991.06 2019-10-12 07:46:33
44832 16.54 60.58 7.68 74.58 991.13 2019-10-12 07:45:33
44831 16.52 60.65 7.94 74.31 991.25 2019-10-12 07:44:33
44830 16.53 60.63 8.00 74.41 991.17 2019-10-12 07:43:33
44829 16.54 60.61 7.83 74.53 991.16 2019-10-12 07:42:33
44828 16.54 60.61 7.95 74.32 991.20 2019-10-12 07:41:33
44827 16.55 60.63 7.96 74.19 991.16 2019-10-12 07:40:33
44826 16.53 60.70 7.72 74.67 991.11 2019-10-12 07:38:28
44825 16.54 60.66 7.93 73.87 991.13 2019-10-12 07:37:28
44824 16.56 60.64 7.93 73.86 991.15 2019-10-12 07:36:27
44823 16.54 60.65 7.91 73.80 991.16 2019-10-12 07:35:27
44822 16.55 60.66 8.15 73.21 991.09 2019-10-12 07:34:27
44821 16.55 60.68 8.14 73.28 991.08 2019-10-12 07:33:27
44820 16.55 60.67 8.08 73.45 991.11 2019-10-12 07:32:27
44819 16.57 60.68 8.05 73.47 991.17 2019-10-12 07:31:27
44818 16.57 60.73 7.83 73.67 991.15 2019-10-12 07:30:27
44817 16.56 60.78 7.84 73.21 991.19 2019-10-12 07:29:27
44816 16.58 60.79 8.22 72.65 991.08 2019-10-12 07:28:27
44815 16.54 60.97 8.05 72.73 991.08 2019-10-12 07:27:27
44814 16.54 61.04 8.15 72.66 991.11 2019-10-12 07:26:27
44813 16.57 61.13 8.26 72.36 991.09 2019-10-12 07:25:26
44812 16.57 61.20 8.16 72.67 991.09 2019-10-12 07:24:26
44811 16.58 61.09 7.92 72.95 991.05 2019-10-12 07:23:26
44810 16.58 61.08 8.28 72.10 991.02 2019-10-12 07:22:26
44809 16.57 61.18 8.31 72.01 990.96 2019-10-12 07:21:26
44808 16.56 61.22 8.45 71.67 990.98 2019-10-12 07:20:26
44807 16.54 61.35 8.37 71.88 991.04 2019-10-12 07:19:26
44806 16.51 61.36 8.35 71.87 990.99 2019-10-12 07:18:26
44805 16.51 61.42 8.37 71.87 991.00 2019-10-12 07:17:25
44804 16.51 61.50 8.38 72.03 990.97 2019-10-12 07:16:25
44803 16.50 61.49 8.24 72.53 990.95 2019-10-12 07:15:25
44802 16.50 61.62 8.18 72.24 990.98 2019-10-12 07:14:25
44801 16.50 61.70 8.20 72.10 990.94 2019-10-12 07:13:25
44800 16.50 61.89 8.29 71.88 990.99 2019-10-12 07:12:25
44799 16.48 61.90 8.31 71.80 990.95 2019-10-12 07:11:25
44798 16.49 61.84 8.35 71.72 990.97 2019-10-12 07:10:25
44797 16.49 61.86 8.50 71.17 991.00 2019-10-12 07:08:20
44796 16.50 61.87 8.52 71.23 991.02 2019-10-12 07:07:20
44795 16.49 61.87 8.53 71.14 991.01 2019-10-12 07:06:19
44794 16.50 61.88 8.56 71.17 990.99 2019-10-12 07:05:19
44793 16.49 61.85 8.54 71.39 991.02 2019-10-12 07:04:19
44792 16.49 61.83 8.51 71.41 990.97 2019-10-12 07:03:19
44791 16.50 61.81 8.43 71.71 990.93 2019-10-12 07:02:19
44790 16.51 61.79 8.52 71.46 991.00 2019-10-12 07:01:19
44789 16.52 61.71 8.52 71.51 991.03 2019-10-12 07:00:19
44788 16.51 61.73 8.45 71.74 991.00 2019-10-12 06:59:19
44787 16.51 61.73 8.28 72.02 991.01 2019-10-12 06:58:19
44786 16.52 61.70 8.49 71.36 990.99 2019-10-12 06:57:18
44785 16.53 61.68 8.43 71.63 990.95 2019-10-12 06:56:18
44784 16.54 61.74 8.47 71.18 990.93 2019-10-12 06:55:18
44783 16.53 61.76 8.54 71.08 990.97 2019-10-12 06:54:18
44782 16.55 61.80 8.63 71.04 990.94 2019-10-12 06:53:18
44781 16.50 61.91 8.46 71.29 990.88 2019-10-12 06:52:18
44780 16.52 61.89 8.76 70.60 990.94 2019-10-12 06:51:18
44779 16.51 61.83 8.73 70.64 990.89 2019-10-12 06:50:18
44778 16.53 61.87 8.81 70.84 990.93 2019-10-12 06:49:18
44777 16.51 61.90 8.75 71.20 990.93 2019-10-12 06:48:17
44776 16.53 61.83 8.61 71.63 990.88 2019-10-12 06:47:17
44775 16.52 61.84 8.36 71.95 990.82 2019-10-12 06:46:17
44774 16.52 61.84 8.67 71.26 990.84 2019-10-12 06:45:17
44773 16.52 61.84 8.68 71.14 990.81 2019-10-12 06:44:17
44772 16.51 61.84 8.67 71.24 990.77 2019-10-12 06:43:17
44771 16.51 61.84 8.71 71.16 990.71 2019-10-12 06:42:17
44770 16.52 61.86 8.73 71.19 990.76 2019-10-12 06:41:17
44769 16.53 61.84 8.75 71.33 990.74 2019-10-12 06:40:17
44768 16.52 61.86 8.56 71.60 990.73 2019-10-12 06:38:12
44767 16.53 61.86 8.69 71.38 990.71 2019-10-12 06:37:12
44766 16.53 61.88 8.62 71.52 990.71 2019-10-12 06:36:11
44765 16.53 61.87 8.76 71.29 990.70 2019-10-12 06:35:11
44764 16.53 61.87 8.74 71.29 990.68 2019-10-12 06:34:11
44763 16.54 61.83 8.83 71.14 990.69 2019-10-12 06:33:11
44762 16.53 61.83 8.84 71.13 990.69 2019-10-12 06:32:11
44761 16.53 61.80 8.88 71.05 990.70 2019-10-12 06:31:11
44760 16.53 61.80 8.90 71.03 990.64 2019-10-12 06:30:11
44759 16.54 61.83 8.92 71.11 990.66 2019-10-12 06:29:11
44758 16.54 61.81 8.87 71.32 990.66 2019-10-12 06:28:11
44757 16.54 61.83 8.81 71.63 990.65 2019-10-12 06:27:11
44756 16.54 61.79 8.60 71.88 990.67 2019-10-12 06:26:11
44755 16.54 61.80 8.85 71.33 990.66 2019-10-12 06:25:10
44754 16.53 61.80 8.83 71.36 990.68 2019-10-12 06:24:10
44753 16.54 61.78 8.86 71.31 990.59 2019-10-12 06:23:10
44752 16.54 61.83 8.82 71.53 990.56 2019-10-12 06:22:10
44751 16.53 61.80 8.79 71.50 990.55 2019-10-12 06:21:10
44750 16.53 61.79 8.67 71.83 990.55 2019-10-12 06:20:10
44749 16.53 61.80 8.90 71.13 990.50 2019-10-12 06:19:10
44748 16.54 61.79 8.93 71.12 990.50 2019-10-12 06:18:10
44747 16.54 61.72 8.93 71.32 990.50 2019-10-12 06:17:10
44746 16.54 61.76 8.87 71.54 990.49 2019-10-12 06:16:10
44745 16.55 61.71 8.74 71.98 990.52 2019-10-12 06:15:09
44744 16.54 61.73 8.52 72.30 990.50 2019-10-12 06:14:09
44743 16.54 61.74 8.79 71.55 990.46 2019-10-12 06:13:09
44742 16.54 61.72 8.77 71.82 990.47 2019-10-12 06:12:09
44741 16.54 61.73 8.67 71.77 990.49 2019-10-12 06:11:09
44740 16.55 61.70 8.72 71.79 990.48 2019-10-12 06:10:09
44739 16.55 61.64 8.69 72.14 990.47 2019-10-12 06:08:04
44738 16.55 61.69 8.64 72.10 990.47 2019-10-12 06:07:04
44737 16.55 61.69 8.71 72.19 990.44 2019-10-12 06:06:04
44736 16.54 61.67 8.49 72.81 990.48 2019-10-12 06:05:04
44735 16.55 61.71 8.50 72.43 990.47 2019-10-12 06:04:04
44734 16.55 61.80 8.73 72.27 990.49 2019-10-12 06:03:03
44733 16.56 61.74 8.54 72.73 990.48 2019-10-12 06:02:03
44732 16.56 61.74 8.39 72.96 990.53 2019-10-12 06:01:03
44731 16.56 61.78 8.03 73.28 990.58 2019-10-12 06:00:03
44730 16.56 61.81 8.39 72.64 990.62 2019-10-12 05:59:03
44729 16.56 61.83 8.84 72.01 990.62 2019-10-12 05:58:03
44728 16.55 61.80 8.59 72.43 990.59 2019-10-12 05:57:03
44727 16.54 61.80 8.87 71.95 990.65 2019-10-12 05:56:03
44726 16.56 61.81 8.87 71.94 990.60 2019-10-12 05:55:02
44725 16.57 61.77 8.73 72.31 990.63 2019-10-12 05:54:02
44724 16.56 61.76 8.72 72.32 990.65 2019-10-12 05:53:02
44723 16.56 61.77 8.69 72.46 990.60 2019-10-12 05:52:02
44722 16.55 61.82 8.85 71.92 990.59 2019-10-12 05:51:02
44721 16.56 61.81 8.97 71.89 990.65 2019-10-12 05:50:02
44720 16.56 61.83 8.81 72.29 990.64 2019-10-12 05:49:02
44719 16.56 61.78 8.87 72.37 990.66 2019-10-12 05:48:02
44718 16.56 61.78 8.67 72.74 990.64 2019-10-12 05:47:02
44717 16.56 61.78 8.55 72.68 990.66 2019-10-12 05:46:02
44716 16.55 61.79 8.93 71.97 990.65 2019-10-12 05:45:01
44715 16.56 61.81 8.90 72.03 990.67 2019-10-12 05:44:01
44714 16.56 61.76 9.07 71.82 990.66 2019-10-12 05:43:01
44713 16.55 61.72 8.98 72.15 990.64 2019-10-12 05:42:01
44712 16.56 61.74 9.01 72.05 990.62 2019-10-12 05:41:01
44711 16.56 61.70 8.90 72.38 990.59 2019-10-12 05:40:01
44710 16.57 61.69 9.02 72.13 990.64 2019-10-12 05:37:56
44709 16.57 61.69 8.79 72.51 990.66 2019-10-12 05:36:56
44708 16.57 61.64 8.94 72.23 990.68 2019-10-12 05:35:56
44707 16.56 61.64 8.91 72.27 990.65 2019-10-12 05:34:56
44706 16.56 61.68 8.87 72.30 990.62 2019-10-12 05:33:56
44705 16.57 61.64 8.92 72.22 990.67 2019-10-12 05:32:55
44704 16.57 61.68 9.01 71.85 990.76 2019-10-12 05:31:55
44703 16.56 61.67 9.14 71.65 990.68 2019-10-12 05:30:55
44702 16.57 61.68 9.03 71.90 990.69 2019-10-12 05:29:55
44701 16.56 61.67 9.00 71.57 990.69 2019-10-12 05:28:55
44700 16.55 61.66 9.18 71.41 990.71 2019-10-12 05:27:55
44699 16.56 61.63 9.03 71.63 990.69 2019-10-12 05:26:55
44698 16.56 61.60 9.23 71.24 990.69 2019-10-12 05:25:55
44697 16.56 61.65 9.24 71.19 990.69 2019-10-12 05:24:55
44696 16.56 61.57 9.15 71.28 990.67 2019-10-12 05:23:55
44695 16.55 61.56 9.32 70.89 990.73 2019-10-12 05:22:54
44694 16.56 61.50 9.29 71.06 990.68 2019-10-12 05:21:54
44693 16.55 61.52 9.32 71.06 990.71 2019-10-12 05:20:54
44692 16.54 61.52 9.30 71.07 990.73 2019-10-12 05:19:54
44691 16.55 61.54 9.23 71.15 990.72 2019-10-12 05:18:54
44690 16.54 61.54 9.31 71.07 990.68 2019-10-12 05:17:54
44689 16.55 61.52 9.34 71.11 990.70 2019-10-12 05:16:54
44688 16.55 61.52 9.30 71.29 990.70 2019-10-12 05:15:54
44687 16.55 61.49 9.29 71.50 990.70 2019-10-12 05:14:54
44686 16.55 61.47 8.97 71.99 990.67 2019-10-12 05:13:54
44685 16.55 61.50 9.13 71.26 990.71 2019-10-12 05:12:54
44684 16.55 61.49 9.40 70.92 990.67 2019-10-12 05:11:53
44683 16.55 61.46 9.28 71.04 990.66 2019-10-12 05:10:53
44682 16.55 61.45 9.42 70.91 990.65 2019-10-12 05:09:53
44681 16.55 61.45 9.42 70.99 990.61 2019-10-12 05:06:43
44680 16.56 61.45 9.43 70.98 990.63 2019-10-12 05:05:43
44679 16.56 61.43 9.42 71.04 990.63 2019-10-12 05:04:43
44678 16.56 61.45 9.48 71.03 990.65 2019-10-12 05:03:43
44677 16.56 61.40 9.44 71.19 990.63 2019-10-12 05:02:43
44676 16.55 61.40 9.44 71.24 990.60 2019-10-12 05:01:43
44675 16.56 61.41 9.42 71.47 990.60 2019-10-12 05:00:43
44674 16.55 61.40 9.35 71.79 990.54 2019-10-12 04:59:42
44673 16.55 61.38 9.30 71.98 990.61 2019-10-12 04:58:42
44672 16.56 61.38 9.17 72.16 990.61 2019-10-12 04:57:42
44671 16.57 61.32 9.12 71.76 990.61 2019-10-12 04:56:42
44670 16.57 61.33 9.52 71.07 990.64 2019-10-12 04:55:42
44669 16.56 61.30 9.51 71.07 990.63 2019-10-12 04:54:42
44668 16.57 61.28 9.48 71.23 990.59 2019-10-12 04:53:42
44667 16.56 61.28 9.54 71.29 990.63 2019-10-12 04:52:42
44666 16.57 61.24 9.44 71.50 990.57 2019-10-12 04:51:42
44665 16.56 61.25 9.38 71.71 990.59 2019-10-12 04:50:42
44664 16.56 61.22 9.44 71.44 990.58 2019-10-12 04:49:41
44663 16.57 61.18 9.49 71.34 990.56 2019-10-12 04:48:41
44662 16.57 61.19 9.48 71.38 990.56 2019-10-12 04:47:41
44661 16.57 61.19 9.38 71.55 990.61 2019-10-12 04:46:41
44660 16.57 61.15 9.50 71.25 990.60 2019-10-12 04:45:41
44659 16.57 61.19 9.54 71.11 990.61 2019-10-12 04:44:41
44658 16.57 61.16 9.57 71.08 990.60 2019-10-12 04:43:41
44657 16.56 61.20 9.57 71.13 990.59 2019-10-12 04:42:41
44656 16.57 61.20 9.54 71.22 990.59 2019-10-12 04:41:41
44655 16.57 61.18 9.57 71.13 990.55 2019-10-12 04:40:41
44654 16.58 61.20 9.56 71.16 990.55 2019-10-12 04:39:41
44653 16.57 61.17 9.60 71.16 990.54 2019-10-12 04:38:40
44652 16.58 61.14 9.58 71.32 990.55 2019-10-12 04:36:35
44651 16.57 61.14 9.60 71.41 990.54 2019-10-12 04:35:35
44650 16.58 61.13 9.58 71.54 990.53 2019-10-12 04:34:35
44649 16.58 61.13 9.55 71.74 990.51 2019-10-12 04:33:35
44648 16.57 61.18 9.49 71.95 990.49 2019-10-12 04:32:35
44647 16.58 61.18 9.37 71.99 990.49 2019-10-12 04:31:35
44646 16.57 61.18 9.58 71.81 990.47 2019-10-12 04:30:35
44645 16.57 61.15 9.54 72.08 990.44 2019-10-12 04:29:35
44644 16.57 61.17 9.45 72.39 990.46 2019-10-12 04:28:35
44643 16.57 61.18 9.38 72.62 990.47 2019-10-12 04:27:34
44642 16.58 61.16 9.44 72.26 990.43 2019-10-12 04:26:34
44641 16.58 61.19 9.60 72.02 990.46 2019-10-12 04:25:34
44640 16.58 61.21 9.60 72.18 990.47 2019-10-12 04:24:34
44639 16.58 61.18 9.47 72.64 990.50 2019-10-12 04:23:34
44638 16.58 61.18 9.57 72.36 990.49 2019-10-12 04:22:34
44637 16.58 61.19 9.62 72.40 990.50 2019-10-12 04:21:34
44636 16.58 61.19 9.48 72.96 990.53 2019-10-12 04:20:34
44635 16.59 61.17 9.62 72.50 990.50 2019-10-12 04:19:34
44634 16.59 61.21 9.53 73.12 990.55 2019-10-12 04:18:34
44633 16.59 61.23 9.38 73.55 990.56 2019-10-12 04:17:34
44632 16.59 61.22 9.23 73.80 990.54 2019-10-12 04:16:33
44631 16.59 61.19 9.17 73.91 990.60 2019-10-12 04:15:33
44630 16.60 61.20 9.23 73.57 990.61 2019-10-12 04:14:33
44629 16.60 61.21 9.17 73.98 990.63 2019-10-12 04:13:33
44628 16.59 61.19 9.18 73.58 990.66 2019-10-12 04:12:33
44627 16.61 61.19 9.22 73.48 990.67 2019-10-12 04:11:33
44626 16.59 61.18 9.17 73.74 990.68 2019-10-12 04:10:33
44625 16.60 61.13 9.11 73.39 990.65 2019-10-12 04:09:33
44624 16.59 61.12 9.47 72.79 990.58 2019-10-12 04:08:33
44623 16.60 61.11 9.16 73.10 990.62 2019-10-12 04:06:28
44622 16.59 61.14 9.43 72.47 990.61 2019-10-12 04:05:27
44621 16.58 61.10 9.44 72.55 990.58 2019-10-12 04:04:27
44620 16.59 61.10 9.20 72.81 990.53 2019-10-12 04:03:27
44619 16.59 61.09 9.49 71.97 990.52 2019-10-12 04:02:27
44618 16.58 61.11 9.56 71.76 990.56 2019-10-12 04:01:27
44617 16.59 61.11 9.61 71.57 990.52 2019-10-12 04:00:27
44616 16.59 61.09 9.49 71.89 990.55 2019-10-12 03:59:27
44615 16.58 61.08 9.31 71.96 990.51 2019-10-12 03:58:27
44614 16.58 61.09 9.56 71.38 990.51 2019-10-12 03:57:27
44613 16.59 61.05 9.64 70.63 990.48 2019-10-12 03:56:27
44612 16.59 61.04 9.81 70.61 990.50 2019-10-12 03:55:27
44611 16.59 61.03 9.77 70.74 990.46 2019-10-12 03:54:26
44610 16.59 61.02 9.54 71.42 990.49 2019-10-12 03:53:26
44609 16.59 61.01 9.55 71.40 990.51 2019-10-12 03:52:26
44608 16.59 60.97 9.35 71.49 990.49 2019-10-12 03:51:26
44607 16.59 60.98 9.54 70.97 990.51 2019-10-12 03:50:26
44606 16.59 60.92 9.71 70.27 990.50 2019-10-12 03:49:26
44605 16.61 60.94 9.73 70.14 990.54 2019-10-12 03:48:26
44604 16.60 60.93 9.69 70.20 990.53 2019-10-12 03:47:26
44603 16.61 60.89 9.79 69.86 990.51 2019-10-12 03:46:26
44602 16.60 60.91 9.72 70.04 990.53 2019-10-12 03:45:26
44601 16.60 60.92 9.64 70.10 990.53 2019-10-12 03:44:26
44600 16.61 60.89 9.60 70.00 990.53 2019-10-12 03:43:25
44599 16.61 60.85 9.62 69.88 990.59 2019-10-12 03:42:25
44598 16.60 60.91 9.67 69.78 990.59 2019-10-12 03:41:25
44597 16.60 60.91 9.63 69.83 990.60 2019-10-12 03:40:25
44596 16.61 60.90 9.50 70.02 990.62 2019-10-12 03:39:25
44595 16.61 60.91 9.62 69.45 990.60 2019-10-12 03:38:25
44594 16.60 60.88 9.85 69.03 990.67 2019-10-12 03:36:20
44593 16.60 60.84 9.86 69.02 990.62 2019-10-12 03:35:20
44592 16.60 60.83 9.72 69.37 990.66 2019-10-12 03:34:20
44591 16.61 60.82 9.81 68.80 990.66 2019-10-12 03:33:20
44590 16.61 60.76 9.95 68.61 990.65 2019-10-12 03:32:20
44589 16.60 60.73 10.04 68.51 990.65 2019-10-12 03:31:19
44588 16.60 60.72 10.04 68.72 990.64 2019-10-12 03:30:19
44587 16.60 60.74 10.00 68.92 990.64 2019-10-12 03:29:19
44586 16.61 60.73 9.94 69.14 990.65 2019-10-12 03:28:19
44585 16.61 60.72 9.88 69.20 990.63 2019-10-12 03:27:19
44584 16.61 60.72 9.90 69.13 990.63 2019-10-12 03:26:19
44583 16.61 60.74 10.02 68.95 990.61 2019-10-12 03:25:19
44582 16.61 60.73 10.05 68.93 990.63 2019-10-12 03:24:19
44581 16.60 60.74 10.09 68.88 990.63 2019-10-12 03:23:19
44580 16.61 60.71 10.11 68.75 990.69 2019-10-12 03:22:19
44579 16.61 60.69 10.12 68.73 990.68 2019-10-12 03:21:18
44578 16.61 60.70 10.02 69.01 990.73 2019-10-12 03:20:18
44577 16.61 60.73 10.10 68.85 990.73 2019-10-12 03:19:18
44576 16.60 60.76 9.94 68.87 990.77 2019-10-12 03:18:18
44575 16.61 60.75 10.24 68.29 990.80 2019-10-12 03:17:18
44574 16.61 60.72 10.27 68.25 990.81 2019-10-12 03:16:18
44573 16.61 60.70 10.22 68.46 990.79 2019-10-12 03:15:18
44572 16.61 60.72 10.19 68.30 990.83 2019-10-12 03:14:18
44571 16.61 60.73 10.24 68.31 990.83 2019-10-12 03:13:18
44570 16.61 60.74 10.24 68.25 990.82 2019-10-12 03:12:18
44569 16.62 60.73 10.23 68.29 990.75 2019-10-12 03:11:18
44568 16.61 60.72 10.27 68.27 990.80 2019-10-12 03:10:17
44567 16.61 60.74 10.25 68.27 990.74 2019-10-12 03:09:17
44566 16.60 60.73 10.29 67.98 990.77 2019-10-12 03:08:17
44565 16.61 60.74 10.32 68.12 990.75 2019-10-12 03:06:12
44564 16.61 60.76 10.31 68.16 990.78 2019-10-12 03:05:12
44563 16.62 60.73 10.31 68.14 990.80 2019-10-12 03:04:12
44562 16.61 60.72 10.27 68.15 990.77 2019-10-12 03:03:12
44561 16.61 60.73 10.25 68.17 990.78 2019-10-12 03:02:12
44560 16.61 60.74 10.28 68.20 990.77 2019-10-12 03:01:12
44559 16.61 60.73 10.25 68.21 990.78 2019-10-12 03:00:11
44558 16.61 60.74 10.34 68.11 990.79 2019-10-12 02:59:11
44557 16.61 60.72 10.42 68.14 990.79 2019-10-12 02:58:11
44556 16.61 60.70 10.38 68.05 990.78 2019-10-12 02:57:11
44555 16.62 60.73 10.29 68.25 990.83 2019-10-12 02:56:11
44554 16.62 60.72 10.39 67.94 990.80 2019-10-12 02:55:11
44553 16.62 60.73 10.42 68.13 990.84 2019-10-12 02:54:11
44552 16.62 60.74 10.38 68.13 990.83 2019-10-12 02:53:11
44551 16.62 60.77 10.44 68.06 990.84 2019-10-12 02:52:11
44550 16.63 60.71 10.35 68.28 990.82 2019-10-12 02:51:11
44549 16.62 60.74 10.08 68.50 990.84 2019-10-12 02:50:11
44548 16.63 60.71 10.25 68.21 990.82 2019-10-12 02:49:11
44547 16.63 60.71 10.43 68.12 990.85 2019-10-12 02:48:10
44546 16.62 60.71 10.42 68.14 990.83 2019-10-12 02:47:10
44545 16.63 60.64 10.52 68.02 990.82 2019-10-12 02:46:10
44544 16.63 60.65 10.47 67.85 990.82 2019-10-12 02:45:10
44543 16.62 60.64 10.44 67.52 990.84 2019-10-12 02:44:10
44542 16.63 60.62 10.62 67.71 990.81 2019-10-12 02:43:10
44541 16.63 60.57 10.57 67.67 990.90 2019-10-12 02:42:10
44540 16.63 60.59 10.41 67.56 990.87 2019-10-12 02:41:10
44539 16.63 60.60 10.56 67.57 990.85 2019-10-12 02:40:10
44538 16.63 60.60 10.44 67.92 990.86 2019-10-12 02:39:09
44537 16.63 60.60 10.43 68.11 990.83 2019-10-12 02:38:09
44536 16.64 60.57 10.50 68.18 990.82 2019-10-12 02:36:04
44535 16.64 60.55 10.43 68.36 990.86 2019-10-12 02:35:04
44534 16.64 60.56 10.18 68.74 990.85 2019-10-12 02:34:04
44533 16.63 60.59 10.26 68.97 990.82 2019-10-12 02:33:04
44532 16.64 60.55 10.03 69.20 990.82 2019-10-12 02:32:04
44531 16.64 60.55 10.17 69.02 990.83 2019-10-12 02:31:04
44530 16.62 60.52 10.08 69.17 990.81 2019-10-12 02:30:04
44529 16.64 60.52 10.13 69.12 990.85 2019-10-12 02:29:04
44528 16.64 60.54 10.13 69.18 990.84 2019-10-12 02:28:04
44527 16.63 60.55 10.03 69.39 990.90 2019-10-12 02:27:03
44526 16.64 60.58 10.12 69.18 990.90 2019-10-12 02:26:03
44525 16.64 60.58 10.14 69.14 990.83 2019-10-12 02:25:03
44524 16.63 60.62 10.23 68.86 990.91 2019-10-12 02:24:03
44523 16.63 60.62 10.34 68.79 990.95 2019-10-12 02:23:03
44522 16.63 60.58 10.49 68.48 990.92 2019-10-12 02:22:03
44521 16.64 60.60 10.60 68.63 990.90 2019-10-12 02:21:03
44520 16.62 60.60 10.61 68.70 990.90 2019-10-12 02:20:03
44519 16.63 60.59 10.49 68.75 990.92 2019-10-12 02:19:03
44518 16.63 60.60 10.63 68.58 990.95 2019-10-12 02:18:03
44517 16.63 60.60 10.59 68.79 990.96 2019-10-12 02:17:03
44516 16.63 60.60 10.48 69.15 990.97 2019-10-12 02:16:02
44515 16.63 60.61 10.41 69.32 991.02 2019-10-12 02:15:02
44514 16.63 60.61 10.39 69.71 990.99 2019-10-12 02:14:02
44513 16.63 60.63 10.24 70.12 990.96 2019-10-12 02:13:02
44512 16.64 60.60 10.03 70.49 991.02 2019-10-12 02:12:02
44511 16.63 60.60 9.95 70.64 991.01 2019-10-12 02:11:02
44510 16.63 60.63 10.01 70.59 990.97 2019-10-12 02:10:02
44509 16.63 60.58 9.98 70.62 991.02 2019-10-12 02:09:02
44508 16.63 60.59 9.90 70.68 990.99 2019-10-12 02:08:02
44507 16.64 60.58 10.21 70.21 991.01 2019-10-12 02:05:56
44506 16.65 60.58 10.14 70.34 991.03 2019-10-12 02:04:56
44505 16.64 60.56 10.19 70.63 991.02 2019-10-12 02:03:56
44504 16.64 60.56 10.07 70.75 991.09 2019-10-12 02:02:56
44503 16.64 60.56 10.07 70.72 991.06 2019-10-12 02:01:56
44502 16.63 60.58 10.03 70.81 991.08 2019-10-12 02:00:54
44501 16.64 60.56 10.07 70.62 991.10 2019-10-12 01:59:54
44500 16.64 60.52 10.39 70.28 991.08 2019-10-12 01:58:54
44499 16.64 60.53 10.30 70.40 991.05 2019-10-12 01:57:54
44498 16.64 60.55 10.15 70.66 991.13 2019-10-12 01:56:54
44497 16.65 60.50 10.23 70.36 991.12 2019-10-12 01:55:54
44496 16.65 60.43 10.50 70.05 991.09 2019-10-12 01:54:54
44495 16.66 60.42 10.62 69.88 991.11 2019-10-12 01:53:54
44494 16.65 60.45 10.62 70.04 991.13 2019-10-12 01:52:53
44493 16.65 60.53 10.58 70.36 991.14 2019-10-12 01:51:53
44492 16.64 60.58 10.41 70.89 991.15 2019-10-12 01:50:53
44491 16.65 60.58 10.11 71.28 991.20 2019-10-12 01:49:53
44490 16.65 60.57 10.09 71.26 991.18 2019-10-12 01:48:53
44489 16.65 60.59 10.37 70.88 991.15 2019-10-12 01:47:53
44488 16.66 60.57 10.12 71.10 991.20 2019-10-12 01:46:53
44487 16.65 60.58 10.29 70.82 991.16 2019-10-12 01:45:53
44486 16.64 60.59 10.42 70.85 991.16 2019-10-12 01:44:53
44485 16.65 60.53 10.16 71.17 991.17 2019-10-12 01:43:53
44484 16.66 60.52 10.20 71.08 991.15 2019-10-12 01:42:53
44483 16.65 60.43 10.35 70.85 991.11 2019-10-12 01:41:53
44482 16.65 60.41 10.51 70.91 991.16 2019-10-12 01:40:52
44481 16.66 60.40 10.24 71.34 991.15 2019-10-12 01:39:52
44480 16.65 60.38 10.22 71.51 991.12 2019-10-12 01:38:52
44479 16.65 60.39 10.08 71.84 991.15 2019-10-12 01:37:52
44478 16.66 60.39 10.26 71.46 991.04 2019-10-12 01:35:47
44477 16.65 60.37 10.35 71.59 991.06 2019-10-12 01:34:47
44476 16.66 60.38 10.15 71.98 991.11 2019-10-12 01:33:47
44475 16.65 60.41 10.06 72.22 991.13 2019-10-12 01:32:47
44474 16.65 60.40 9.94 72.31 991.07 2019-10-12 01:31:47
44473 16.65 60.38 10.02 72.06 991.11 2019-10-12 01:30:47
44472 16.66 60.35 10.19 71.72 991.08 2019-10-12 01:29:46
44471 16.66 60.35 10.34 71.32 991.09 2019-10-12 01:28:46
44470 16.65 60.37 10.62 71.00 991.06 2019-10-12 01:27:46
44469 16.65 60.32 10.56 71.46 991.04 2019-10-12 01:26:46
44468 16.66 60.33 10.25 72.25 991.02 2019-10-12 01:25:46
44467 16.66 60.31 10.09 72.40 991.05 2019-10-12 01:24:46
44466 16.65 60.30 10.14 72.52 991.04 2019-10-12 01:23:46
44465 16.66 60.27 10.06 72.70 991.08 2019-10-12 01:22:46
44464 16.66 60.31 10.02 72.79 991.09 2019-10-12 01:21:46
44463 16.65 60.27 10.01 72.70 991.09 2019-10-12 01:20:46
44462 16.66 60.24 10.28 72.27 991.02 2019-10-12 01:19:45
44461 16.66 60.20 10.35 72.61 991.06 2019-10-12 01:18:45
44460 16.65 60.23 10.06 73.15 991.05 2019-10-12 01:17:45
44459 16.65 60.23 9.91 73.33 991.06 2019-10-12 01:16:45
44458 16.66 60.21 9.89 73.16 991.06 2019-10-12 01:15:45
44457 16.66 60.20 10.05 72.88 991.02 2019-10-12 01:14:45
44456 16.66 60.18 10.03 72.94 991.02 2019-10-12 01:13:45
44455 16.66 60.15 10.08 72.80 990.98 2019-10-12 01:12:45
44454 16.66 60.14 10.17 72.68 990.98 2019-10-12 01:11:45
44453 16.68 60.11 10.22 72.60 990.96 2019-10-12 01:10:45
44452 16.68 60.10 10.30 72.32 990.98 2019-10-12 01:09:45
44451 16.68 60.10 10.27 72.44 991.04 2019-10-12 01:08:44
44450 16.67 60.07 10.22 72.76 991.05 2019-10-12 01:07:44
44449 16.67 60.04 10.23 72.44 991.01 2019-10-12 01:05:39
44448 16.67 60.04 10.29 72.30 991.03 2019-10-12 01:04:39
44447 16.67 60.02 10.21 72.32 991.10 2019-10-12 01:03:39
44446 16.68 59.99 10.29 71.88 991.06 2019-10-12 01:02:39
44445 16.69 60.02 10.58 71.23 991.11 2019-10-12 01:01:39
44444 16.69 60.01 10.72 71.13 991.13 2019-10-12 01:00:39
44443 16.68 60.01 10.69 71.35 991.08 2019-10-12 00:59:38
44442 16.68 59.97 10.47 71.51 991.06 2019-10-12 00:58:38
44441 16.68 59.94 10.69 71.39 991.09 2019-10-12 00:57:38
44440 16.68 59.97 10.52 71.52 991.13 2019-10-12 00:56:38
44439 16.69 59.98 10.71 71.50 991.06 2019-10-12 00:55:38
44438 16.68 59.96 10.62 71.84 991.07 2019-10-12 00:54:38
44437 16.68 59.97 10.42 72.32 991.03 2019-10-12 00:53:38
44436 16.68 59.93 10.34 72.40 991.03 2019-10-12 00:52:38
44435 16.69 59.93 10.36 72.29 991.00 2019-10-12 00:51:38
44434 16.68 59.91 10.37 72.33 991.01 2019-10-12 00:50:38
44433 16.68 59.91 10.24 72.49 991.00 2019-10-12 00:49:38
44432 16.68 59.91 10.36 72.24 991.02 2019-10-12 00:48:37
44431 16.69 59.94 10.55 72.07 991.01 2019-10-12 00:47:37
44430 16.68 59.91 10.36 72.53 991.01 2019-10-12 00:46:37
44429 16.69 59.87 10.37 72.68 991.01 2019-10-12 00:45:37
44428 16.68 59.87 10.20 72.88 991.02 2019-10-12 00:44:37
44427 16.68 59.83 10.25 72.89 991.01 2019-10-12 00:43:37
44426 16.69 59.81 10.30 72.83 991.04 2019-10-12 00:42:37
44425 16.69 59.80 10.51 72.69 991.05 2019-10-12 00:41:37
44424 16.69 59.83 10.20 73.11 991.08 2019-10-12 00:40:37
44423 16.69 59.76 10.37 72.92 991.10 2019-10-12 00:39:37
44422 16.69 59.80 10.28 73.22 991.14 2019-10-12 00:38:37
44421 16.71 59.74 10.10 73.13 991.20 2019-10-12 00:37:36
44420 16.70 59.71 10.47 71.43 991.22 2019-10-12 00:35:31
44419 16.70 59.67 10.88 70.41 991.26 2019-10-12 00:34:31
44418 16.70 59.66 10.95 70.29 991.27 2019-10-12 00:33:31
44417 16.70 59.66 11.00 70.32 991.29 2019-10-12 00:32:31
44416 16.71 59.65 10.90 70.69 991.29 2019-10-12 00:31:31
44415 16.71 59.62 10.77 70.83 991.29 2019-10-12 00:30:31
44414 16.70 59.58 10.87 70.92 991.26 2019-10-12 00:29:31
44413 16.70 59.64 10.76 71.09 991.25 2019-10-12 00:28:31
44412 16.70 59.60 10.93 70.66 991.27 2019-10-12 00:27:31
44411 16.70 59.60 10.94 70.64 991.28 2019-10-12 00:26:31
44410 16.72 59.56 10.95 70.57 991.31 2019-10-12 00:25:30
44409 16.71 59.56 10.90 70.87 991.29 2019-10-12 00:24:30
44408 16.70 59.55 10.83 71.07 991.31 2019-10-12 00:23:30
44407 16.70 59.55 10.76 71.08 991.32 2019-10-12 00:22:30
44406 16.70 59.52 10.79 71.08 991.31 2019-10-12 00:21:30
44405 16.71 59.48 10.94 70.73 991.35 2019-10-12 00:20:30
44404 16.71 59.53 10.90 70.76 991.37 2019-10-12 00:19:30
44403 16.72 59.47 10.91 70.69 991.34 2019-10-12 00:18:30
44402 16.72 59.47 10.92 70.60 991.34 2019-10-12 00:17:30
44401 16.71 59.46 11.00 70.45 991.34 2019-10-12 00:16:30
44400 16.73 59.42 11.02 70.43 991.35 2019-10-12 00:15:29
44399 16.72 59.42 11.12 70.32 991.36 2019-10-12 00:14:29
44398 16.72 59.39 11.13 70.33 991.37 2019-10-12 00:13:29
44397 16.71 59.40 11.12 70.57 991.40 2019-10-12 00:12:29
44396 16.72 59.38 11.05 70.76 991.37 2019-10-12 00:11:29
44395 16.71 59.40 11.07 70.91 991.40 2019-10-12 00:10:29
44394 16.72 59.36 11.05 71.07 991.38 2019-10-12 00:09:29
44393 16.72 59.38 11.01 71.36 991.36 2019-10-12 00:08:29
44392 16.73 59.37 10.84 71.66 991.32 2019-10-12 00:07:29
44391 16.72 59.33 10.96 71.82 991.29 2019-10-12 00:05:23
44390 16.72 59.33 10.83 72.14 991.28 2019-10-12 00:04:23
44389 16.74 59.28 10.92 72.01 991.26 2019-10-12 00:03:23
44388 16.73 59.28 10.62 72.14 991.29 2019-10-12 00:02:23
44387 16.73 59.26 10.99 71.37 991.25 2019-10-12 00:01:23
44386 16.74 59.23 10.98 71.49 991.29 2019-10-12 00:00:23
44385 16.73 59.21 11.07 71.42 991.26 2019-10-11 23:59:22
44384 16.73 59.19 10.97 71.72 991.31 2019-10-11 23:58:22
44383 16.74 59.19 10.94 71.44 991.32 2019-10-11 23:57:22
44382 16.74 59.17 11.22 71.04 991.36 2019-10-11 23:56:22
44381 16.74 59.18 11.17 71.23 991.35 2019-10-11 23:55:22
44380 16.74 59.19 11.17 71.06 991.36 2019-10-11 23:54:22
44379 16.75 59.17 11.30 70.87 991.36 2019-10-11 23:53:22
44378 16.75 59.14 11.23 71.18 991.36 2019-10-11 23:52:22
44377 16.74 59.13 11.05 71.57 991.38 2019-10-11 23:51:22
44376 16.74 59.15 11.34 70.97 991.38 2019-10-11 23:50:22
44375 16.75 59.13 11.27 71.24 991.31 2019-10-11 23:49:22
44374 16.75 59.10 11.12 71.47 991.30 2019-10-11 23:48:22
44373 16.75 59.12 11.26 71.26 991.34 2019-10-11 23:47:21
44372 16.75 59.12 11.19 71.56 991.35 2019-10-11 23:46:21
44371 16.75 59.10 11.17 71.55 991.32 2019-10-11 23:45:21
44370 16.76 59.08 11.11 71.66 991.33 2019-10-11 23:44:21
44369 16.75 59.09 11.23 71.19 991.31 2019-10-11 23:43:21
44368 16.76 59.07 11.31 71.16 991.30 2019-10-11 23:42:21
44367 16.76 59.09 11.37 71.27 991.30 2019-10-11 23:41:21
44366 16.76 59.05 11.30 71.59 991.31 2019-10-11 23:40:21
44365 16.76 59.06 11.29 71.69 991.27 2019-10-11 23:39:21
44364 16.76 59.03 11.32 71.64 991.30 2019-10-11 23:38:21
44363 16.76 59.05 11.35 71.64 991.28 2019-10-11 23:37:21
44362 16.77 59.03 11.20 71.72 991.31 2019-10-11 23:35:15
44361 16.77 59.01 11.39 71.48 991.33 2019-10-11 23:34:15
44360 16.77 59.02 11.45 71.40 991.35 2019-10-11 23:33:15
44359 16.76 59.01 11.47 71.55 991.32 2019-10-11 23:32:15
44358 16.77 59.01 11.44 71.92 991.31 2019-10-11 23:31:15
44357 16.77 58.99 11.32 72.37 991.32 2019-10-11 23:30:15
44356 16.77 59.02 11.19 72.72 991.31 2019-10-11 23:29:15
44355 16.77 59.00 11.02 72.88 991.34 2019-10-11 23:28:15
44354 16.77 58.99 11.01 72.95 991.32 2019-10-11 23:27:15
44353 16.78 58.99 10.95 72.93 991.33 2019-10-11 23:26:15
44352 16.78 59.01 11.12 72.68 991.30 2019-10-11 23:25:14
44351 16.77 59.01 10.99 72.67 991.35 2019-10-11 23:24:14
44350 16.77 59.03 11.16 72.09 991.38 2019-10-11 23:23:14
44349 16.78 58.99 11.51 71.72 991.38 2019-10-11 23:22:14
44348 16.78 59.03 11.35 72.11 991.38 2019-10-11 23:21:14
44347 16.77 59.04 11.42 71.72 991.40 2019-10-11 23:20:14
44346 16.77 59.01 11.56 71.53 991.39 2019-10-11 23:19:14
44345 16.79 58.98 11.61 71.55 991.39 2019-10-11 23:18:14
44344 16.78 58.98 11.60 71.73 991.38 2019-10-11 23:17:14
44343 16.79 58.96 11.53 72.08 991.39 2019-10-11 23:16:13
44342 16.79 58.94 11.30 72.63 991.39 2019-10-11 23:15:13
44341 16.79 58.94 11.42 72.54 991.39 2019-10-11 23:14:13
44340 16.80 58.87 11.32 72.84 991.38 2019-10-11 23:13:13
44339 16.80 58.84 11.21 73.04 991.36 2019-10-11 23:12:13
44338 16.80 58.82 11.27 73.15 991.40 2019-10-11 23:11:13
44337 16.80 58.78 11.11 73.39 991.38 2019-10-11 23:10:13
44336 16.81 58.76 11.12 73.35 991.44 2019-10-11 23:09:13
44335 16.80 58.76 11.11 73.36 991.45 2019-10-11 23:08:13
44334 16.80 58.71 11.01 73.41 991.45 2019-10-11 23:07:12
44333 16.81 58.70 11.14 72.99 991.46 2019-10-11 23:05:07
44332 16.82 58.69 11.10 72.85 991.50 2019-10-11 23:04:07
44331 16.83 58.64 11.40 72.18 991.46 2019-10-11 23:03:07
44330 16.82 58.65 11.37 72.65 991.47 2019-10-11 23:02:07
44329 16.82 58.70 11.13 72.93 991.43 2019-10-11 23:01:07
44328 16.83 58.64 11.42 72.62 991.44 2019-10-11 23:00:07
44327 16.81 58.78 11.24 73.19 991.44 2019-10-11 22:59:07
44326 16.79 58.89 11.05 73.52 991.42 2019-10-11 22:58:06
44325 16.79 58.71 11.00 73.83 991.42 2019-10-11 22:57:06
44324 16.82 58.66 11.05 73.89 991.42 2019-10-11 22:56:06
44323 16.83 58.60 10.96 73.97 991.42 2019-10-11 22:55:06
44322 16.82 58.61 10.80 74.16 991.42 2019-10-11 22:54:06
44321 16.82 58.61 10.84 74.03 991.42 2019-10-11 22:53:06
44320 16.82 58.57 10.88 73.77 991.45 2019-10-11 22:52:06
44319 16.82 58.58 11.00 73.52 991.47 2019-10-11 22:51:06
44318 16.82 58.56 11.08 73.45 991.46 2019-10-11 22:50:06
44317 16.84 58.55 10.97 73.75 991.42 2019-10-11 22:49:06
44316 16.84 58.52 10.89 73.98 991.45 2019-10-11 22:48:05
44315 16.83 58.49 10.68 74.03 991.43 2019-10-11 22:47:05
44314 16.83 58.50 10.88 73.24 991.45 2019-10-11 22:46:05
44313 16.84 58.47 11.17 72.29 991.44 2019-10-11 22:45:05
44312 16.85 58.44 11.50 71.73 991.50 2019-10-11 22:44:05
44311 16.86 58.40 11.45 71.34 991.45 2019-10-11 22:43:05
44310 16.86 58.38 11.77 70.55 991.42 2019-10-11 22:42:05
44309 16.86 58.36 11.74 70.71 991.42 2019-10-11 22:41:04
44308 16.86 58.39 11.61 71.00 991.45 2019-10-11 22:40:04
44307 16.84 58.52 11.73 70.64 991.51 2019-10-11 22:39:04
44306 16.85 58.48 11.71 70.66 991.49 2019-10-11 22:38:04
44305 16.84 58.43 11.73 70.90 991.51 2019-10-11 22:37:04
44304 16.84 58.34 11.74 71.06 991.49 2019-10-11 22:34:59
44303 16.85 58.30 11.66 71.41 991.50 2019-10-11 22:33:59
44302 16.85 58.28 11.65 71.78 991.50 2019-10-11 22:32:59
44301 16.86 58.26 11.52 71.85 991.47 2019-10-11 22:31:59
44300 16.87 58.24 11.70 71.90 991.48 2019-10-11 22:30:59
44299 16.86 58.22 11.59 72.27 991.47 2019-10-11 22:29:59
44298 16.86 58.21 11.72 71.60 991.43 2019-10-11 22:28:58
44297 16.86 58.20 11.73 71.86 991.41 2019-10-11 22:27:58
44296 16.87 58.18 11.80 71.58 991.40 2019-10-11 22:26:58
44295 16.87 58.14 11.76 71.66 991.45 2019-10-11 22:25:58
44294 16.87 58.15 11.72 71.77 991.44 2019-10-11 22:24:58
44293 16.86 58.11 11.72 71.86 991.43 2019-10-11 22:23:58
44292 16.87 58.12 11.64 72.10 991.40 2019-10-11 22:22:58
44291 16.88 58.09 11.59 72.29 991.34 2019-10-11 22:21:58
44290 16.87 58.10 11.54 72.41 991.33 2019-10-11 22:20:58
44289 16.87 58.08 11.47 72.34 991.35 2019-10-11 22:19:58
44288 16.89 58.02 11.61 71.93 991.36 2019-10-11 22:18:57
44287 16.89 57.99 11.60 71.90 991.34 2019-10-11 22:17:57
44286 16.89 57.93 11.68 71.79 991.36 2019-10-11 22:16:57
44285 16.89 57.94 11.72 71.71 991.39 2019-10-11 22:15:57
44284 16.89 57.99 11.71 71.75 991.40 2019-10-11 22:14:57
44283 16.87 58.01 11.75 71.82 991.41 2019-10-11 22:13:57
44282 16.89 57.94 11.73 72.11 991.42 2019-10-11 22:12:56
44281 16.89 57.95 11.70 72.39 991.41 2019-10-11 22:11:56
44280 16.90 57.93 11.55 72.79 991.36 2019-10-11 22:10:56
44279 16.91 57.87 11.52 72.85 991.36 2019-10-11 22:09:56
44278 16.91 57.78 11.54 72.41 991.28 2019-10-11 22:08:56
44277 16.90 57.48 11.70 71.96 991.28 2019-10-11 22:07:56
44276 16.90 57.54 11.57 72.45 991.25 2019-10-11 22:06:56
44275 16.90 57.56 11.60 72.39 991.22 2019-10-11 22:05:08
44274 16.89 57.51 11.72 72.30 991.29 2019-10-11 22:03:45
44273 16.88 57.50 11.66 72.66 991.28 2019-10-11 22:02:45
44272 16.89 57.50 11.54 73.08 991.29 2019-10-11 22:01:45
44271 16.89 57.49 11.50 72.88 991.25 2019-10-11 22:00:45
44270 16.88 57.49 11.60 72.54 991.21 2019-10-11 21:59:45
44269 16.88 57.47 11.46 72.81 991.24 2019-10-11 21:58:45
44268 16.88 57.47 11.48 72.11 991.24 2019-10-11 21:57:45
44267 16.89 57.47 11.93 70.87 991.31 2019-10-11 21:56:44
44266 16.87 57.48 12.00 70.66 991.37 2019-10-11 21:55:44
44265 16.87 57.50 12.10 70.38 991.40 2019-10-11 21:54:44
44264 16.85 57.49 12.14 70.27 991.43 2019-10-11 21:53:44
44263 16.87 57.50 12.20 70.13 991.46 2019-10-11 21:52:44
44262 16.86 57.51 12.19 70.29 991.42 2019-10-11 21:51:43
44261 16.86 57.52 12.18 70.47 991.44 2019-10-11 21:50:43
44260 16.86 57.54 12.05 70.66 991.45 2019-10-11 21:49:43
44259 16.87 57.57 12.26 70.33 991.44 2019-10-11 21:48:43
44258 16.87 57.54 12.25 70.55 991.44 2019-10-11 21:47:43
44257 16.87 57.58 12.17 70.75 991.47 2019-10-11 21:46:43
44256 16.87 57.58 12.19 70.67 991.39 2019-10-11 21:45:43
44255 16.87 57.59 12.17 70.65 991.39 2019-10-11 21:44:43
44254 16.87 57.61 12.27 70.49 991.37 2019-10-11 21:43:43
44253 16.88 57.63 12.32 70.46 991.39 2019-10-11 21:42:43
44252 16.87 57.66 12.19 70.73 991.40 2019-10-11 21:41:43
44251 16.88 57.66 12.30 70.31 991.43 2019-10-11 21:40:42
44250 16.88 57.67 12.30 70.26 991.42 2019-10-11 21:39:42
44249 16.88 57.66 12.15 70.65 991.44 2019-10-11 21:38:42
44248 16.88 57.68 12.31 70.17 991.44 2019-10-11 21:37:42
44247 16.88 57.69 12.31 70.24 991.40 2019-10-11 21:36:42
44246 16.89 57.70 12.28 70.34 991.36 2019-10-11 21:34:37
44245 16.89 57.73 12.28 70.33 991.36 2019-10-11 21:33:37
44244 16.89 57.74 12.27 70.46 991.36 2019-10-11 21:32:37
44243 16.90 57.73 12.29 70.53 991.40 2019-10-11 21:31:35
44242 16.90 57.73 12.32 70.52 991.43 2019-10-11 21:30:35
44241 16.90 57.75 12.19 70.85 991.42 2019-10-11 21:29:35
44240 16.91 57.78 12.35 70.62 991.43 2019-10-11 21:28:35
44239 16.92 57.80 12.28 70.88 991.39 2019-10-11 21:27:35
44238 16.92 57.75 12.32 71.00 991.37 2019-10-11 21:26:35
44237 16.93 57.63 12.22 71.47 991.33 2019-10-11 21:25:35
44236 16.93 57.57 12.10 71.80 991.33 2019-10-11 21:24:35
44235 16.92 57.52 12.13 72.08 991.37 2019-10-11 21:23:34
44234 16.93 57.59 11.89 72.65 991.32 2019-10-11 21:22:34
44233 16.93 57.59 11.86 72.57 991.30 2019-10-11 21:21:34
44232 16.92 57.61 11.92 72.36 991.29 2019-10-11 21:20:34
44231 16.90 57.54 11.94 72.29 991.31 2019-10-11 21:19:34
44230 16.91 57.49 11.88 71.90 991.32 2019-10-11 21:18:34
44229 16.92 57.56 11.94 71.92 991.37 2019-10-11 21:17:33
44228 16.92 57.53 11.95 71.65 991.40 2019-10-11 21:16:33
44227 16.93 57.53 12.34 70.49 991.39 2019-10-11 21:15:33
44226 16.93 57.83 12.37 70.58 991.47 2019-10-11 21:14:33
44225 16.92 57.52 12.32 70.73 991.44 2019-10-11 21:13:32
44224 16.92 57.50 12.31 70.82 991.49 2019-10-11 21:12:32
44223 16.92 57.47 12.33 70.72 991.48 2019-10-11 21:10:27
44222 16.92 57.53 12.42 70.52 991.42 2019-10-11 21:09:27
44221 16.92 57.56 12.33 70.82 991.36 2019-10-11 21:08:27
44220 16.92 57.51 12.53 70.30 991.38 2019-10-11 21:07:26
44219 16.91 57.53 12.51 70.49 991.36 2019-10-11 21:06:26
44218 16.91 57.55 12.40 70.89 991.39 2019-10-11 21:05:26
44217 16.91 57.58 12.45 70.80 991.39 2019-10-11 21:04:26
44216 16.91 57.54 12.36 71.14 991.41 2019-10-11 21:03:26
44215 16.91 57.60 12.17 71.59 991.43 2019-10-11 21:02:25
44214 16.92 57.56 11.99 71.53 991.42 2019-10-11 21:01:25
44213 16.92 57.55 12.16 71.10 991.42 2019-10-11 21:00:25
44212 16.92 57.53 12.22 70.74 991.47 2019-10-11 20:59:25
44211 16.92 57.56 12.45 70.42 991.50 2019-10-11 20:58:25
44210 16.92 57.59 12.62 70.12 991.51 2019-10-11 20:57:25
44209 16.91 57.58 12.60 70.22 991.57 2019-10-11 20:56:24
44208 16.92 57.54 12.55 70.39 991.59 2019-10-11 20:55:28
44207 16.92 57.54 12.57 70.41 991.57 2019-10-11 20:54:19
44206 16.92 57.51 12.51 70.60 991.58 2019-10-11 20:53:19
44205 16.92 57.56 12.37 70.70 991.55 2019-10-11 20:52:19
44204 16.92 57.52 12.60 70.47 991.57 2019-10-11 20:51:19
44203 16.92 57.52 12.51 70.73 991.53 2019-10-11 20:50:18
44202 16.92 57.65 12.50 70.62 991.53 2019-10-11 20:49:18
44201 16.92 57.63 12.61 70.63 991.54 2019-10-11 20:48:18
44200 16.92 57.59 12.52 70.99 991.56 2019-10-11 20:47:18
44199 16.92 57.57 12.38 71.19 991.57 2019-10-11 20:46:18
44198 16.92 57.62 12.48 71.28 991.55 2019-10-11 20:45:18
44197 16.92 57.51 12.35 71.42 991.48 2019-10-11 20:44:14
44196 16.93 57.52 12.45 71.48 991.51 2019-10-11 20:43:14
44195 16.92 57.57 12.15 72.21 991.53 2019-10-11 20:42:14
44194 16.92 57.54 12.04 72.49 991.59 2019-10-11 20:40:09
44193 16.92 57.54 11.97 72.66 991.54 2019-10-11 20:39:09
44192 16.93 57.55 11.93 72.77 991.51 2019-10-11 20:38:08
44191 16.93 57.58 11.77 72.89 991.55 2019-10-11 20:37:08
44190 16.92 57.54 11.95 72.31 991.52 2019-10-11 20:36:06
44189 16.93 57.54 11.98 71.88 991.56 2019-10-11 20:35:06
44188 16.93 57.53 12.22 70.83 991.56 2019-10-11 20:34:05
44187 16.93 57.52 12.65 69.74 991.64 2019-10-11 20:33:05
44186 16.93 57.51 12.96 69.16 991.63 2019-10-11 20:32:05
44185 16.94 57.47 12.90 69.30 991.69 2019-10-11 20:31:05
44184 16.95 57.47 12.81 69.62 991.71 2019-10-11 20:30:05
44183 16.95 57.52 12.78 69.61 991.69 2019-10-11 20:29:05
44182 16.94 57.52 12.56 70.22 991.71 2019-10-11 20:28:04
44181 16.95 57.48 12.77 69.57 991.71 2019-10-11 20:27:04
44180 16.94 57.46 12.67 69.78 991.70 2019-10-11 20:26:04
44179 16.95 57.46 12.84 69.26 991.66 2019-10-11 20:25:04
44178 16.93 57.46 12.78 69.32 991.64 2019-10-11 20:24:04
44177 16.93 57.45 12.72 69.75 991.67 2019-10-11 20:23:04
44176 16.94 57.48 12.64 69.85 991.73 2019-10-11 20:22:04
44175 16.95 57.44 12.61 69.68 991.69 2019-10-11 20:21:04
44174 16.95 57.43 12.75 69.04 991.75 2019-10-11 20:20:03
44173 16.95 57.44 12.97 68.66 991.75 2019-10-11 20:19:03
44172 16.96 57.42 12.96 68.67 991.77 2019-10-11 20:18:03
44171 16.97 57.41 12.93 68.80 991.74 2019-10-11 20:17:03
44170 16.97 57.41 12.90 68.92 991.80 2019-10-11 20:16:03
44169 16.98 57.44 12.90 68.98 991.82 2019-10-11 20:15:03
44168 16.96 57.43 12.91 68.88 991.78 2019-10-11 20:14:03
44167 16.96 57.43 12.94 68.85 991.79 2019-10-11 20:13:03
44166 16.97 57.43 12.91 68.97 991.79 2019-10-11 20:12:03
44165 16.97 57.44 12.84 68.99 991.75 2019-10-11 20:09:58
44164 16.97 57.45 12.97 68.87 991.77 2019-10-11 20:08:57
44163 16.97 57.47 12.93 69.04 991.74 2019-10-11 20:07:57
44162 16.97 57.48 12.96 69.00 991.75 2019-10-11 20:06:57
44161 16.97 57.47 13.00 69.00 991.79 2019-10-11 20:05:57
44160 16.98 57.46 12.99 69.06 991.77 2019-10-11 20:04:57
44159 16.99 57.46 13.01 69.12 991.74 2019-10-11 20:03:57
44158 16.99 57.45 13.01 69.11 991.76 2019-10-11 20:02:57
44157 16.98 57.47 13.03 69.03 991.72 2019-10-11 20:01:56
44156 16.98 57.49 13.04 69.09 991.72 2019-10-11 20:00:56
44155 16.99 57.46 13.03 69.13 991.69 2019-10-11 19:59:56
44154 16.99 57.47 12.98 69.28 991.69 2019-10-11 19:58:56
44153 16.99 57.48 12.88 69.38 991.67 2019-10-11 19:57:56
44152 16.99 57.47 12.91 69.21 991.68 2019-10-11 19:56:56
44151 17.00 57.47 13.02 68.91 991.73 2019-10-11 19:55:56
44150 16.99 57.48 13.03 68.95 991.73 2019-10-11 19:54:56
44149 17.00 57.47 13.07 68.98 991.76 2019-10-11 19:53:56
44148 17.00 57.47 13.06 69.08 991.78 2019-10-11 19:52:56
44147 17.01 57.47 12.97 69.45 991.77 2019-10-11 19:51:56
44146 17.00 57.48 12.92 69.77 991.79 2019-10-11 19:50:55
44145 17.00 57.48 12.78 70.29 991.82 2019-10-11 19:49:55
44144 17.00 57.48 12.56 70.78 991.79 2019-10-11 19:48:55
44143 17.01 57.47 12.27 71.24 991.75 2019-10-11 19:47:55
44142 17.01 57.47 12.22 71.17 991.74 2019-10-11 19:46:55
44141 17.02 57.46 12.23 70.87 991.75 2019-10-11 19:45:55
44140 17.01 57.46 12.42 70.25 991.79 2019-10-11 19:44:55
44139 17.02 57.45 12.60 69.44 991.86 2019-10-11 19:43:55
44138 17.01 57.46 12.74 68.68 991.84 2019-10-11 19:42:55
44137 17.01 57.47 13.26 67.26 991.87 2019-10-11 19:41:55
44136 17.02 57.46 13.48 66.57 991.84 2019-10-11 19:39:50
44135 17.02 57.49 13.55 66.51 991.81 2019-10-11 19:38:49
44134 17.01 57.46 13.54 66.56 991.78 2019-10-11 19:37:49
44133 17.02 57.46 13.50 66.50 991.81 2019-10-11 19:36:48
44132 17.01 57.48 13.51 66.48 991.84 2019-10-11 19:35:48
44131 17.01 57.46 13.47 66.27 991.84 2019-10-11 19:34:48
44130 17.01 57.48 13.58 66.41 991.83 2019-10-11 19:33:48
44129 17.01 57.49 13.67 66.46 991.89 2019-10-11 19:32:48
44128 17.03 57.46 13.64 66.42 991.94 2019-10-11 19:31:47
44127 17.02 57.47 13.68 66.38 991.93 2019-10-11 19:30:47
44126 17.01 57.47 13.64 66.41 991.94 2019-10-11 19:29:47
44125 17.02 57.47 13.61 66.31 991.95 2019-10-11 19:28:47
44124 17.02 57.49 13.51 66.35 992.00 2019-10-11 19:27:47
44123 17.02 57.47 13.63 66.25 992.00 2019-10-11 19:26:47
44122 17.01 57.50 13.59 66.53 991.98 2019-10-11 19:25:47
44121 17.03 57.49 13.46 66.91 991.96 2019-10-11 19:24:47
44120 17.01 57.47 13.28 67.17 991.99 2019-10-11 19:23:46
44119 17.03 57.47 13.38 67.15 991.97 2019-10-11 19:22:46
44118 17.02 57.47 13.53 67.02 992.03 2019-10-11 19:21:46
44117 17.02 57.48 13.39 67.16 992.05 2019-10-11 19:20:46
44116 17.03 57.46 13.33 67.44 992.06 2019-10-11 19:19:46
44115 17.04 57.44 13.43 67.63 992.00 2019-10-11 19:18:46
44114 17.03 57.47 13.22 67.90 992.05 2019-10-11 19:17:46
44113 17.04 57.47 13.25 67.66 992.06 2019-10-11 19:16:46
44112 17.04 57.47 13.50 67.64 992.09 2019-10-11 19:15:46
44111 17.03 57.49 13.49 67.48 992.11 2019-10-11 19:14:45
44110 17.04 57.47 13.65 67.17 992.17 2019-10-11 19:13:45
44109 17.04 57.48 13.66 67.20 992.17 2019-10-11 19:12:45
44108 17.03 57.47 13.56 67.37 992.16 2019-10-11 19:11:45
44107 17.03 57.49 13.85 66.77 992.17 2019-10-11 19:09:40
44106 17.04 57.47 13.83 66.76 992.20 2019-10-11 19:08:40
44105 17.04 57.45 13.89 66.60 992.20 2019-10-11 19:07:40
44104 17.04 57.47 13.82 66.57 992.21 2019-10-11 19:06:40
44103 17.04 57.46 13.89 66.64 992.24 2019-10-11 19:05:40
44102 17.04 57.48 13.84 66.79 992.18 2019-10-11 19:04:40
44101 17.04 57.46 13.92 66.83 992.23 2019-10-11 19:03:39
44100 17.05 57.46 13.92 66.95 992.21 2019-10-11 19:02:39
44099 17.04 57.48 13.97 66.88 992.30 2019-10-11 19:01:39
44098 17.06 57.43 13.98 66.78 992.34 2019-10-11 19:00:39
44097 17.05 57.46 13.90 66.77 992.33 2019-10-11 18:59:39
44096 17.05 57.45 13.87 66.69 992.35 2019-10-11 18:58:39
44095 17.05 57.42 13.92 66.72 992.34 2019-10-11 18:57:39
44094 17.06 57.42 13.97 66.45 992.34 2019-10-11 18:56:39
44093 17.06 57.40 13.87 65.93 992.31 2019-10-11 18:55:39
44092 17.06 57.42 14.02 65.92 992.31 2019-10-11 18:54:39
44091 17.07 57.39 13.90 65.96 992.30 2019-10-11 18:53:38
44090 17.07 57.39 14.04 65.74 992.32 2019-10-11 18:52:38
44089 17.07 57.39 13.91 65.99 992.29 2019-10-11 18:51:38
44088 17.08 57.38 13.84 66.10 992.27 2019-10-11 18:50:38
44087 17.08 57.39 13.87 65.79 992.31 2019-10-11 18:49:38
44086 17.07 57.39 13.81 66.32 992.30 2019-10-11 18:48:38
44085 17.06 57.39 14.13 65.74 992.30 2019-10-11 18:47:38
44084 17.06 57.40 14.13 65.82 992.34 2019-10-11 18:46:38
44083 17.07 57.40 14.08 65.96 992.34 2019-10-11 18:45:38
44082 17.07 57.39 14.11 65.81 992.35 2019-10-11 18:44:38
44081 17.07 57.37 14.19 66.00 992.35 2019-10-11 18:43:37
44080 17.08 57.37 14.13 66.42 992.32 2019-10-11 18:42:37
44079 17.07 57.39 14.13 66.73 992.29 2019-10-11 18:41:37
44078 17.07 57.38 13.99 66.74 992.22 2019-10-11 18:39:32
44077 17.07 57.39 13.85 66.94 992.23 2019-10-11 18:38:32
44076 17.08 57.39 14.13 66.33 992.24 2019-10-11 18:37:32
44075 17.07 57.35 14.01 66.64 992.25 2019-10-11 18:36:32
44074 17.05 57.37 14.19 66.41 992.26 2019-10-11 18:35:32
44073 17.09 57.25 14.32 66.18 992.26 2019-10-11 18:34:32
44072 17.09 57.24 14.33 66.16 992.29 2019-10-11 18:33:32
44071 17.08 57.24 14.37 66.17 992.34 2019-10-11 18:32:31
44070 17.09 57.27 14.39 66.10 992.33 2019-10-11 18:31:31
44069 17.08 57.28 14.36 66.03 992.35 2019-10-11 18:30:31
44068 17.09 57.27 14.39 65.88 992.33 2019-10-11 18:29:31
44067 17.09 57.26 14.36 65.85 992.32 2019-10-11 18:28:31
44066 17.09 57.26 14.27 65.82 992.28 2019-10-11 18:27:31
44065 17.09 57.25 14.21 65.95 992.27 2019-10-11 18:26:31
44064 17.09 57.28 14.09 66.29 992.30 2019-10-11 18:25:31
44063 17.09 57.27 14.20 66.59 992.29 2019-10-11 18:24:31
44062 17.08 57.30 14.21 66.20 992.27 2019-10-11 18:23:30
44061 17.09 57.30 14.35 65.51 992.27 2019-10-11 18:22:30
44060 17.09 57.29 14.49 65.60 992.33 2019-10-11 18:21:30
44059 17.08 57.30 14.47 65.67 992.33 2019-10-11 18:20:30
44058 17.09 57.30 14.40 65.49 992.34 2019-10-11 18:19:30
44057 17.09 57.30 14.48 65.52 992.36 2019-10-11 18:18:30
44056 17.09 57.30 14.42 65.67 992.34 2019-10-11 18:17:30
44055 17.09 57.31 14.26 65.62 992.33 2019-10-11 18:16:29
44054 17.09 57.30 14.25 65.72 992.35 2019-10-11 18:15:29
44053 17.10 57.32 14.18 65.86 992.34 2019-10-11 18:14:29
44052 17.10 57.30 14.18 65.66 992.32 2019-10-11 18:13:29
44051 17.09 57.33 14.34 65.44 992.35 2019-10-11 18:12:29
44050 17.10 57.31 14.36 64.89 992.35 2019-10-11 18:11:29
44049 17.10 57.32 14.40 64.58 992.31 2019-10-11 18:09:24
44048 17.10 57.32 14.55 64.14 992.33 2019-10-11 18:08:24
44047 17.10 57.32 14.58 64.13 992.37 2019-10-11 18:07:24
44046 17.11 57.32 14.45 64.17 992.37 2019-10-11 18:06:59
44045 17.10 57.34 14.75 63.98 992.33 2019-10-11 18:04:12
44044 17.11 57.32 14.76 64.20 992.30 2019-10-11 18:03:12
44043 17.10 57.33 14.63 64.37 992.33 2019-10-11 18:02:12
44042 17.11 57.31 14.65 64.03 992.33 2019-10-11 18:01:12
44041 17.11 57.32 14.82 63.24 992.32 2019-10-11 18:00:12
44040 17.11 57.31 14.76 63.26 992.32 2019-10-11 17:59:12
44039 17.13 57.32 14.79 63.65 992.34 2019-10-11 17:58:11
44038 17.11 57.31 14.85 63.91 992.31 2019-10-11 17:57:11
44037 17.11 57.31 14.82 63.89 992.28 2019-10-11 17:56:11
44036 17.11 57.32 14.88 63.93 992.26 2019-10-11 17:55:11
44035 17.11 57.34 14.82 63.60 992.25 2019-10-11 17:54:11
44034 17.12 57.31 14.93 63.33 992.31 2019-10-11 17:53:11
44033 17.11 57.34 14.90 63.01 992.35 2019-10-11 17:52:11
44032 17.12 57.33 14.83 62.78 992.41 2019-10-11 17:51:11
44031 17.11 57.33 14.84 62.13 992.42 2019-10-11 17:50:11
44030 17.12 57.33 14.79 61.87 992.35 2019-10-11 17:49:11
44029 17.12 57.34 14.75 62.03 992.33 2019-10-11 17:48:11
44028 17.12 57.35 14.71 62.22 992.34 2019-10-11 17:47:11
44027 17.13 57.32 14.67 62.58 992.28 2019-10-11 17:46:10
44026 17.13 57.32 14.71 62.38 992.27 2019-10-11 17:45:10
44025 17.13 57.33 14.77 62.28 992.32 2019-10-11 17:44:10
44024 17.13 57.33 14.77 62.47 992.37 2019-10-11 17:43:10
44023 17.13 57.34 14.81 62.26 992.39 2019-10-11 17:42:10
44022 17.13 57.34 14.80 62.33 992.39 2019-10-11 17:41:10
44021 17.13 57.35 14.93 62.39 992.41 2019-10-11 17:39:05
44020 17.14 57.35 14.94 62.25 992.37 2019-10-11 17:38:05
44019 17.14 57.34 14.98 62.21 992.43 2019-10-11 17:37:05
44018 17.14 57.35 14.92 62.15 992.40 2019-10-11 17:36:05
44017 17.15 57.36 14.90 62.08 992.43 2019-10-11 17:35:05
44016 17.16 57.34 14.92 62.09 992.42 2019-10-11 17:34:04
44015 17.15 57.34 14.97 62.07 992.37 2019-10-11 17:33:04
44014 17.15 57.36 14.98 62.13 992.39 2019-10-11 17:32:04
44013 17.15 57.37 15.09 62.62 992.39 2019-10-11 17:31:04
44012 17.14 57.37 15.18 63.05 992.41 2019-10-11 17:30:04
44011 17.14 57.38 15.23 62.71 992.42 2019-10-11 17:29:04
44010 17.15 57.37 15.27 62.75 992.43 2019-10-11 17:28:04
44009 17.16 57.38 15.17 62.84 992.50 2019-10-11 17:27:04
44008 17.15 57.39 15.27 62.33 992.49 2019-10-11 17:26:04
44007 17.15 57.38 15.29 62.45 992.50 2019-10-11 17:25:03
44006 17.15 57.38 15.29 62.42 992.47 2019-10-11 17:24:03
44005 17.15 57.38 15.27 62.19 992.51 2019-10-11 17:23:03
44004 17.15 57.37 15.27 62.22 992.48 2019-10-11 17:22:03
44003 17.16 57.35 15.36 62.67 992.46 2019-10-11 17:20:59
44002 17.16 57.35 15.33 62.69 992.53 2019-10-11 17:19:59
44001 17.17 57.36 15.38 62.26 992.46 2019-10-11 17:18:59
44000 17.17 57.38 15.39 61.86 992.45 2019-10-11 17:17:59
43999 17.17 57.37 15.32 61.27 992.47 2019-10-11 17:16:59
43998 17.16 57.38 15.46 61.28 992.44 2019-10-11 17:15:58
43997 17.18 57.36 15.48 60.85 992.45 2019-10-11 17:14:58
43996 17.16 57.38 15.46 60.16 992.47 2019-10-11 17:13:58
43995 17.17 57.38 15.47 59.55 992.45 2019-10-11 17:12:58
43994 17.16 57.41 15.40 58.84 992.49 2019-10-11 17:11:58
43993 17.17 57.39 15.45 59.23 992.41 2019-10-11 17:10:58
43992 17.18 57.40 15.42 59.28 992.49 2019-10-11 17:07:47
43991 17.18 57.40 15.43 59.41 992.50 2019-10-11 17:06:47
43990 17.19 57.40 15.44 59.03 992.57 2019-10-11 17:05:47
43989 17.19 57.41 15.46 58.68 992.57 2019-10-11 17:04:47
43988 17.19 57.40 15.46 58.74 992.52 2019-10-11 17:03:46
43987 17.18 57.43 15.51 58.40 992.50 2019-10-11 17:02:46
43986 17.19 57.43 15.52 58.41 992.50 2019-10-11 17:01:46
43985 17.18 57.44 15.52 58.07 992.50 2019-10-11 17:00:46
43984 17.19 57.43 15.53 58.08 992.52 2019-10-11 16:59:46
43983 17.19 57.43 15.50 58.49 992.50 2019-10-11 16:58:46
43982 17.19 57.43 15.50 58.73 992.54 2019-10-11 16:57:46
43981 17.19 57.45 15.49 58.46 992.56 2019-10-11 16:56:46
43980 17.20 57.44 15.53 58.36 992.62 2019-10-11 16:55:46
43979 17.19 57.46 15.53 57.98 992.59 2019-10-11 16:54:46
43978 17.19 57.47 15.50 58.27 992.63 2019-10-11 16:53:46
43977 17.19 57.50 15.51 58.16 992.64 2019-10-11 16:52:45
43976 17.19 57.48 15.53 57.87 992.60 2019-10-11 16:51:45
43975 17.19 57.50 15.52 58.51 992.60 2019-10-11 16:50:45
43974 17.19 57.51 15.59 58.30 992.66 2019-10-11 16:49:45
43973 17.19 57.52 15.60 57.98 992.66 2019-10-11 16:48:45
43972 17.19 57.53 15.58 57.90 992.67 2019-10-11 16:47:45
43971 17.19 57.54 15.62 58.52 992.70 2019-10-11 16:46:45
43970 17.20 57.55 15.67 57.87 992.76 2019-10-11 16:45:45
43969 17.19 57.55 15.68 57.69 992.75 2019-10-11 16:44:45
43968 17.19 57.56 15.64 57.62 992.71 2019-10-11 16:43:45
43967 17.19 57.58 15.67 57.07 992.68 2019-10-11 16:42:44
43966 17.20 57.58 15.67 56.59 992.70 2019-10-11 16:41:44
43965 17.20 57.58 15.63 56.61 992.66 2019-10-11 16:40:44
43964 17.19 57.59 15.66 57.77 992.68 2019-10-11 16:39:44
43963 17.21 57.57 15.67 57.51 992.67 2019-10-11 16:37:39
43962 17.20 57.59 15.72 58.01 992.71 2019-10-11 16:36:39
43961 17.21 57.58 15.71 57.65 992.76 2019-10-11 16:35:39
43960 17.21 57.58 15.65 58.24 992.75 2019-10-11 16:34:39
43959 17.20 57.60 15.69 57.90 992.76 2019-10-11 16:33:39
43958 17.21 57.61 15.72 57.96 992.76 2019-10-11 16:32:39
43957 17.21 57.63 15.73 58.67 992.73 2019-10-11 16:31:38
43956 17.21 57.62 15.70 58.59 992.75 2019-10-11 16:30:38
43955 17.23 57.60 15.77 58.31 992.74 2019-10-11 16:29:38
43954 17.22 57.60 15.79 58.73 992.71 2019-10-11 16:28:35
43953 17.21 57.67 15.70 58.32 992.70 2019-10-11 16:27:35
43952 17.22 57.62 15.74 59.27 992.74 2019-10-11 16:26:35
43951 17.22 57.65 15.79 59.06 992.73 2019-10-11 16:25:35
43950 17.22 57.66 15.86 59.40 992.77 2019-10-11 16:24:34
43949 17.22 57.66 15.92 59.46 992.80 2019-10-11 16:23:34
43948 17.23 57.66 15.94 59.09 992.79 2019-10-11 16:22:34
43947 17.22 57.68 15.85 58.38 992.78 2019-10-11 16:21:34
43946 17.22 57.68 15.86 58.14 992.78 2019-10-11 16:20:34
43945 17.22 57.68 15.88 58.23 992.73 2019-10-11 16:19:34
43944 17.22 57.71 15.79 57.70 992.73 2019-10-11 16:18:34
43943 17.22 57.74 15.84 58.41 992.71 2019-10-11 16:17:34
43942 17.21 57.79 15.84 58.42 992.73 2019-10-11 16:16:34
43941 17.21 57.80 15.93 58.15 992.75 2019-10-11 16:15:34
43940 17.21 57.80 15.88 56.61 992.75 2019-10-11 16:14:34
43939 17.21 57.82 15.80 56.22 992.74 2019-10-11 16:13:33
43938 17.22 57.82 15.77 56.72 992.75 2019-10-11 16:12:33
43937 17.22 57.84 15.87 58.09 992.75 2019-10-11 16:11:33
43936 17.22 57.85 15.87 58.11 992.79 2019-10-11 16:10:33
43935 17.23 57.85 15.96 58.88 992.81 2019-10-11 16:09:33
43934 17.23 57.85 16.07 57.94 992.82 2019-10-11 16:07:28
43933 17.25 57.87 16.05 57.71 992.84 2019-10-11 16:06:28
43932 17.24 57.85 16.06 57.59 992.83 2019-10-11 16:05:56
43931 17.25 57.87 16.10 57.50 992.89 2019-10-11 16:04:20
43930 17.25 57.83 16.06 57.66 992.90 2019-10-11 16:03:20
43929 17.26 57.81 16.06 57.30 992.93 2019-10-11 16:02:34
43928 17.25 57.74 16.06 56.60 992.92 2019-10-11 16:01:15
43927 17.26 57.78 15.94 55.92 992.93 2019-10-11 16:00:13
43926 17.25 57.72 15.93 57.77 992.96 2019-10-11 15:59:13
43925 17.26 57.71 15.99 57.68 992.95 2019-10-11 15:58:13
43924 17.26 57.69 15.94 57.32 992.94 2019-10-11 15:57:13
43923 17.26 57.69 16.04 58.06 992.94 2019-10-11 15:56:13
43922 17.27 57.65 16.01 57.78 992.99 2019-10-11 15:55:11
43921 17.27 57.67 16.03 57.81 993.00 2019-10-11 15:54:11
43920 17.26 57.64 15.96 57.23 992.95 2019-10-11 15:53:11
43919 17.27 57.61 16.07 57.92 993.02 2019-10-11 15:52:11
43918 17.27 57.53 16.02 57.81 993.04 2019-10-11 15:51:11
43917 17.27 57.54 16.02 58.72 993.04 2019-10-11 15:50:11
43916 17.28 57.42 16.08 59.37 993.02 2019-10-11 15:49:11
43915 17.29 57.34 15.93 58.85 993.04 2019-10-11 15:48:10
43914 17.28 57.27 16.12 58.25 993.10 2019-10-11 15:47:10
43913 17.29 57.21 16.11 58.78 993.09 2019-10-11 15:46:10
43912 17.30 57.04 16.07 58.48 993.08 2019-10-11 15:45:10
43911 17.29 56.91 16.14 57.38 993.10 2019-10-11 15:44:10
43910 17.30 56.76 16.10 56.12 993.11 2019-10-11 15:43:10
43909 17.30 56.70 16.14 56.95 993.11 2019-10-11 15:42:10
43908 17.31 56.66 16.15 57.34 993.15 2019-10-11 15:41:09
43907 17.30 56.68 16.09 56.80 993.13 2019-10-11 15:40:09
43906 17.31 56.65 16.15 57.56 993.14 2019-10-11 15:39:09
43905 17.31 56.64 16.25 57.91 993.19 2019-10-11 15:37:00
43904 17.31 56.63 16.19 58.10 993.19 2019-10-11 15:36:00
43903 17.32 56.62 16.23 58.36 993.23 2019-10-11 15:35:00
43902 17.32 56.62 16.32 57.35 993.24 2019-10-11 15:34:00
43901 17.32 56.63 16.30 58.02 993.21 2019-10-11 15:33:00
43900 17.32 56.60 16.33 58.14 993.23 2019-10-11 15:31:57
43899 17.33 56.61 16.34 57.96 993.23 2019-10-11 15:30:57
43898 17.32 56.61 16.30 57.51 993.26 2019-10-11 15:29:57
43897 17.33 56.60 16.36 57.95 993.23 2019-10-11 15:28:57
43896 17.33 56.59 16.36 58.03 993.24 2019-10-11 15:27:57
43895 17.35 56.57 16.28 57.40 993.21 2019-10-11 15:26:56
43894 17.35 56.53 16.31 56.13 993.18 2019-10-11 15:25:56
43893 17.35 56.54 16.15 55.21 993.14 2019-10-11 15:24:56
43892 17.36 56.57 16.21 56.49 993.17 2019-10-11 15:23:56
43891 17.35 56.57 16.29 57.86 993.22 2019-10-11 15:22:56
43890 17.35 56.57 16.23 57.70 993.24 2019-10-11 15:21:56
43889 17.35 56.60 16.17 56.61 993.26 2019-10-11 15:20:55
43888 17.35 56.62 16.29 57.66 993.31 2019-10-11 15:19:55
43887 17.34 56.62 16.37 56.91 993.35 2019-10-11 15:18:55
43886 17.33 56.64 16.31 56.45 993.33 2019-10-11 15:17:55
43885 17.33 56.67 16.40 56.91 993.34 2019-10-11 15:16:55
43884 17.33 56.67 16.30 55.89 993.36 2019-10-11 15:15:54
43883 17.34 56.65 16.31 56.29 993.33 2019-10-11 15:14:54
43882 17.33 56.68 16.35 56.10 993.36 2019-10-11 15:13:54
43881 17.33 56.69 16.32 55.54 993.34 2019-10-11 15:12:54
43880 17.31 56.74 16.28 55.75 993.37 2019-10-11 15:11:54
43879 17.32 56.72 16.33 56.03 993.41 2019-10-11 15:10:54
43878 17.32 56.71 16.33 57.24 993.43 2019-10-11 15:09:54
43877 17.33 56.70 16.32 55.95 993.41 2019-10-11 15:08:54
43876 17.32 56.70 16.38 55.82 993.41 2019-10-11 15:06:48
43875 17.34 56.72 16.28 55.16 993.46 2019-10-11 15:05:48
43874 17.34 56.70 16.35 55.82 993.49 2019-10-11 15:04:48
43873 17.33 56.72 16.39 55.75 993.49 2019-10-11 15:03:48
43872 17.34 56.71 16.34 55.33 993.46 2019-10-11 15:02:48
43871 17.34 56.72 16.29 55.07 993.48 2019-10-11 15:01:48
43870 17.34 56.71 16.44 56.83 993.54 2019-10-11 15:00:48
43869 17.35 56.71 16.41 56.71 993.58 2019-10-11 14:59:48
43868 17.35 56.71 16.42 57.75 993.60 2019-10-11 14:58:48
43867 17.34 56.71 16.43 56.89 993.64 2019-10-11 14:57:47
43866 17.34 56.72 16.40 55.88 993.68 2019-10-11 14:56:47
43865 17.34 56.74 16.35 54.71 993.66 2019-10-11 14:55:47
43864 17.35 56.73 16.32 54.80 993.67 2019-10-11 14:54:47
43863 17.35 56.75 16.23 54.47 993.64 2019-10-11 14:53:47
43862 17.35 56.76 16.19 54.62 993.65 2019-10-11 14:52:47
43861 17.34 56.78 16.17 55.08 993.71 2019-10-11 14:51:47
43860 17.35 56.77 16.27 54.89 993.72 2019-10-11 14:50:47
43859 17.34 56.77 16.19 55.78 993.75 2019-10-11 14:49:47
43858 17.35 56.75 16.18 54.61 993.72 2019-10-11 14:48:47
43857 17.36 56.73 16.16 55.18 993.75 2019-10-11 14:47:47
43856 17.37 56.68 16.15 55.26 993.72 2019-10-11 14:46:46
43855 17.37 56.71 16.05 54.96 993.72 2019-10-11 14:45:46
43854 17.36 56.74 16.14 55.55 993.67 2019-10-11 14:44:46
43853 17.36 56.75 16.06 55.44 993.70 2019-10-11 14:43:46
43852 17.36 56.75 16.23 55.79 993.67 2019-10-11 14:42:46
43851 17.36 56.74 16.25 56.59 993.67 2019-10-11 14:41:46
43850 17.36 56.78 16.26 55.84 993.65 2019-10-11 14:40:46
43849 17.35 56.76 16.25 55.09 993.68 2019-10-11 14:39:46
43848 17.36 56.75 16.27 55.20 993.68 2019-10-11 14:38:46
43847 17.37 56.73 16.24 54.44 993.78 2019-10-11 14:36:41
43846 17.37 56.75 16.36 56.27 993.81 2019-10-11 14:35:41
43845 17.38 56.70 16.38 55.67 993.78 2019-10-11 14:34:40
43844 17.39 56.68 16.31 55.04 993.81 2019-10-11 14:33:40
43843 17.38 56.68 16.39 55.30 993.75 2019-10-11 14:32:40
43842 17.39 56.65 16.29 55.10 993.81 2019-10-11 14:31:43
43841 17.39 56.64 16.41 56.54 993.78 2019-10-11 14:30:35
43840 17.38 56.65 16.30 55.27 993.78 2019-10-11 14:29:35
43839 17.38 56.66 16.29 56.32 993.77 2019-10-11 14:28:35
43838 17.37 56.67 16.34 56.79 993.78 2019-10-11 14:27:35
43837 17.38 56.67 16.28 55.45 993.73 2019-10-11 14:26:35
43836 17.37 56.69 16.28 54.81 993.77 2019-10-11 14:25:35
43835 17.36 56.72 16.21 54.88 993.81 2019-10-11 14:24:34
43834 17.38 56.67 16.32 54.31 993.73 2019-10-11 14:23:34
43833 17.36 56.69 16.24 54.69 993.76 2019-10-11 14:22:34
43832 17.36 56.72 16.27 55.64 993.80 2019-10-11 14:21:34
43831 17.35 56.73 16.32 55.14 993.79 2019-10-11 14:20:34
43830 17.35 56.73 16.36 56.33 993.81 2019-10-11 14:19:34
43829 17.34 56.76 16.40 55.19 993.76 2019-10-11 14:18:34
43828 17.36 56.75 16.25 53.41 993.77 2019-10-11 14:17:34
43827 17.35 56.74 16.28 54.77 993.71 2019-10-11 14:16:34
43826 17.35 56.77 16.38 55.64 993.73 2019-10-11 14:15:34
43825 17.36 56.73 16.32 53.76 993.70 2019-10-11 14:14:34
43824 17.36 56.76 16.30 54.40 993.75 2019-10-11 14:13:33
43823 17.35 56.76 16.36 54.31 993.68 2019-10-11 14:12:33
43822 17.34 56.79 16.36 54.19 993.72 2019-10-11 14:11:33
43821 17.34 56.80 16.29 53.21 993.72 2019-10-11 14:10:33
43820 17.33 56.83 16.32 53.46 993.71 2019-10-11 14:09:33
43819 17.32 56.84 16.36 54.20 993.75 2019-10-11 14:08:33
43818 17.31 56.89 16.38 54.84 993.76 2019-10-11 14:06:28
43817 17.32 56.89 16.40 56.21 993.78 2019-10-11 14:05:27
43816 17.33 56.90 16.35 55.16 993.76 2019-10-11 14:04:27
43815 17.32 56.88 16.40 56.49 993.76 2019-10-11 14:03:27
43814 17.32 56.89 16.43 57.04 993.78 2019-10-11 14:02:27
43813 17.32 56.89 16.43 56.74 993.81 2019-10-11 14:01:27
43812 17.32 56.91 16.40 56.02 993.86 2019-10-11 14:00:27
43811 17.31 56.94 16.29 55.61 993.90 2019-10-11 13:59:24
43810 17.32 56.91 16.27 56.48 993.98 2019-10-11 13:58:24
43809 17.32 56.90 16.35 56.94 993.95 2019-10-11 13:57:24
43808 17.33 56.90 16.37 57.02 993.92 2019-10-11 13:56:24
43807 17.33 56.88 16.27 55.90 993.92 2019-10-11 13:55:23
43806 17.33 56.92 16.16 55.40 994.02 2019-10-11 13:54:23
43805 17.35 56.88 16.20 54.72 994.02 2019-10-11 13:53:23
43804 17.35 56.87 16.21 55.04 994.01 2019-10-11 13:52:23
43803 17.35 56.85 16.22 55.89 994.05 2019-10-11 13:51:23
43802 17.35 56.85 16.22 56.08 994.10 2019-10-11 13:50:23
43801 17.35 56.86 16.19 55.71 994.05 2019-10-11 13:49:23
43800 17.35 56.85 16.10 55.86 994.10 2019-10-11 13:48:23
43799 17.35 56.83 16.04 56.46 994.09 2019-10-11 13:47:22
43798 17.35 56.85 16.13 58.27 994.09 2019-10-11 13:46:22
43797 17.32 56.89 16.01 57.33 994.10 2019-10-11 13:45:22
43796 17.31 56.91 15.99 56.68 994.05 2019-10-11 13:44:22
43795 17.29 56.96 16.02 58.79 994.04 2019-10-11 13:43:22
43794 17.30 56.95 16.06 57.83 994.09 2019-10-11 13:42:22
43793 17.28 56.99 15.99 57.41 994.10 2019-10-11 13:41:21
43792 17.29 56.97 16.01 57.80 994.08 2019-10-11 13:40:21
43791 17.29 56.96 16.02 57.56 994.08 2019-10-11 13:39:19
43790 17.30 56.96 16.05 57.50 994.11 2019-10-11 13:38:19
43789 17.30 56.95 15.87 55.77 994.16 2019-10-11 13:36:14
43788 17.30 56.94 16.01 57.51 994.18 2019-10-11 13:35:10
43787 17.30 56.95 15.91 57.07 994.16 2019-10-11 13:34:09
43786 17.30 56.96 15.94 56.64 994.17 2019-10-11 13:33:09
43785 17.30 56.96 16.00 56.88 994.17 2019-10-11 13:32:09
43784 17.30 56.96 16.01 57.15 994.15 2019-10-11 13:31:09
43783 17.30 56.94 15.99 57.04 994.15 2019-10-11 13:30:08
43782 17.30 56.92 16.04 57.68 994.15 2019-10-11 13:29:08
43781 17.30 56.94 15.97 56.93 994.19 2019-10-11 13:28:08
43780 17.31 56.92 15.90 57.17 994.17 2019-10-11 13:27:08
43779 17.30 56.95 15.81 58.23 994.26 2019-10-11 13:26:08
43778 17.29 56.96 15.85 57.66 994.17 2019-10-11 13:25:08
43777 17.29 56.96 15.78 56.31 994.25 2019-10-11 13:24:08
43776 17.29 56.95 15.70 57.51 994.31 2019-10-11 13:23:08
43775 17.28 56.99 15.79 57.72 994.26 2019-10-11 13:22:08
43774 17.28 56.98 15.69 57.50 994.26 2019-10-11 13:21:07
43773 17.28 56.98 15.67 57.59 994.32 2019-10-11 13:20:07
43772 17.28 56.98 15.76 57.62 994.31 2019-10-11 13:19:07
43771 17.29 56.94 15.70 57.54 994.29 2019-10-11 13:18:07
43770 17.29 56.98 15.70 58.38 994.39 2019-10-11 13:17:07
43769 17.29 56.96 15.75 58.98 994.35 2019-10-11 13:16:07
43768 17.29 56.97 15.69 59.02 994.33 2019-10-11 13:15:07
43767 17.29 56.94 15.65 58.08 994.38 2019-10-11 13:14:07
43766 17.30 56.95 15.68 58.95 994.41 2019-10-11 13:13:06
43765 17.30 56.90 15.70 58.13 994.45 2019-10-11 13:12:06
43764 17.31 56.90 15.71 57.89 994.43 2019-10-11 13:11:06
43763 17.30 56.92 15.75 57.65 994.42 2019-10-11 13:10:06
43762 17.30 56.91 15.74 57.96 994.43 2019-10-11 13:09:06
43761 17.30 56.92 15.69 58.69 994.41 2019-10-11 13:08:06
43760 17.28 57.01 15.62 58.24 994.40 2019-10-11 13:06:01
43759 17.27 57.02 15.52 58.71 994.42 2019-10-11 13:05:01
43758 17.27 57.04 15.61 59.05 994.40 2019-10-11 13:04:00
43757 17.28 57.02 15.56 58.93 994.40 2019-10-11 13:03:00
43756 17.29 57.00 15.55 59.01 994.39 2019-10-11 13:02:00
43755 17.28 57.00 15.48 59.16 994.42 2019-10-11 13:01:00
43754 17.28 57.03 15.52 58.25 994.47 2019-10-11 13:00:00
43753 17.27 57.08 15.41 59.05 994.47 2019-10-11 12:59:00
43752 17.25 57.12 15.48 59.44 994.48 2019-10-11 12:58:00
43751 17.25 57.12 15.41 59.16 994.45 2019-10-11 12:57:00
43750 17.25 57.13 15.35 58.84 994.42 2019-10-11 12:55:59
43749 17.25 57.17 15.27 58.52 994.42 2019-10-11 12:54:59
43748 17.23 57.17 15.19 58.06 994.43 2019-10-11 12:53:59
43747 17.23 57.20 15.28 59.28 994.45 2019-10-11 12:52:59
43746 17.23 57.20 15.40 59.89 994.51 2019-10-11 12:51:59
43745 17.24 57.20 15.35 59.77 994.54 2019-10-11 12:50:59
43744 17.24 57.19 15.39 59.00 994.57 2019-10-11 12:49:59
43743 17.25 57.19 15.40 58.80 994.54 2019-10-11 12:48:59
43742 17.25 57.17 15.38 58.84 994.52 2019-10-11 12:47:59
43741 17.26 57.16 15.39 59.20 994.55 2019-10-11 12:46:59
43740 17.26 57.13 15.30 58.69 994.53 2019-10-11 12:45:59
43739 17.26 57.14 15.37 58.49 994.58 2019-10-11 12:44:58
43738 17.26 57.17 15.25 57.61 994.58 2019-10-11 12:43:58
43737 17.25 57.19 15.29 58.08 994.59 2019-10-11 12:42:58
43736 17.26 57.17 15.30 58.41 994.62 2019-10-11 12:41:58
43735 17.27 57.16 15.37 59.67 994.68 2019-10-11 12:40:58
43734 17.27 57.15 15.32 59.97 994.70 2019-10-11 12:39:58
43733 17.27 57.16 15.35 59.25 994.69 2019-10-11 12:38:58
43732 17.28 57.15 15.36 58.67 994.70 2019-10-11 12:37:58
43731 17.28 57.16 15.34 57.63 994.79 2019-10-11 12:35:53
43730 17.28 57.16 15.43 58.66 994.79 2019-10-11 12:34:52
43729 17.28 57.15 15.51 58.63 994.83 2019-10-11 12:33:52
43728 17.28 57.15 15.47 57.73 994.87 2019-10-11 12:32:52
43727 17.29 57.16 15.61 58.31 994.88 2019-10-11 12:31:52
43726 17.28 57.16 15.73 57.59 994.95 2019-10-11 12:30:52
43725 17.30 57.14 15.71 57.04 994.94 2019-10-11 12:29:52
43724 17.30 57.13 15.66 56.35 995.01 2019-10-11 12:28:52
43723 17.31 57.08 15.67 55.74 995.00 2019-10-11 12:27:52
43722 17.33 57.05 15.76 55.52 994.99 2019-10-11 12:26:52
43721 17.32 57.07 15.77 55.82 995.05 2019-10-11 12:25:52
43720 17.33 57.06 15.80 56.36 995.04 2019-10-11 12:24:52
43719 17.34 57.04 15.83 55.89 994.99 2019-10-11 12:23:51
43718 17.35 57.03 15.86 55.64 995.00 2019-10-11 12:22:51
43717 17.35 57.04 15.80 55.38 995.03 2019-10-11 12:21:51
43716 17.36 57.01 16.08 55.66 995.05 2019-10-11 12:20:51
43715 17.36 56.99 16.00 55.27 995.04 2019-10-11 12:19:51
43714 17.37 56.99 16.16 57.63 995.07 2019-10-11 12:18:51
43713 17.37 57.01 16.08 57.01 995.09 2019-10-11 12:17:51
43712 17.36 57.03 16.05 56.93 995.07 2019-10-11 12:16:51
43711 17.36 57.03 16.07 57.85 995.08 2019-10-11 12:15:51
43710 17.36 57.04 16.08 57.56 995.09 2019-10-11 12:14:51
43709 17.36 57.03 16.06 57.06 995.06 2019-10-11 12:13:50
43708 17.37 57.01 16.12 55.96 995.08 2019-10-11 12:12:50
43707 17.38 57.01 16.06 56.53 995.07 2019-10-11 12:11:50
43706 17.36 57.03 16.07 57.13 995.12 2019-10-11 12:10:50
43705 17.37 57.03 15.99 56.48 995.04 2019-10-11 12:09:50
43704 17.38 57.00 16.01 56.00 995.05 2019-10-11 12:08:50
43703 17.36 57.07 15.94 57.50 995.05 2019-10-11 12:08:11
43702 17.36 57.07 15.79 57.58 994.95 2019-10-11 12:05:40
43701 17.35 57.11 15.62 57.83 994.93 2019-10-11 12:04:40
43700 17.35 57.12 15.55 57.29 994.94 2019-10-11 12:03:40
43699 17.36 57.09 15.70 57.76 994.92 2019-10-11 12:02:40
43698 17.36 57.08 15.69 56.71 995.02 2019-10-11 12:01:39
43697 17.38 57.05 15.79 56.51 994.97 2019-10-11 12:00:39
43696 17.37 57.06 15.82 56.23 995.01 2019-10-11 11:59:39
43695 17.38 57.08 15.78 56.86 995.02 2019-10-11 11:58:39
43694 17.38 57.05 15.82 58.28 995.03 2019-10-11 11:57:39
43693 17.39 57.03 15.98 56.74 995.00 2019-10-11 11:56:39
43692 17.40 57.00 16.13 57.12 995.05 2019-10-11 11:55:39
43691 17.41 56.98 16.14 57.09 995.00 2019-10-11 11:54:39
43690 17.41 56.99 16.11 56.67 995.00 2019-10-11 11:53:39
43689 17.41 56.99 16.09 57.33 994.98 2019-10-11 11:52:39
43688 17.42 56.97 16.40 56.52 995.01 2019-10-11 11:51:39
43687 17.44 56.95 16.58 56.71 994.93 2019-10-11 11:50:39
43686 17.44 56.93 16.55 56.03 994.85 2019-10-11 11:49:38
43685 17.47 56.89 16.62 54.96 994.88 2019-10-11 11:48:38
43684 17.48 56.86 16.69 55.33 994.88 2019-10-11 11:47:38
43683 17.49 56.78 16.54 55.65 994.89 2019-10-11 11:46:38
43682 17.51 56.72 16.62 54.98 994.88 2019-10-11 11:45:38
43681 17.54 56.67 16.59 56.69 994.90 2019-10-11 11:44:38
43680 17.53 56.65 16.34 55.90 994.92 2019-10-11 11:43:38
43679 17.53 56.67 16.50 55.85 994.95 2019-10-11 11:42:37
43678 17.51 56.73 16.36 55.76 995.00 2019-10-11 11:41:37
43677 17.49 56.79 16.64 57.66 994.97 2019-10-11 11:40:37
43676 17.47 56.83 16.49 56.64 994.96 2019-10-11 11:39:37
43675 17.43 56.96 16.23 56.14 994.93 2019-10-11 11:38:37
43674 17.41 57.06 16.26 56.82 994.92 2019-10-11 11:37:37
43673 17.37 57.12 16.01 56.87 994.90 2019-10-11 11:35:32
43672 17.36 57.16 16.15 58.84 994.97 2019-10-11 11:34:32
43671 17.37 57.15 16.06 58.33 994.94 2019-10-11 11:33:32
43670 17.38 57.11 15.97 58.46 994.98 2019-10-11 11:32:32
43669 17.39 57.07 16.11 58.07 995.00 2019-10-11 11:31:31
43668 17.39 57.09 16.06 58.61 994.93 2019-10-11 11:30:31
43667 17.38 57.11 15.98 59.39 994.91 2019-10-11 11:29:31
43666 17.37 57.12 16.05 58.61 994.99 2019-10-11 11:28:31
43665 17.37 57.15 15.88 57.50 995.01 2019-10-11 11:27:31
43664 17.37 57.15 15.85 57.97 995.03 2019-10-11 11:26:31
43663 17.37 57.15 15.96 58.31 995.16 2019-10-11 11:25:31
43662 17.37 57.16 15.90 58.44 995.09 2019-10-11 11:24:31
43661 17.37 57.16 15.68 58.31 995.14 2019-10-11 11:23:31
43660 17.39 57.13 15.74 58.54 995.14 2019-10-11 11:22:31
43659 17.38 57.09 15.95 58.01 995.11 2019-10-11 11:21:30
43658 17.38 57.13 16.01 58.93 995.19 2019-10-11 11:20:30
43657 17.39 57.08 15.96 59.23 995.14 2019-10-11 11:19:30
43656 17.39 57.07 16.07 59.44 995.18 2019-10-11 11:18:30
43655 17.40 57.03 15.99 59.61 995.23 2019-10-11 11:17:30
43654 17.38 57.07 15.92 58.86 995.22 2019-10-11 11:16:30
43653 17.35 57.12 15.79 59.19 995.20 2019-10-11 11:15:30
43652 17.33 57.22 15.64 58.92 995.19 2019-10-11 11:14:30
43651 17.31 57.30 15.50 60.90 995.22 2019-10-11 11:13:30
43650 17.28 57.38 15.15 60.50 995.22 2019-10-11 11:12:30
43649 17.29 57.34 15.45 60.49 995.21 2019-10-11 11:11:30
43648 17.30 57.27 15.46 60.42 995.24 2019-10-11 11:10:29
43647 17.31 57.24 15.37 61.05 995.28 2019-10-11 11:09:29
43646 17.28 57.37 15.24 60.82 995.21 2019-10-11 11:08:29
43645 17.27 57.39 15.10 60.79 995.20 2019-10-11 11:07:29
43644 17.23 57.49 15.08 61.84 995.18 2019-10-11 11:05:24
43643 17.22 57.51 14.96 61.66 995.22 2019-10-11 11:04:24
43642 17.21 57.56 14.89 61.67 995.18 2019-10-11 11:03:24
43641 17.21 57.57 14.78 61.25 995.16 2019-10-11 11:02:24
43640 17.20 57.60 14.89 61.93 995.16 2019-10-11 11:01:23
43639 17.19 57.64 14.97 62.33 995.15 2019-10-11 11:00:23
43638 17.19 57.61 14.76 61.50 995.17 2019-10-11 10:59:23
43637 17.18 57.66 14.97 61.12 995.13 2019-10-11 10:58:23
43636 17.17 57.71 14.84 61.30 995.15 2019-10-11 10:57:23
43635 17.17 57.72 14.80 60.99 995.20 2019-10-11 10:56:23
43634 17.17 57.71 14.83 61.60 995.17 2019-10-11 10:55:23
43633 17.16 57.72 14.87 62.02 995.23 2019-10-11 10:54:23
43632 17.15 57.76 14.96 61.78 995.25 2019-10-11 10:53:23
43631 17.15 57.80 14.75 61.55 995.28 2019-10-11 10:52:22
43630 17.14 57.77 14.63 61.76 995.30 2019-10-11 10:51:22
43629 17.12 57.85 14.54 61.55 995.23 2019-10-11 10:50:22
43628 17.13 57.85 14.76 61.69 995.22 2019-10-11 10:49:22
43627 17.13 57.86 14.77 61.47 995.28 2019-10-11 10:48:22
43626 17.12 57.87 14.80 61.30 995.24 2019-10-11 10:47:22
43625 17.12 57.90 14.84 62.17 995.26 2019-10-11 10:46:22
43624 17.13 57.89 14.79 61.63 995.28 2019-10-11 10:45:22
43623 17.12 57.91 15.10 61.83 995.31 2019-10-11 10:44:22
43622 17.12 57.91 14.92 61.17 995.32 2019-10-11 10:43:22
43621 17.12 57.94 14.97 60.93 995.30 2019-10-11 10:42:22
43620 17.11 57.95 15.08 60.87 995.28 2019-10-11 10:41:21
43619 17.11 57.96 14.98 60.85 995.31 2019-10-11 10:40:21
43618 17.11 57.97 14.95 60.86 995.27 2019-10-11 10:39:21
43617 17.13 57.94 15.11 60.53 995.28 2019-10-11 10:38:21
43616 17.11 57.97 15.12 61.18 995.30 2019-10-11 10:37:21
43615 17.10 58.02 14.93 61.90 995.23 2019-10-11 10:35:16
43614 17.10 58.02 15.14 61.64 995.26 2019-10-11 10:34:16
43613 17.11 58.02 15.12 60.50 995.25 2019-10-11 10:33:16
43612 17.10 58.03 15.19 60.13 995.26 2019-10-11 10:32:16
43611 17.11 58.04 15.14 60.20 995.23 2019-10-11 10:31:15
43610 17.10 58.05 15.12 60.90 995.23 2019-10-11 10:30:15
43609 17.09 58.08 14.81 61.35 995.31 2019-10-11 10:29:15
43608 17.08 58.11 14.89 61.66 995.24 2019-10-11 10:28:15
43607 17.09 58.09 15.01 61.87 995.26 2019-10-11 10:27:15
43606 17.09 58.11 14.88 62.15 995.23 2019-10-11 10:26:15
43605 17.08 58.11 14.80 62.11 995.23 2019-10-11 10:25:15
43604 17.08 58.14 14.75 61.86 995.22 2019-10-11 10:24:15
43603 17.08 58.14 14.70 62.28 995.24 2019-10-11 10:23:14
43602 17.07 58.15 14.92 62.70 995.26 2019-10-11 10:22:14
43601 17.07 58.19 14.83 61.93 995.27 2019-10-11 10:21:14
43600 17.06 58.21 14.79 63.87 995.28 2019-10-11 10:20:14
43599 17.05 58.26 14.67 63.09 995.28 2019-10-11 10:19:14
43598 17.05 58.26 14.71 62.51 995.30 2019-10-11 10:18:14
43597 17.05 58.28 14.68 62.50 995.30 2019-10-11 10:17:14
43596 17.04 58.30 14.49 61.75 995.26 2019-10-11 10:16:14
43595 17.04 58.34 14.64 62.57 995.26 2019-10-11 10:15:14
43594 17.02 58.35 14.74 62.64 995.32 2019-10-11 10:14:14
43593 17.03 58.35 14.84 62.80 995.35 2019-10-11 10:13:13
43592 17.03 58.37 14.73 62.46 995.35 2019-10-11 10:12:13
43591 17.03 58.40 14.85 63.11 995.33 2019-10-11 10:11:13
43590 17.02 58.38 14.80 63.34 995.35 2019-10-11 10:10:13
43589 17.02 58.42 14.89 63.09 995.42 2019-10-11 10:09:13
43588 17.01 58.46 14.89 62.62 995.45 2019-10-11 10:08:13
43587 17.01 58.48 14.80 62.25 995.45 2019-10-11 10:04:59
43586 17.00 58.50 15.00 62.55 995.49 2019-10-11 10:03:59
43585 16.99 58.52 14.83 63.16 995.51 2019-10-11 10:02:59
43584 17.00 58.51 14.97 62.39 995.52 2019-10-11 10:01:59
43583 17.00 58.53 14.84 62.06 995.47 2019-10-11 10:00:58
43582 16.99 58.54 15.13 61.83 995.47 2019-10-11 09:59:58
43581 16.99 58.57 14.89 61.92 995.52 2019-10-11 09:58:58
43580 16.99 58.59 14.85 62.40 995.57 2019-10-11 09:57:58
43579 17.00 58.59 14.73 62.10 995.55 2019-10-11 09:56:58
43578 16.99 58.60 14.63 61.47 995.58 2019-10-11 09:55:58
43577 16.99 58.61 15.01 61.58 995.58 2019-10-11 09:54:58
43576 16.98 58.62 14.89 61.33 995.56 2019-10-11 09:53:58
43575 16.99 58.63 15.54 60.73 995.56 2019-10-11 09:52:58
43574 16.99 58.66 15.31 60.28 995.56 2019-10-11 09:51:58
43573 16.98 58.70 16.03 57.35 995.59 2019-10-11 09:50:58
43572 16.98 58.71 16.26 57.53 995.58 2019-10-11 09:49:57
43571 16.97 58.75 16.45 56.94 995.60 2019-10-11 09:48:57
43570 16.98 58.77 16.63 56.10 995.61 2019-10-11 09:47:57
43569 16.97 58.80 16.11 57.10 995.55 2019-10-11 09:46:57
43568 16.96 58.83 15.29 57.29 995.53 2019-10-11 09:45:57
43567 16.95 58.87 15.98 56.12 995.49 2019-10-11 09:44:57
43566 16.94 58.89 16.12 54.68 995.47 2019-10-11 09:43:57
43565 16.94 58.90 17.51 51.48 995.42 2019-10-11 09:42:57
43564 16.93 58.92 17.93 49.98 995.43 2019-10-11 09:41:57
43563 16.94 58.96 19.37 48.08 995.42 2019-10-11 09:40:57
43562 16.92 58.98 18.62 50.17 995.43 2019-10-11 09:39:57
43561 16.93 59.00 17.31 51.26 995.40 2019-10-11 09:38:56
43560 16.93 59.01 17.93 50.89 995.43 2019-10-11 09:37:56
43559 16.92 59.04 18.53 49.06 995.40 2019-10-11 09:36:56
43558 16.92 59.04 17.72 49.90 995.49 2019-10-11 09:34:51
43557 16.90 59.09 18.77 48.10 995.56 2019-10-11 09:33:51
43556 16.90 59.08 17.64 50.74 995.51 2019-10-11 09:32:51
43555 16.91 59.05 17.69 50.87 995.56 2019-10-11 09:31:51
43554 16.90 59.05 18.45 49.29 995.51 2019-10-11 09:30:51
43553 16.89 59.10 17.43 51.30 995.51 2019-10-11 09:29:51
43552 16.89 59.04 17.64 50.51 995.50 2019-10-11 09:28:51
43551 16.89 59.12 19.04 48.43 995.49 2019-10-11 09:27:50
43550 16.89 59.15 19.25 47.97 995.52 2019-10-11 09:26:50
43549 16.89 59.15 18.98 48.77 995.49 2019-10-11 09:25:50
43548 16.89 59.11 17.37 52.88 995.47 2019-10-11 09:24:50
43547 16.88 59.13 16.94 52.86 995.50 2019-10-11 09:23:50
43546 16.88 59.15 17.74 52.38 995.49 2019-10-11 09:22:50
43545 16.87 59.15 17.01 55.52 995.52 2019-10-11 09:21:50
43544 16.86 59.21 15.46 59.22 995.51 2019-10-11 09:20:50
43543 16.86 59.16 15.46 60.48 995.48 2019-10-11 09:19:50
43542 16.85 59.18 14.15 65.80 995.49 2019-10-11 09:18:50
43541 16.85 59.24 11.93 70.97 995.53 2019-10-11 09:17:49
43540 16.84 59.23 11.34 71.58 995.52 2019-10-11 09:16:49
43539 16.85 59.29 11.34 71.44 995.50 2019-10-11 09:15:49
43538 16.86 59.27 11.40 71.33 995.50 2019-10-11 09:14:49
43537 16.85 59.26 11.30 71.90 995.48 2019-10-11 09:13:49
43536 16.86 59.31 11.07 71.95 995.47 2019-10-11 09:12:49
43535 16.86 59.34 11.49 71.34 995.44 2019-10-11 09:11:49
43534 16.86 59.35 11.66 71.08 995.43 2019-10-11 09:10:49
43533 16.86 59.38 11.94 71.31 995.40 2019-10-11 09:09:48
43532 16.86 59.40 11.30 72.42 995.37 2019-10-11 09:08:48
43531 16.86 59.45 11.15 73.05 995.38 2019-10-11 09:07:48
43530 16.85 59.48 11.05 73.11 995.35 2019-10-11 09:06:48
43529 16.86 59.50 10.77 73.47 995.32 2019-10-11 09:04:43
43528 16.86 59.51 10.90 73.15 995.37 2019-10-11 09:03:43
43527 16.85 59.52 10.70 73.69 995.34 2019-10-11 09:02:43
43526 16.85 59.53 10.44 73.95 995.34 2019-10-11 09:01:43
43525 16.85 59.57 10.30 74.30 995.27 2019-10-11 09:00:43
43524 16.86 59.58 10.24 74.18 995.27 2019-10-11 08:59:43
43523 16.85 59.61 10.09 74.02 995.25 2019-10-11 08:58:42
43522 16.85 59.63 10.31 73.86 995.25 2019-10-11 08:57:42
43521 16.84 59.67 10.18 74.30 995.30 2019-10-11 08:56:42
43520 16.85 59.69 9.91 74.55 995.26 2019-10-11 08:55:42
43519 16.85 59.69 9.82 74.40 995.27 2019-10-11 08:54:42
43518 16.84 59.72 9.93 74.11 995.25 2019-10-11 08:53:42
43517 16.84 59.75 9.92 73.90 995.25 2019-10-11 08:52:42
43516 16.84 59.76 10.05 73.44 995.22 2019-10-11 08:51:42
43515 16.85 59.78 10.13 73.22 995.23 2019-10-11 08:50:42
43514 16.87 59.82 10.35 72.78 995.19 2019-10-11 08:49:42
43513 16.85 59.86 10.31 73.17 995.20 2019-10-11 08:48:42
43512 16.85 59.87 10.14 73.36 995.19 2019-10-11 08:47:41
43511 16.85 59.91 9.98 73.86 995.24 2019-10-11 08:46:41
43510 16.85 59.95 9.81 74.03 995.26 2019-10-11 08:45:41
43509 16.85 60.00 9.69 74.05 995.27 2019-10-11 08:44:41
43508 16.85 60.03 9.71 74.28 995.26 2019-10-11 08:43:41
43507 16.84 60.06 9.68 74.19 995.24 2019-10-11 08:42:41
43506 16.85 60.03 9.70 74.15 995.22 2019-10-11 08:41:41
43505 16.84 60.08 9.71 74.19 995.24 2019-10-11 08:40:41
43504 16.85 60.07 9.55 74.09 995.23 2019-10-11 08:39:41
43503 16.84 60.07 9.43 74.21 995.22 2019-10-11 08:38:41
43502 16.84 60.06 9.39 73.96 995.29 2019-10-11 08:37:41
43501 16.83 60.11 9.29 73.99 995.28 2019-10-11 08:36:40
43500 16.83 60.06 9.04 74.64 995.26 2019-10-11 08:34:35
43499 16.82 60.06 8.88 74.76 995.26 2019-10-11 08:33:35
43498 16.83 60.05 8.86 74.98 995.23 2019-10-11 08:32:35
43497 16.83 60.04 8.74 75.32 995.21 2019-10-11 08:31:35
43496 16.83 60.03 8.64 75.42 995.20 2019-10-11 08:30:35
43495 16.83 60.05 8.51 75.71 995.21 2019-10-11 08:29:35
43494 16.81 60.09 8.34 75.91 995.27 2019-10-11 08:28:35
43493 16.80 60.07 8.40 75.67 995.27 2019-10-11 08:27:35
43492 16.82 60.08 8.53 75.77 995.21 2019-10-11 08:26:34
43491 16.82 60.12 8.34 76.26 995.25 2019-10-11 08:25:34
43490 16.82 60.12 8.17 76.42 995.27 2019-10-11 08:24:33
43489 16.82 60.13 8.06 76.61 995.21 2019-10-11 08:23:33
43488 16.83 60.06 7.93 76.64 995.23 2019-10-11 08:22:33
43487 16.82 60.09 7.94 76.52 995.20 2019-10-11 08:21:33
43486 16.83 60.06 7.92 76.53 995.21 2019-10-11 08:20:33
43485 16.83 60.08 7.81 76.45 995.19 2019-10-11 08:19:33
43484 16.83 60.09 7.84 76.22 995.19 2019-10-11 08:18:33
43483 16.83 60.11 7.77 76.11 995.16 2019-10-11 08:17:33
43482 16.83 60.11 7.79 75.77 995.08 2019-10-11 08:16:33
43481 16.82 60.13 7.82 75.37 995.00 2019-10-11 08:15:33
43480 16.82 60.15 7.86 75.01 994.96 2019-10-11 08:14:33
43479 16.82 60.17 7.94 74.58 994.90 2019-10-11 08:13:32
43478 16.82 60.19 8.02 74.35 994.88 2019-10-11 08:12:32
43477 16.82 60.24 7.94 74.47 994.85 2019-10-11 08:11:32
43476 16.81 60.24 7.88 74.51 994.86 2019-10-11 08:10:32
43475 16.82 60.25 7.87 74.44 994.86 2019-10-11 08:09:32
43474 16.82 60.25 7.89 74.26 994.85 2019-10-11 08:08:32
43473 16.82 60.23 7.85 74.14 994.85 2019-10-11 08:07:32
43472 16.81 60.26 7.87 73.92 994.82 2019-10-11 08:06:32
43471 16.81 60.26 7.81 73.76 994.80 2019-10-11 08:04:26
43470 16.81 60.29 7.78 73.81 994.83 2019-10-11 08:03:26
43469 16.81 60.29 7.68 74.09 994.85 2019-10-11 08:02:26
43468 16.81 60.30 7.57 74.12 994.92 2019-10-11 08:01:26
43467 16.82 60.29 7.59 73.95 994.89 2019-10-11 08:00:26
43466 16.82 60.31 7.62 73.82 994.91 2019-10-11 07:59:26
43465 16.82 60.32 7.57 73.86 994.92 2019-10-11 07:58:26
43464 16.81 60.34 7.56 73.79 994.90 2019-10-11 07:57:26
43463 16.82 60.34 7.53 73.70 994.92 2019-10-11 07:56:26
43462 16.82 60.35 7.57 73.52 994.99 2019-10-11 07:55:26
43461 16.81 60.40 7.62 73.35 994.97 2019-10-11 07:54:26
43460 16.80 60.43 7.57 73.40 994.98 2019-10-11 07:53:25
43459 16.82 60.41 7.64 73.20 995.02 2019-10-11 07:52:25
43458 16.81 60.46 7.64 73.08 995.05 2019-10-11 07:51:25
43457 16.80 60.47 7.61 73.12 995.07 2019-10-11 07:50:25
43456 16.81 60.46 7.53 73.24 995.08 2019-10-11 07:49:25
43455 16.81 60.46 7.54 73.05 995.05 2019-10-11 07:48:25
43454 16.81 60.50 7.49 73.14 995.09 2019-10-11 07:47:25
43453 16.81 60.53 7.48 72.99 995.04 2019-10-11 07:46:25
43452 16.81 60.54 7.48 72.88 995.09 2019-10-11 07:45:25
43451 16.81 60.52 7.54 72.66 995.10 2019-10-11 07:44:25
43450 16.81 60.54 7.59 72.41 995.13 2019-10-11 07:43:25
43449 16.81 60.56 7.59 72.30 995.12 2019-10-11 07:42:24
43448 16.80 60.59 7.55 72.31 995.13 2019-10-11 07:41:24
43447 16.79 60.61 7.56 72.25 995.15 2019-10-11 07:40:24
43446 16.79 60.64 7.57 72.21 995.14 2019-10-11 07:39:24
43445 16.79 60.66 7.57 72.22 995.13 2019-10-11 07:38:24
43444 16.79 60.70 7.54 72.29 995.10 2019-10-11 07:37:24
43443 16.79 60.72 7.56 72.21 995.12 2019-10-11 07:36:24
43442 16.79 60.70 7.02 73.45 995.01 2019-10-11 07:34:19
43441 16.78 60.72 7.09 72.48 994.99 2019-10-11 07:33:19
43440 16.77 60.76 7.55 71.28 995.02 2019-10-11 07:32:19
43439 16.78 60.77 7.68 71.07 995.03 2019-10-11 07:31:19
43438 16.77 60.77 7.65 71.19 995.05 2019-10-11 07:30:18
43437 16.76 60.89 7.62 71.21 995.04 2019-10-11 07:29:18
43436 16.76 60.90 7.63 71.14 995.07 2019-10-11 07:28:18
43435 16.75 60.95 7.65 71.18 995.03 2019-10-11 07:27:18
43434 16.77 60.89 7.62 71.24 995.04 2019-10-11 07:26:18
43433 16.76 60.88 7.68 71.15 995.09 2019-10-11 07:25:18
43432 16.77 60.88 7.64 71.37 995.07 2019-10-11 07:24:18
43431 16.77 60.93 7.53 71.61 995.13 2019-10-11 07:23:18
43430 16.77 60.96 7.49 71.60 995.16 2019-10-11 07:22:18
43429 16.77 61.00 7.56 71.42 995.20 2019-10-11 07:21:18
43428 16.76 61.03 7.64 71.36 995.23 2019-10-11 07:20:18
43427 16.76 61.00 7.61 71.59 995.24 2019-10-11 07:19:17
43426 16.76 61.04 7.56 71.65 995.30 2019-10-11 07:18:17
43425 16.75 61.13 7.50 71.94 995.27 2019-10-11 07:17:17
43424 16.74 61.19 7.48 72.17 995.21 2019-10-11 07:16:17
43423 16.73 61.12 7.30 72.48 995.21 2019-10-11 07:15:17
43422 16.76 61.03 7.25 72.58 995.23 2019-10-11 07:14:17
43421 16.75 61.16 7.26 72.60 995.21 2019-10-11 07:13:17
43420 16.74 61.21 7.29 72.55 995.19 2019-10-11 07:12:17
43419 16.75 61.14 7.32 72.51 995.19 2019-10-11 07:11:17
43418 16.73 61.24 7.26 72.80 995.20 2019-10-11 07:10:17
43417 16.73 61.20 7.14 72.93 995.19 2019-10-11 07:09:17
43416 16.74 61.31 7.17 72.75 995.16 2019-10-11 07:08:16
43415 16.74 61.36 7.29 72.60 995.20 2019-10-11 07:07:16
43414 16.73 61.44 7.35 72.56 995.18 2019-10-11 07:06:16
43413 16.72 61.70 7.23 72.66 995.17 2019-10-11 07:04:11
43412 16.69 61.77 7.32 72.41 995.18 2019-10-11 07:03:11
43411 16.70 61.83 7.49 72.30 995.14 2019-10-11 07:02:11
43410 16.68 61.80 7.53 72.38 995.12 2019-10-11 07:01:11
43409 16.66 61.68 7.47 72.52 995.09 2019-10-11 07:00:11
43408 16.64 61.75 7.42 72.69 995.10 2019-10-11 06:59:10
43407 16.65 61.83 7.39